GFSSGP_250_rhum_000.txt.gz
RH
41 45 48 66 90 69 82 98 99 100 100 100 96 98 82 63 74 84 83 82 94 96 81 86 83 77 71 58 46 49 54 52 60 56 47 34 28 21 22 22 34 39 36 28 28 28 43 28 56
58 61 56 67 72 100 86 95 75 76 100 96 89 67 74 82 61 68 72 78 92 86 77 71 64 58 55 53 40 37 32 37 32 31 28 17 16 14 23 34 58 54 59 51 69 73 61 68 49
85 76 71 96 100 100 100 96 94 98 82 74 82 68 75 96 81 97 100 99 89 80 58 48 44 45 43 31 24 20 15 18 19 18 14 15 19 28 57 57 55 61 78 67 49 43 64 53 39
100 100 100 100 95 100 96 74 92 73 68 72 90 80 90 83 100 100 94 71 59 61 50 45 37 31 21 13 8 11 14 17 18 22 36 53 50 55 42 49 38 31 30 18 19 29 28 30 35
100 100 78 85 73 68 100 100 100 100 100 100 86 73 97 93 76 86 82 46 46 51 43 31 23 9 8 8 15 21 30 31 39 36 30 30 34 39 42 45 42 42 41 36 30 25 25 24 33
100 98 99 96 98 67 72 100 100 98 80 67 98 92 76 62 85 88 70 54 43 28 16 13 8 12 18 25 32 32 31 29 27 33 37 40 44 56 60 56 54 51 47 41 33 24 22 24 31
100 100 100 90 80 92 100 80 91 98 71 77 90 91 71 73 70 64 41 28 16 10 10 11 15 21 26 32 34 30 29 30 32 32 32 34 39 47 54 57 62 56 54 43 35 32 26 25 32
100 93 92 92 100 100 88 83 93 100 97 74 62 75 78 61 43 26 10 10 11 13 16 21 27 34 33 30 30 33 34 39 44 42 43 45 43 43 46 54 69 74 65 62 53 36 31 31 40
70 94 96 97 92 83 96 97 80 74 74 75 77 61 36 18 10 8 12 15 18 30 34 36 35 35 37 37 37 36 37 37 40 42 42 44 49 51 52 52 52 42 45 59 60 67 55 29 26
92 82 71 77 81 80 86 80 69 62 65 62 40 22 8 6 11 17 19 26 34 35 37 34 33 32 32 38 41 39 40 39 37 41 44 48 50 52 53 70 70 63 54 48 48 53 59 67 63
83 61 62 67 68 68 72 76 70 53 33 21 9 7 11 14 26 26 26 29 32 32 31 28 26 28 29 32 36 38 42 48 54 62 60 67 75 65 65 70 77 94 92 74 58 51 47 45 51
85 74 71 68 62 57 44 30 22 15 11 9 15 17 22 26 26 28 29 29 28 29 27 22 24 24 22 22 27 32 35 38 43 48 52 57 58 67 76 69 71 84 96 98 100 100 95 76 54
55 55 38 34 35 29 15 11 11 11 16 21 21 22 25 28 28 25 26 27 24 24 22 23 26 28 28 32 35 38 37 38 40 43 46 53 57 55 47 49 54 52 56 72 71 82 89 94 100
34 31 25 21 18 11 10 13 18 18 22 26 25 25 21 21 20 22 23 33 36 37 45 52 55 52 46 47 43 43 46 51 49 44 43 41 47 50 50 49 49 50 50 50 49 51 58 65 60
26 18 14 9 9 14 17 20 22 24 26 24 22 22 23 29 44 71 72 72 76 84 78 73 66 68 66 59 59 57 61 65 61 58 57 57 60 61 63 63 67 74 75 67 62 60 61 68 61
10 11 10 15 17 24 26 27 27 25 26 44 54 71 80 94 89 88 89 91 77 86 70 79 73 66 63 65 59 48 45 43 45 43 39 42 50 50 52 55 50 49 56 63 65 59 51 54 61
14 14 18 20 28 29 33 28 33 28 36 46 52 56 64 74 76 71 55 48 47 50 47 54 55 54 51 50 54 52 48 46 42 49 55 50 40 37 39 40 39 38 38 42 42 43 43 44 44
17 18 22 26 32 33 37 42 42 44 34 35 36 42 48 50 47 48 49 48 38 33 45 52 51 44 42 42 45 55 66 80 82 82 74 62 62 58 54 53 48 44 45 49 46 46 44 46 44
20 22 23 27 32 34 35 32 30 28 32 37 30 24 24 43 38 40 39 37 41 32 25 30 35 34 29 29 35 39 44 49 50 49 54 55 52 50 49 61 51 47 50 50 49 47 51 50 52
22 21 21 23 23 23 22 22 18 20 22 26 24 26 26 31 32 33 27 32 37 34 30 30 28 27 30 35 40 48 46 48 51 57 66 68 69 68 69 71 84 85 70 68 61 54 46 41 40
19 20 22 25 26 24 22 22 20 20 18 19 19 21 22 25 33 27 24 23 23 25 28 25 27 30 48 71 88 97 100 96 91 97 100 100 100 97 86 78 76 70 59 61 62 54 52 50 51
21 23 22 21 24 26 24 22 22 21 20 24 26 25 27 29 29 27 22 21 25 27 28 52 64 78 91 97 94 87 76 74 77 74 69 64 60 60 63 57 50 49 45 42 41 39 40 44 41
20 21 20 20 19 21 25 22 21 21 22 26 26 28 32 35 33 35 31 29 30 32 52 72 76 72 80 72 65 66 65 58 48 44 42 44 44 42 45 38 34 37 37 38 41 43 42 40 46
20 19 20 21 23 24 23 29 38 38 34 34 38 34 32 32 28 31 36 40 46 51 51 68 70 69 66 67 64 63 51 41 43 42 40 39 38 39 38 39 43 45 46 47 45 44 46 39 38
24 24 27 25 24 22 26 27 28 31 31 30 25 22 23 26 30 39 43 44 48 54 64 66 66 65 61 52 50 47 43 42 41 40 43 46 45 44 47 51 58 59 58 53 52 47 31 25 26
21 23 21 19 23 26 22 25 20 19 18 18 19 30 38 49 58 59 61 62 59 59 57 57 55 49 45 45 46 45 48 52 53 54 56 49 52 56 49 48 57 55 52 57 42 28 23 19 17
22 26 26 25 30 34 32 24 18 19 25 32 42 56 66 65 55 50 50 56 60 60 56 52 46 43 42 47 44 52 67 69 63 63 64 67 65 62 54 54 46 43 40 36 28 23 19 17 17
17 19 21 24 26 25 21 22 24 33 46 58 75 68 70 66 65 70 68 64 59 54 47 40 39 44 52 65 71 68 80 68 76 73 68 57 50 50 45 38 34 29 24 23 22 21 17 17 16
16 17 17 17 18 18 24 30 39 56 67 71 65 74 69 59 54 54 53 46 40 39 41 48 52 56 67 86 85 74 74 76 66 61 61 52 44 40 32 28 24 22 20 19 19 18 17 16 16
16 17 18 18 19 27 45 71 64 63 63 59 57 59 57 48 39 37 36 38 41 51 63 66 80 96 88 94 88 72 83 73 66 58 57 48 44 31 24 20 18 17 15 14 14 14 14 15 15

GFSSGP_250_rhum_003.txt.gz
RH
56 55 59 80 69 60 52 40 42 54 52 44 42 47 38 63 66 100 99 98 68 65 71 60 82 94 94 81 71 82 82 67 50 45 36 22 20 21 30 20 26 27 19 16 16 19 37 35 56
55 52 52 46 73 78 68 57 47 46 46 47 46 44 57 82 91 65 64 84 70 82 84 100 90 82 92 90 76 55 71 51 18 13 13 16 14 15 21 21 28 23 27 29 26 38 46 45 68
61 88 44 40 61 85 51 36 42 65 70 68 69 88 78 72 58 100 95 98 100 100 100 90 100 95 86 80 33 19 10 9 8 9 11 16 18 25 24 34 32 34 42 40 38 55 78 86 87
68 78 70 70 100 94 70 89 99 87 82 63 56 60 61 68 62 66 98 89 81 72 91 96 82 65 28 12 7 8 10 15 22 24 29 29 31 28 26 28 31 31 38 34 34 25 26 52 80
83 64 84 94 96 70 93 100 90 72 68 96 100 100 100 100 99 95 90 83 80 85 96 78 58 32 5 7 10 14 18 24 30 30 27 22 24 28 33 36 40 45 50 47 45 45 39 35 30
98 100 100 94 97 80 89 85 70 76 81 92 100 100 100 100 100 100 86 96 95 85 60 21 6 6 9 12 16 22 22 23 24 23 23 23 26 29 30 34 43 49 53 54 48 41 35 35 30
98 97 93 86 94 89 83 85 83 83 94 88 100 85 85 77 81 87 100 94 73 52 15 6 10 13 16 21 20 20 22 26 29 31 34 33 31 33 38 42 44 45 54 63 58 52 43 28 26
100 100 99 100 88 71 100 84 100 98 100 91 62 69 73 72 86 80 62 38 16 10 12 15 20 24 26 26 26 29 29 27 29 35 35 38 39 40 43 46 45 38 33 31 45 55 55 54 33
100 99 100 84 99 99 99 95 90 81 84 98 88 78 80 59 42 24 10 6 9 14 20 29 27 25 23 23 22 22 25 28 38 38 44 46 40 43 49 49 51 57 67 46 36 36 45 51 54
98 72 74 93 93 90 99 99 88 87 76 90 84 52 39 22 13 8 10 14 21 28 25 22 21 22 24 24 29 35 34 38 41 43 44 46 53 51 44 40 39 37 42 52 62 51 46 34 38
100 87 89 97 98 76 80 75 70 76 76 73 46 18 11 7 9 12 20 22 22 21 24 25 24 29 28 29 32 35 38 42 48 46 48 47 53 58 56 52 51 53 48 40 43 54 52 70 75
89 94 84 88 88 86 82 65 58 43 28 12 6 8 8 15 20 22 22 25 24 26 28 24 32 36 37 38 40 38 39 39 42 45 46 52 52 49 54 55 52 53 57 59 56 48 48 54 58
75 68 66 54 46 51 52 35 29 15 14 11 12 15 15 21 22 20 23 27 31 31 40 60 62 61 60 57 59 60 57 52 50 50 48 48 48 47 50 56 57 59 61 61 65 65 64 55 52
65 50 44 38 36 35 28 16 14 11 13 17 24 24 22 20 20 24 24 27 38 65 67 79 74 73 67 66 64 58 54 52 50 44 40 36 35 35 42 39 34 36 39 40 39 39 49 56 56
40 34 30 28 22 15 13 10 13 17 23 27 21 20 20 22 26 25 35 45 46 67 41 40 48 58 61 62 55 46 39 36 35 36 36 39 40 42 42 42 36 35 40 42 40 42 40 38 41
23 20 14 12 10 12 15 17 22 28 27 22 24 27 41 43 50 46 44 53 52 54 46 36 32 32 36 36 36 36 35 34 41 45 48 53 50 54 56 54 50 47 44 39 34 31 31 30 30
10 11 12 12 15 18 19 28 32 35 41 32 31 43 47 30 22 23 36 36 34 35 34 29 27 30 29 29 33 41 48 58 62 66 71 82 97 98 96 84 72 59 52 44 40 40 38 36 34
13 14 15 19 24 25 27 31 40 38 40 43 35 29 28 25 24 28 25 26 26 30 28 25 25 24 27 30 29 38 56 50 46 48 47 50 50 52 50 51 51 51 54 56 58 58 49 45 41
15 17 21 25 29 30 31 32 37 38 25 18 17 18 21 24 24 21 21 22 24 25 24 22 21 22 27 26 34 45 45 43 46 54 56 58 57 53 57 62 77 90 91 79 79 71 66 67 64
17 19 23 23 24 27 30 29 30 23 21 20 20 22 28 31 29 25 23 22 21 21 22 21 21 26 33 43 49 48 48 52 62 77 97 96 95 92 96 96 90 78 68 57 58 54 52 51 54
20 23 23 20 18 16 20 22 24 24 24 26 29 36 37 32 27 27 23 24 28 27 31 34 38 45 48 49 49 62 76 82 83 83 86 87 84 79 75 72 67 63 57 52 51 54 50 46 40
22 19 18 17 18 17 18 20 23 29 36 35 38 41 38 34 34 29 24 27 26 28 37 56 65 62 75 93 92 82 71 63 63 62 61 61 59 60 62 56 52 57 56 60 57 51 48 51 52
19 18 18 18 19 20 20 21 31 28 31 35 36 32 30 30 28 20 19 24 35 55 72 83 82 85 93 83 70 61 54 51 49 47 46 45 57 57 44 42 42 61 73 65 65 64 65 64 58
18 18 20 20 20 22 24 23 27 25 24 24 22 20 20 20 21 31 42 60 70 80 78 71 68 65 63 58 56 53 48 47 48 61 63 64 48 44 50 62 68 90 83 68 64 61 60 54 47
18 18 21 24 25 25 21 22 24 20 20 19 20 21 22 34 50 66 71 71 68 66 65 62 59 55 49 43 43 46 52 60 57 50 45 46 60 69 74 77 71 78 82 75 68 66 54 47 36
19 18 18 17 22 22 22 20 22 22 19 21 27 34 54 67 65 59 58 60 69 64 53 46 46 49 49 51 51 50 45 44 51 58 61 66 68 68 69 66 72 68 63 52 47 44 40 34 30
19 17 16 18 20 20 21 21 21 17 23 37 54 63 70 65 56 47 46 64 59 47 42 45 50 50 44 47 46 56 67 73 77 75 82 87 80 69 68 68 55 47 44 30 20 16 18 18 18
19 14 14 16 17 17 18 19 17 28 47 66 68 65 60 50 43 52 68 56 54 50 43 43 44 51 52 60 77 75 84 82 82 86 92 84 79 66 64 53 36 22 18 15 14 13 13 13 14
18 15 15 15 16 18 19 24 34 54 65 80 73 58 50 54 54 54 58 56 59 47 44 51 64 78 88 93 96 100 100 96 88 82 74 72 60 48 32 25 20 15 12 11 10 9 8 9 9
20 22 22 24 31 40 51 53 63 62 66 62 56 51 51 51 49 48 46 46 44 54 61 68 73 88 100 100 100 99 95 93 81 68 61 50 40 27 20 14 12 10 9 8 7 6 6 7 7

GFSSGP_250_rhum_006.txt.gz
RH
99 97 97 100 96 85 82 80 70 59 49 39 44 50 49 36 33 34 28 32 46 45 46 62 74 79 100 86 86 86 100 100 99 86 29 20 9 8 10 10 16 16 17 19 16 18 16 16 19
79 89 100 100 99 86 83 76 66 52 45 37 34 28 41 41 30 28 40 38 46 61 91 100 100 100 100 100 100 100 100 84 47 20 7 6 9 13 17 20 24 22 24 29 29 28 35 41 38
76 80 88 94 84 83 80 74 69 56 50 45 35 30 35 45 39 66 60 55 50 79 92 100 100 100 100 100 99 63 28 12 8 8 10 16 18 20 22 24 24 25 26 28 32 32 31 28 24
54 77 81 88 85 78 66 60 62 52 56 56 38 42 45 53 56 48 58 62 73 80 99 100 100 90 72 44 28 11 9 9 14 16 16 17 18 19 20 20 23 25 26 30 33 35 38 42 38
55 64 64 82 87 59 89 91 77 59 49 40 45 55 50 49 55 62 89 100 100 100 100 100 80 59 35 23 8 10 14 14 17 18 18 19 21 23 21 21 22 23 25 30 37 45 44 40 40
79 66 51 52 76 73 97 87 63 70 55 60 61 72 67 52 95 100 100 100 100 99 93 69 39 15 10 11 14 17 18 18 21 22 26 26 28 29 30 34 37 39 36 34 36 48 49 47 37
81 85 65 52 44 96 98 86 64 69 70 62 60 66 74 100 100 99 100 97 97 80 40 17 7 11 15 19 19 21 23 24 23 25 28 29 33 32 30 33 38 42 44 44 43 38 45 50 49
100 71 98 94 78 100 72 80 76 80 68 97 100 100 100 100 98 98 92 77 61 34 13 9 12 17 20 21 20 19 21 29 30 30 31 32 37 37 38 38 33 32 33 36 46 41 43 43 41
100 99 98 100 100 100 96 94 100 82 97 98 100 97 100 100 96 74 54 43 21 12 13 15 17 18 20 21 22 24 26 29 33 32 33 36 35 35 34 40 41 36 31 30 29 36 45 47 44
100 100 100 98 100 99 99 100 95 99 100 100 100 96 87 71 46 27 23 13 16 18 18 19 19 19 23 26 30 33 33 34 37 39 41 41 44 49 47 45 43 46 44 38 32 26 31 42 42
100 100 100 100 96 87 53 99 98 100 100 100 83 71 41 25 19 13 12 15 19 19 20 24 31 43 41 42 52 55 54 48 41 40 40 40 41 42 42 45 43 40 39 43 44 40 32 29 37
96 98 95 97 86 90 97 99 98 90 91 82 67 28 25 14 13 13 15 21 27 24 28 31 45 47 44 42 41 40 43 42 38 33 31 31 33 36 38 39 43 46 46 37 32 34 36 32 34
99 100 92 60 84 86 100 99 87 82 52 52 23 16 11 13 16 16 18 21 29 30 27 34 38 38 34 34 38 35 32 32 29 26 26 28 31 36 41 43 41 49 53 49 39 35 34 37 34
66 71 86 86 82 91 81 68 53 35 16 12 11 15 15 16 18 19 22 26 25 27 32 28 37 41 34 33 30 29 29 28 29 31 40 54 54 53 56 50 37 36 38 41 44 46 45 42 38
41 49 56 71 57 56 45 40 22 11 12 13 15 19 18 20 22 27 29 29 24 30 37 36 38 33 28 28 25 26 29 30 29 35 56 57 70 57 46 44 41 41 41 41 39 37 36 37 38
27 28 26 31 29 28 21 11 12 15 16 20 21 22 21 21 30 36 31 29 23 23 23 22 22 25 26 23 23 24 24 30 36 51 68 80 71 69 74 82 78 71 71 68 68 68 62 54 47
15 15 14 12 11 11 11 14 16 23 24 23 26 29 33 32 29 30 26 20 19 16 16 16 18 20 19 20 22 25 30 38 70 77 77 66 63 71 78 76 72 67 65 66 64 65 68 69 67
12 12 11 11 12 12 17 19 23 24 28 32 34 31 24 18 16 16 16 16 16 16 18 23 26 24 26 31 36 41 52 61 71 72 76 82 76 68 59 57 53 57 58 60 62 60 59 60 84
13 12 12 14 16 22 26 27 34 32 34 30 31 29 21 20 23 27 24 27 26 23 24 25 26 26 27 34 44 54 58 59 62 61 61 67 65 59 55 60 78 68 62 60 67 70 69 67 67
14 15 17 19 24 29 37 37 34 31 30 24 22 23 24 29 32 32 31 31 30 31 26 24 25 35 46 52 60 69 75 75 70 69 69 64 60 57 54 54 56 71 77 76 80 75 74 70 67
16 18 19 19 23 24 23 20 20 20 21 20 22 27 32 34 36 30 27 28 26 23 24 41 53 55 55 63 70 70 68 68 64 59 50 47 52 58 57 59 54 54 62 64 73 78 77 75 76
16 16 16 16 17 16 16 19 21 20 20 23 27 33 32 26 21 19 19 19 28 43 51 56 59 68 76 76 72 63 56 60 60 54 53 54 51 47 48 51 56 69 73 74 76 76 80 80 81
18 17 19 19 19 17 17 18 21 22 21 24 32 26 24 23 20 24 34 52 61 63 67 75 90 95 76 56 52 49 49 47 46 46 49 51 45 41 45 53 61 60 68 72 75 82 87 80 70
21 20 18 18 19 20 20 22 28 21 21 24 23 25 26 21 29 48 65 78 74 76 86 100 95 78 60 53 53 46 43 46 43 45 47 46 51 56 75 78 78 77 77 80 82 76 70 68 58
24 20 17 17 18 20 20 23 20 22 23 24 27 24 21 35 60 70 77 80 77 80 77 65 63 59 57 52 48 46 46 50 52 54 53 63 81 96 86 88 92 86 77 78 73 64 60 56 52
34 36 19 18 17 17 19 21 23 20 19 18 19 22 35 60 68 69 61 56 51 48 55 58 49 47 50 51 57 66 62 64 79 87 82 92 95 100 99 91 71 70 63 57 46 36 30 23 24
30 35 26 19 18 17 18 18 16 16 18 20 25 42 58 69 79 74 58 44 43 46 46 57 63 62 62 74 81 85 90 92 81 81 100 100 100 98 86 71 63 56 44 28 21 16 15 15 14
27 29 27 21 15 15 16 16 17 20 27 40 54 59 60 60 51 40 40 49 49 50 48 48 52 66 84 84 83 91 94 95 100 100 100 96 89 81 65 64 57 35 18 14 13 12 12 10 10
20 20 20 19 18 19 22 28 35 47 51 54 59 59 48 40 44 50 55 48 54 63 63 66 78 82 88 98 100 100 100 100 100 96 94 91 84 68 61 42 19 14 13 11 10 8 7 6 6
30 31 32 33 40 38 40 49 65 49 61 60 52 44 41 45 52 52 49 53 57 59 73 91 92 100 100 100 100 100 100 99 100 96 87 75 57 42 30 12 13 13 10 8 6 6 6 6 7

GFSSGP_250_rhum_009.txt.gz
RH
100 98 100 91 98 96 99 100 98 100 97 91 96 94 89 84 68 67 51 38 35 29 21 24 26 32 44 61 79 100 100 100 100 68 62 46 36 23 13 9 10 10 13 16 16 18 21 22 22
98 100 98 95 100 99 88 100 98 100 100 98 100 97 87 70 64 55 41 24 23 22 27 37 43 58 62 95 96 100 100 84 58 20 14 13 11 11 12 15 16 16 16 17 18 19 22 24 22
92 99 100 98 85 93 86 90 84 94 100 100 94 79 70 53 46 34 27 28 33 36 44 52 67 94 100 100 100 98 73 44 12 10 10 12 11 12 15 16 17 19 21 22 23 24 25 28 31
95 100 100 100 94 88 84 84 84 80 84 85 88 70 50 28 25 24 33 31 52 72 66 74 100 100 100 94 86 72 37 16 10 11 13 15 15 16 17 18 19 20 21 21 21 22 29 39 36
94 90 99 91 76 70 76 78 74 64 60 59 56 48 37 23 22 32 53 71 79 73 96 100 100 100 79 64 65 37 18 11 12 16 16 17 18 18 18 18 18 20 20 20 19 23 25 32 43
100 100 99 92 70 75 61 63 52 50 52 52 54 39 31 29 30 55 78 91 100 100 100 100 99 74 66 51 23 15 14 15 15 16 18 20 19 18 19 20 22 27 28 25 24 22 22 24 26
100 100 100 96 58 70 70 55 52 48 57 48 45 35 35 39 68 93 100 100 100 100 100 90 65 43 27 15 14 16 17 18 18 18 20 21 22 22 23 27 29 33 36 34 30 28 26 24 28
100 100 100 100 100 100 100 100 81 64 58 48 40 57 80 98 100 100 100 100 100 94 80 58 40 14 12 15 16 18 21 22 19 19 21 24 27 29 32 34 34 32 32 34 34 32 33 31 31
100 100 94 100 100 100 100 100 84 77 75 95 95 99 100 100 100 100 98 100 94 75 55 34 14 14 17 19 20 23 31 36 31 28 30 32 32 33 35 34 32 32 30 35 38 39 39 35 33
100 100 100 100 100 100 99 100 94 92 94 96 82 96 100 100 100 99 100 91 68 50 18 14 15 18 21 27 30 34 39 38 37 36 33 29 26 25 26 28 31 31 32 31 34 37 38 41 41
100 100 100 100 100 100 100 95 100 87 100 100 100 100 100 100 100 95 79 72 29 17 20 20 20 26 35 41 38 35 34 31 28 25 24 25 24 25 28 31 36 39 40 32 37 40 41 38 39
100 100 100 100 100 100 100 100 100 100 100 100 100 100 100 100 95 70 30 19 18 17 25 28 30 27 31 33 32 31 27 24 22 22 20 19 19 20 22 28 32 34 39 38 36 41 40 38 42
100 100 100 100 99 100 100 99 100 99 99 100 100 100 79 68 47 26 15 18 17 22 23 27 26 27 28 24 26 26 25 24 21 18 18 19 21 22 34 39 41 46 46 46 44 41 42 42 44
95 98 100 100 98 97 96 100 83 86 89 100 92 76 50 27 16 16 15 19 20 26 26 25 25 25 24 22 21 20 21 21 20 20 22 28 32 44 50 57 59 66 69 67 64 60 56 54 53
29 33 34 49 54 54 62 63 69 83 79 61 40 16 14 16 15 16 15 17 16 19 21 25 24 19 17 16 17 20 21 21 24 27 34 38 49 76 92 88 91 95 90 84 79 78 74 68 62
40 43 35 30 34 45 47 42 37 31 24 21 16 14 19 18 17 18 18 19 20 18 18 16 16 16 17 19 21 27 28 32 38 41 44 59 69 77 86 91 91 96 96 92 85 79 75 74 66
46 43 40 34 28 25 23 20 14 12 15 14 16 21 20 19 22 26 25 19 17 16 16 19 20 19 20 22 26 28 27 33 39 49 63 68 76 83 94 96 86 74 63 57 53 52 54 60 68
31 21 14 13 13 12 11 11 13 15 18 22 22 21 24 24 22 20 18 17 20 22 22 23 24 25 25 23 23 31 54 58 61 68 88 96 100 96 81 63 50 44 43 47 54 59 61 67 70
13 12 12 12 12 13 15 16 22 23 25 26 25 28 26 20 20 20 19 19 25 26 26 27 25 24 23 30 49 54 54 56 71 91 89 71 58 47 42 43 44 47 52 58 58 58 64 66 71
14 13 13 14 19 24 31 32 33 34 33 29 29 29 21 19 20 22 25 26 22 20 19 20 31 49 47 45 44 49 55 61 66 63 52 46 44 42 42 42 45 48 51 49 44 43 46 52 56
15 15 15 17 24 27 29 31 28 27 23 20 21 20 18 18 22 24 21 24 22 24 38 55 52 56 55 49 53 54 59 65 57 52 49 47 41 40 46 48 50 51 48 48 49 51 60 62 75
16 16 16 18 22 26 27 24 27 21 18 18 18 18 19 20 22 21 26 23 27 49 61 61 65 63 58 50 47 53 58 46 47 46 47 47 54 67 72 75 73 65 67 78 81 92 96 95 95
18 17 18 18 19 19 21 20 15 19 17 16 17 18 21 23 24 28 27 23 55 74 73 71 66 55 48 48 51 48 49 46 43 46 61 73 80 89 89 76 65 77 96 94 89 95 93 85 79
19 20 20 19 17 15 17 18 13 20 15 18 19 22 24 27 28 24 23 35 70 76 77 74 62 47 46 46 45 45 47 57 66 75 83 80 79 83 88 100 100 100 99 92 92 82 78 65 70
44 38 25 20 18 15 18 17 14 18 17 17 21 21 21 20 21 25 35 57 73 73 67 55 47 50 48 47 55 62 69 78 92 90 94 100 100 100 100 100 100 89 91 95 87 67 61 49 52
33 33 41 47 23 17 18 17 15 16 17 19 20 21 20 23 29 40 57 68 66 57 44 47 51 47 48 56 65 72 84 95 98 100 100 100 100 100 100 84 89 94 90 73 66 52 45 37 30
24 28 31 30 37 29 21 19 15 17 17 18 18 21 30 45 56 61 60 52 46 42 46 44 48 57 62 69 90 88 75 85 100 100 96 100 100 98 74 72 84 80 61 52 39 34 26 19 14
22 22 23 24 27 27 23 21 15 17 20 27 36 52 62 60 53 46 48 45 43 44 46 52 65 76 90 100 91 79 95 100 100 100 100 100 85 76 72 69 56 45 34 31 20 14 12 10 10
37 34 32 31 30 26 27 45 38 32 39 52 53 58 56 50 39 36 40 41 42 47 58 72 88 99 100 82 72 87 100 100 100 86 81 78 74 63 55 51 33 24 16 13 11 10 9 8 7
44 46 47 48 49 48 43 45 46 44 48 57 57 55 46 44 40 47 48 48 51 61 76 94 100 89 88 95 100 100 100 100 89 82 70 61 54 42 28 19 16 12 12 10 8 7 6 6 6

GFSSGP_250_rhum_015.txt.gz
RH
99 100 100 100 100 100 100 100 94 100 100 93 94 100 89 75 87 97 85 85 84 83 72 57 51 59 63 38 27 20 27 33 50 59 66 90 100 97 67 34 13 10 9 11 14 15 16 15 15
100 100 100 100 100 100 100 100 100 100 97 96 98 100 100 100 95 85 97 89 78 77 69 62 64 71 64 48 33 27 27 46 59 78 87 99 87 64 36 14 11 13 14 14 14 15 16 17 18
100 100 100 100 100 98 100 100 100 100 100 100 99 100 100 100 98 94 94 100 80 83 79 79 74 56 44 28 25 35 50 74 92 99 94 85 66 31 14 11 13 13 12 12 13 14 16 17 17
100 100 100 100 100 100 100 100 100 100 100 100 96 99 100 100 97 98 100 94 92 97 90 74 58 52 45 27 39 63 97 100 100 93 86 65 28 15 12 13 13 13 13 13 13 13 15 17 20
100 100 100 100 100 100 96 100 100 100 90 100 100 100 100 100 100 97 87 70 71 71 65 50 41 42 37 39 79 99 100 100 99 86 62 28 14 12 13 14 14 15 15 15 15 15 14 15 18
100 100 100 100 100 95 86 91 94 100 100 100 100 100 100 94 82 86 87 78 63 63 57 42 58 73 86 100 100 100 100 94 84 57 26 12 14 15 17 17 17 17 17 15 14 16 16 18 20
100 100 100 100 100 100 100 100 100 100 100 100 100 100 98 88 82 75 70 68 63 57 71 96 100 100 100 100 100 100 95 83 61 31 17 18 18 19 22 20 19 18 17 16 14 17 18 17 24
100 100 100 100 98 100 100 100 100 100 100 100 100 100 91 70 68 53 65 83 91 92 100 100 100 100 100 100 100 98 82 54 31 22 24 23 22 21 22 21 20 18 16 16 15 14 17 19 26
100 100 100 100 100 100 100 100 96 100 98 100 96 100 79 82 81 88 99 100 100 100 100 100 100 100 97 100 93 83 58 34 12 18 24 23 23 22 22 20 20 19 18 18 16 16 19 19 27
100 100 100 100 100 100 100 100 100 100 100 100 100 100 100 85 94 100 100 100 100 100 100 100 100 99 88 85 78 56 30 25 27 24 25 23 21 20 18 18 20 19 19 20 20 18 20 23 28
100 100 98 100 100 100 100 100 100 100 100 100 99 100 100 100 100 100 100 100 100 100 100 100 99 97 86 62 33 23 23 24 23 22 21 19 17 15 14 16 16 18 18 18 19 21 26 30 33
100 100 100 100 100 100 100 100 99 100 100 100 100 100 98 100 100 100 100 100 100 100 100 100 91 73 28 18 19 20 21 21 21 20 20 18 16 15 14 16 18 21 24 24 28 33 38 41 44
100 100 100 100 100 100 100 100 96 86 98 100 100 100 100 100 100 100 100 100 100 100 99 84 55 62 100 100 84 29 19 18 18 15 15 16 16 16 17 19 19 19 23 24 27 30 34 34 44
100 100 100 100 100 100 100 100 100 100 100 100 100 100 100 100 100 100 100 100 100 88 62 59 56 99 100 100 79 89 89 34 17 17 18 19 19 19 19 23 31 33 38 39 40 44 50 54 52
94 100 100 100 98 91 99 100 100 100 100 100 100 100 100 100 100 90 82 92 83 61 37 17 100 99 100 100 100 100 72 18 24 19 19 20 22 28 32 37 42 43 38 34 34 35 43 48 46
51 69 100 100 100 100 100 100 95 97 99 91 66 33 48 60 62 58 59 36 21 19 15 16 61 100 100 100 97 79 43 34 21 18 34 49 53 48 46 42 38 35 40 46 40 36 38 43 44
44 40 49 88 92 65 29 23 21 22 26 29 42 52 52 42 36 30 29 20 18 16 15 23 33 40 63 86 46 34 22 20 25 36 35 34 41 47 44 38 38 41 41 49 47 42 40 40 41
25 25 25 24 23 22 22 24 35 40 43 51 50 46 33 25 20 19 22 19 17 15 16 18 36 56 32 24 21 21 21 30 40 38 38 47 47 43 42 40 42 41 42 46 46 46 50 50 47
20 28 46 44 43 46 53 55 41 47 29 28 26 19 17 17 20 20 20 18 15 15 17 19 21 19 19 22 25 20 21 28 34 44 45 42 42 38 38 40 38 40 42 46 49 50 49 54 56
65 73 52 48 37 35 30 28 23 24 22 20 19 18 18 15 18 19 17 16 19 18 20 18 18 20 21 22 18 19 26 36 46 49 45 43 42 39 38 39 40 45 46 45 42 34 35 43 46
62 47 38 20 19 18 16 14 20 21 16 21 22 23 15 19 19 18 17 18 17 18 20 20 21 21 18 19 26 40 50 53 49 43 43 42 40 38 39 34 32 30 31 34 38 44 50 50 52
15 15 15 15 15 15 16 14 18 20 17 14 24 24 23 22 20 19 18 18 18 19 19 20 19 20 20 39 51 45 39 39 39 39 41 41 38 38 42 47 46 51 54 60 62 57 57 58 62
16 16 17 16 15 15 17 15 15 17 18 29 22 16 16 17 18 19 19 19 20 21 20 18 18 20 47 59 51 40 43 47 47 46 45 48 57 64 63 53 59 60 62 59 56 58 60 63 62
21 21 20 20 19 19 19 20 18 18 18 20 21 23 22 19 18 16 16 18 18 18 18 21 37 53 57 60 51 49 51 57 67 66 63 65 67 64 59 66 71 72 57 55 49 49 46 45 48
20 20 24 29 38 38 37 32 25 28 26 20 18 19 19 18 18 16 15 17 24 40 58 70 78 65 50 42 41 42 44 51 52 50 48 45 50 71 86 81 71 57 52 50 48 44 36 29 24
26 26 25 25 27 27 24 27 29 31 27 24 22 17 17 20 21 19 30 36 37 40 43 42 42 42 47 53 54 54 52 56 54 66 76 86 91 83 72 58 53 51 51 42 34 26 19 14 14
62 63 57 60 60 59 44 48 60 59 51 41 31 26 24 34 28 39 40 44 48 49 45 44 47 49 56 61 64 67 57 58 76 92 87 76 76 70 57 55 52 46 30 21 17 15 12 11 10
50 53 55 56 51 52 49 46 50 51 52 55 51 60 66 53 50 46 50 49 51 51 48 46 48 50 48 54 58 68 80 84 90 83 75 69 62 56 56 49 38 22 14 12 10 10 10 9 8
38 43 46 43 41 41 48 36 31 30 30 33 38 44 54 53 55 49 38 37 43 48 54 55 53 53 54 58 68 78 84 81 80 82 69 63 55 54 53 36 18 11 9 9 9 8 6 4 4
38 33 35 39 42 48 53 56 39 37 30 28 29 33 42 49 47 41 49 66 68 62 52 43 47 61 78 83 78 81 96 94 75 65 58 54 45 31 24 15 9 9 8 8 6 4 4 4 4

GFSSGP_250_rhum_018.txt.gz
RH
100 100 100 100 100 100 100 100 100 94 100 97 91 99 93 85 82 70 82 76 74 75 67 68 79 89 85 77 61 54 58 55 52 36 25 39 52 71 100 91 71 64 33 14 12 12 12 14 15
100 100 100 100 100 100 100 100 100 100 100 100 100 100 100 100 97 84 79 76 90 95 100 100 91 88 78 78 75 57 46 40 48 36 39 80 86 94 81 84 60 32 15 13 13 13 13 14 14
100 100 100 100 100 100 100 100 100 100 100 100 100 100 98 95 95 93 85 93 100 100 100 100 90 84 80 68 66 58 43 38 45 54 75 88 88 83 82 60 33 16 14 14 14 13 12 12 14
100 100 100 100 100 100 100 98 91 100 100 100 100 100 100 100 100 100 100 100 100 100 93 93 82 82 78 62 59 53 51 59 91 97 91 82 93 77 62 38 17 15 15 14 14 14 13 11 11
100 100 100 100 100 100 100 100 100 100 100 100 100 100 100 100 100 99 98 90 86 88 95 100 98 84 69 51 58 63 92 98 97 92 100 91 81 69 40 18 13 15 14 14 16 15 14 13 11
100 100 100 100 100 100 100 100 100 100 100 100 100 90 90 99 100 100 100 100 100 100 100 95 80 72 61 84 96 95 100 99 100 100 100 87 76 44 20 14 17 19 19 18 18 17 15 14 14
100 100 100 100 98 100 100 100 100 100 100 100 93 90 100 100 100 100 100 100 100 100 100 78 77 79 100 96 97 100 100 100 98 92 88 69 52 22 22 23 21 19 19 17 17 17 16 15 15
94 100 100 100 100 100 100 100 100 100 100 100 100 98 100 100 100 100 100 100 100 91 79 73 72 99 100 100 100 100 99 100 100 97 77 56 23 19 25 22 21 20 20 16 16 16 15 16 18
87 100 100 100 100 100 100 100 100 100 100 100 93 90 98 100 100 100 99 99 99 84 90 96 89 100 100 100 94 100 100 100 86 70 50 23 18 21 21 19 19 17 15 15 16 18 17 18 19
89 100 100 100 100 100 100 100 100 100 100 100 100 100 99 100 99 100 95 87 100 100 100 100 100 100 100 100 100 100 97 86 77 60 39 22 23 20 19 18 17 16 15 14 17 19 21 20 20
100 100 100 100 100 100 100 89 97 94 95 100 92 92 88 94 98 100 100 100 100 100 100 100 100 100 100 100 100 94 98 89 82 72 41 20 22 19 17 15 16 16 18 20 19 20 23 27 27
100 100 100 100 100 100 100 100 100 100 91 83 100 100 100 100 100 100 100 100 100 100 100 100 100 100 100 96 88 96 100 100 96 90 60 92 53 22 20 18 20 21 20 20 22 35 38 40 43
99 100 100 100 100 100 100 100 100 100 100 100 100 100 100 100 100 100 100 100 100 100 100 100 100 100 100 97 96 100 100 100 100 100 100 87 44 27 21 18 21 25 27 31 38 40 42 39 41
88 100 100 100 100 100 100 100 100 100 100 100 100 100 100 100 100 100 100 100 100 100 100 100 100 98 91 98 100 100 97 100 100 100 94 70 34 25 19 27 37 37 40 41 39 36 33 32 34
94 100 100 100 100 100 100 100 100 100 100 100 100 100 100 100 100 100 100 98 80 100 100 99 84 49 39 45 97 100 100 85 90 100 57 35 19 20 28 36 38 41 36 36 40 38 34 38 43
66 68 100 100 100 100 100 100 100 100 100 99 100 96 85 78 93 58 51 45 75 84 69 32 45 35 40 35 98 100 99 87 68 35 24 20 23 35 46 45 42 40 39 38 36 35 39 41 42
67 63 78 96 82 60 88 99 97 98 78 87 91 95 69 25 33 42 49 45 47 41 35 62 94 83 60 37 38 63 30 22 22 21 21 19 20 26 40 48 54 52 46 44 42 39 38 42 43
72 66 62 61 56 48 44 45 47 56 64 79 70 30 37 52 49 45 42 43 40 30 53 52 83 82 42 31 21 21 22 21 22 22 20 19 29 41 48 50 50 47 45 43 42 41 40 41 38
48 49 51 46 40 32 26 23 26 26 31 37 48 46 40 34 31 28 33 30 30 34 60 24 16 15 15 16 18 20 21 23 22 18 26 49 48 42 38 36 34 32 31 33 37 37 36 35 37
23 24 25 18 25 39 46 52 47 44 41 32 26 24 25 24 25 30 30 26 22 19 16 16 16 17 18 18 21 24 22 19 18 25 47 51 42 38 35 33 30 29 31 32 32 30 30 33 35
20 30 50 57 59 49 43 38 25 23 20 23 27 24 21 18 23 24 26 21 17 16 18 19 19 18 18 19 19 18 18 23 38 52 53 46 44 42 38 32 28 29 30 30 33 35 39 46 50
54 42 28 32 26 18 15 14 15 16 16 16 16 21 23 20 19 19 18 16 16 17 16 17 16 16 17 17 17 27 43 55 55 49 43 42 38 32 30 36 37 35 36 39 42 50 57 60 60
18 18 17 17 17 17 17 16 16 17 22 20 21 19 20 21 20 20 16 16 16 16 17 16 16 17 20 30 45 52 49 48 48 44 40 41 48 52 58 54 56 51 51 51 56 60 63 60 58
19 19 19 19 20 19 20 20 21 24 24 27 32 31 28 24 24 22 23 21 21 25 20 24 34 45 51 55 53 53 63 56 49 47 53 58 61 58 51 51 57 66 70 69 69 63 54 47 41
26 22 21 21 23 21 25 26 26 28 28 32 32 32 34 37 39 38 28 22 38 42 53 56 55 56 57 59 54 45 40 40 42 50 56 51 56 70 76 78 71 63 63 60 51 46 36 27 21
45 46 50 55 53 55 53 55 48 38 41 35 44 46 57 58 54 30 31 45 48 57 58 50 46 48 53 54 51 50 51 59 57 56 69 76 70 62 56 55 61 59 50 46 38 29 18 13 10
58 57 57 55 51 47 45 47 45 46 36 34 34 38 42 44 40 32 31 28 33 39 43 49 55 51 52 52 51 49 48 56 63 59 52 53 61 65 62 53 48 45 43 36 23 12 10 8 7
47 44 49 50 46 42 39 38 38 38 34 35 32 34 31 29 30 33 33 40 51 50 47 43 46 44 43 45 51 56 53 55 53 55 60 65 60 58 54 51 44 34 18 12 8 8 7 6 5
41 37 41 48 47 38 32 34 34 35 39 39 36 37 38 37 34 35 37 39 37 38 39 38 41 49 52 48 42 51 65 65 64 66 62 58 57 50 40 35 25 15 8 8 7 6 5 4 4
45 54 49 35 44 60 58 55 53 51 44 43 43 43 40 40 47 51 53 51 48 51 55 61 57 49 50 64 76 67 61 62 61 60 62 51 44 38 32 29 14 8 7 8 6 4 4 3 3

GFSSGP_250_rhum_021.txt.gz
RH
49 76 100 100 100 100 100 100 100 100 100 97 100 100 100 96 95 92 68 77 57 77 75 85 81 84 67 70 67 81 86 74 62 55 53 42 39 34 40 50 70 72 63 71 44 27 13 12 12
20 65 100 100 100 100 100 100 100 100 100 100 100 100 100 100 95 98 92 96 100 91 81 97 98 80 78 87 83 78 81 69 54 60 48 43 45 60 56 71 79 64 69 47 32 18 12 13 13
20 27 80 100 100 100 100 100 100 100 100 100 100 100 100 94 92 91 86 85 98 98 100 100 99 99 98 98 84 78 65 61 54 56 54 51 62 63 74 69 86 80 61 40 23 14 13 13 12
24 23 52 100 100 100 100 100 100 100 100 100 100 100 95 82 96 100 100 100 100 91 87 95 99 95 81 79 78 78 69 74 65 57 55 63 77 91 87 88 82 67 51 31 14 13 13 15 15
29 25 26 42 100 100 100 100 100 100 100 100 99 100 97 82 84 96 100 89 87 73 76 75 90 100 100 99 98 95 89 68 52 53 73 84 90 84 96 88 75 58 32 19 17 16 16 17 14
33 32 26 25 100 100 100 100 100 100 100 100 100 100 100 100 100 100 100 84 88 94 100 100 88 91 98 100 100 99 89 76 91 90 96 93 96 98 82 82 68 47 28 22 22 21 20 19 14
36 45 32 30 98 100 100 100 100 100 100 100 100 100 100 100 100 100 98 86 71 78 88 95 100 100 100 100 100 100 96 100 96 99 80 93 94 94 87 74 42 27 20 20 21 20 17 15 14
40 49 44 56 38 100 100 100 100 100 100 100 100 100 100 100 100 99 100 100 98 100 100 100 100 100 100 95 100 100 100 100 95 83 100 100 97 85 78 60 51 25 19 18 19 20 19 16 16
70 66 96 100 60 100 100 100 100 100 100 100 100 100 100 100 100 94 90 87 100 100 100 100 100 100 100 100 100 96 100 89 94 100 97 100 92 84 76 60 27 30 26 18 16 15 16 16 17
88 92 100 100 100 100 100 100 100 100 100 100 100 100 100 100 98 100 100 99 100 100 98 100 99 100 100 100 100 94 99 100 100 100 100 100 100 100 92 61 55 56 39 16 16 17 18 19 19
87 100 100 100 100 100 100 100 100 100 100 100 100 100 100 100 100 99 100 100 99 100 100 100 100 100 100 100 100 98 93 100 100 100 100 100 100 100 96 92 79 62 33 22 18 20 22 24 24
75 92 100 100 100 100 100 100 100 100 100 100 100 100 100 98 91 91 89 100 100 99 100 100 100 100 100 100 100 100 100 100 100 100 100 100 96 99 80 71 77 54 30 22 29 36 37 35 32
87 91 99 97 100 100 100 98 100 100 100 100 100 94 97 99 100 95 84 96 100 96 100 100 100 98 98 100 100 100 100 100 100 100 100 92 81 89 84 83 79 45 22 22 31 40 41 38 34
99 100 100 100 100 100 100 100 100 100 100 99 93 96 100 96 100 100 100 100 98 100 100 94 83 81 86 100 100 100 100 84 64 90 100 100 100 96 97 93 30 22 21 26 36 42 48 48 43
99 98 100 100 100 100 100 100 100 100 100 100 100 100 100 100 100 100 85 97 100 100 95 70 49 84 100 94 75 55 35 29 39 80 100 100 100 80 59 35 22 20 18 22 28 38 40 46 47
87 91 100 100 100 100 100 100 100 100 100 100 100 100 100 100 100 85 80 85 82 81 61 50 76 96 100 100 92 75 66 63 54 46 51 49 70 32 24 19 19 20 29 40 42 45 43 39 40
86 86 82 80 95 95 95 100 100 100 100 100 100 97 97 100 100 96 88 72 59 56 57 86 100 100 100 100 100 100 92 91 43 36 25 19 18 18 20 21 21 22 47 45 41 39 36 34 36
69 89 84 80 74 74 81 79 100 100 98 94 83 58 55 50 46 44 49 59 68 55 56 100 100 100 100 100 100 90 53 27 18 18 17 16 17 18 19 20 21 42 57 57 49 44 42 41 43
23 46 63 68 70 69 61 58 58 63 71 58 35 31 38 48 51 47 44 44 56 47 75 100 100 100 100 87 69 31 19 17 18 17 17 17 18 19 28 47 48 49 46 39 36 38 40 42 40
53 66 70 64 53 44 41 42 36 28 37 48 49 46 44 37 31 28 33 33 40 73 53 74 74 74 59 24 20 20 20 19 17 17 17 19 34 50 47 36 30 31 32 34 36 36 34 33 32
27 27 24 26 28 28 24 44 60 50 43 34 29 24 18 18 22 23 26 31 30 31 32 31 28 24 20 19 18 17 18 18 19 23 39 46 41 34 31 32 36 36 32 29 28 28 29 33 38
27 29 29 35 49 52 56 39 26 22 19 17 16 16 19 19 20 24 24 22 21 22 22 18 18 17 16 15 15 16 17 24 34 37 33 33 38 41 38 33 28 28 33 39 44 46 48 49 47
41 44 41 37 28 20 16 16 17 18 18 17 18 19 18 18 19 20 20 22 20 17 15 17 17 17 16 17 21 28 35 37 35 40 45 44 43 42 38 42 49 50 56 50 42 43 44 46 51
24 23 21 18 17 18 19 20 27 27 30 32 31 30 30 31 31 29 26 26 25 28 36 27 24 27 36 41 46 50 50 55 60 66 59 47 47 52 56 61 62 56 49 49 45 43 43 42 37
20 20 20 18 20 23 24 25 30 37 47 52 57 57 56 60 58 59 46 44 40 41 43 48 49 48 48 51 54 52 55 56 51 45 54 59 60 66 64 63 58 49 46 41 40 36 34 32 23
20 25 35 45 51 46 45 46 46 44 45 45 42 39 39 37 36 38 41 39 41 50 58 55 58 65 65 64 62 60 62 67 66 65 69 71 57 58 55 46 46 42 42 36 36 35 27 24 17
58 49 44 41 40 42 43 40 35 34 36 39 40 39 40 45 48 52 56 58 56 56 61 65 60 59 60 61 66 74 73 68 59 53 50 52 56 49 49 48 45 39 39 38 29 23 18 12 8
43 40 40 40 47 53 49 48 43 41 41 41 43 42 40 40 41 40 40 40 42 45 48 51 52 54 56 58 60 55 48 46 47 51 59 57 57 52 44 40 43 39 34 26 19 12 8 6 6
44 44 47 50 50 51 46 40 42 44 44 44 41 36 32 31 33 37 39 40 40 39 39 40 41 43 46 47 51 49 48 54 64 62 51 47 45 42 45 46 39 29 22 14 9 6 6 6 4
53 54 55 54 55 45 43 46 46 42 39 38 38 37 36 38 41 44 44 44 44 39 33 35 40 47 51 49 48 54 64 64 53 53 53 52 52 51 43 34 21 17 10 7 6 6 5 4 3

GFSSGP_250_rhum_024.txt.gz
RH
18 18 18 19 20 21 87 100 100 100 100 100 94 87 100 100 100 100 100 99 92 90 99 99 89 71 65 63 60 60 66 66 62 54 81 66 60 48 52 48 37 38 36 53 36 48 66 55 46
14 19 22 20 20 22 40 100 100 100 100 100 100 100 100 100 100 100 100 100 91 86 92 74 64 60 62 58 63 65 79 66 60 76 66 55 65 68 64 52 52 51 64 44 43 66 56 51 34
15 17 23 23 21 22 28 78 100 100 100 100 100 100 100 100 100 100 98 91 88 89 77 67 61 68 83 82 76 82 68 62 75 73 62 74 83 73 60 67 70 63 46 68 60 65 56 45 31
14 16 24 29 24 22 24 37 100 100 100 100 100 100 100 100 100 100 100 100 91 90 85 89 86 88 100 95 76 65 57 69 87 91 89 88 85 79 74 81 62 57 63 82 75 67 55 45 20
18 17 21 32 30 23 23 34 100 100 97 100 100 100 100 100 100 100 100 100 99 97 97 100 100 90 55 57 59 69 95 96 95 97 94 94 82 96 87 69 78 84 93 78 70 62 53 29 17
15 17 20 31 35 30 27 30 47 100 100 100 100 100 100 100 100 93 94 94 92 97 98 86 68 59 65 82 97 91 94 94 100 99 96 99 89 84 91 81 98 89 88 84 69 57 32 27 21
16 15 19 21 34 35 31 29 48 100 100 100 100 100 100 100 100 100 100 94 79 86 92 90 90 100 100 100 100 90 78 87 82 80 100 75 79 89 98 100 98 92 84 80 71 46 42 42 22
19 19 26 37 34 51 42 36 56 100 100 100 100 100 100 100 100 100 100 100 100 100 100 100 100 100 100 99 97 97 98 100 97 100 85 96 99 100 96 100 98 93 90 89 77 48 50 31 15
27 30 38 45 50 59 47 53 46 94 100 100 99 100 100 100 100 100 100 100 100 100 100 100 100 100 100 100 85 97 100 100 100 100 95 100 100 100 100 99 99 100 98 89 69 50 52 33 23
34 39 46 57 81 100 75 82 67 100 100 100 100 100 100 100 100 100 100 100 100 100 100 100 99 95 93 96 100 100 100 99 100 100 100 100 98 100 100 100 100 96 87 68 56 55 57 42 22
53 47 76 78 100 100 100 100 100 100 100 100 100 100 100 100 100 100 100 100 99 100 99 97 99 100 90 100 100 100 100 100 100 100 100 100 96 98 100 99 95 94 84 72 69 68 56 26 23
65 80 81 88 97 98 100 100 100 100 100 100 100 100 97 100 99 99 100 100 99 100 100 100 79 73 96 100 99 98 97 100 100 100 100 100 100 99 91 92 87 82 74 61 58 52 26 22 21
83 89 96 91 100 100 100 100 100 100 99 100 100 100 100 94 84 84 91 100 92 79 99 98 100 98 100 98 100 100 100 100 100 92 100 94 92 70 39 40 56 71 75 86 63 58 31 21 19
100 100 100 100 100 100 100 100 100 100 100 100 100 99 99 100 100 100 100 100 100 99 100 100 90 100 100 98 92 100 98 88 68 72 89 67 53 60 74 76 93 83 54 51 49 42 22 20 20
100 100 100 100 100 100 100 100 100 100 100 100 100 100 100 100 100 90 100 83 90 100 99 100 98 80 87 88 83 91 97 62 52 58 62 58 68 74 84 58 31 28 21 21 21 20 20 20 21
98 100 100 100 99 100 100 100 100 100 100 100 100 100 100 86 100 94 90 100 100 100 98 97 92 88 84 89 100 100 100 87 71 85 91 75 77 83 34 23 20 21 20 19 19 19 19 26 37
90 92 100 100 100 100 100 100 100 100 100 100 100 100 100 100 100 100 95 77 87 75 64 60 67 79 86 100 100 100 100 100 95 98 84 93 90 44 19 18 19 18 18 18 18 22 36 45 51
97 90 87 87 96 100 100 100 100 100 100 100 100 94 90 93 99 94 86 82 62 46 45 53 82 100 100 100 100 100 100 100 100 100 98 67 23 19 18 18 17 17 18 24 39 50 50 45 39
76 78 88 94 94 98 99 96 90 88 88 84 81 67 62 65 69 72 55 48 47 44 40 87 100 100 100 100 100 100 100 100 100 88 56 20 19 18 17 17 20 26 38 46 50 50 46 42 40
70 64 54 57 50 56 65 69 70 68 57 51 46 38 36 45 48 42 33 26 29 59 80 85 82 77 85 96 96 86 74 43 33 32 20 22 20 22 27 36 46 47 44 40 35 33 36 38 37
6 10 26 42 61 68 57 47 37 32 30 33 50 57 46 26 22 22 22 25 28 32 42 37 36 34 29 28 29 27 23 22 22 25 26 31 44 53 55 51 47 44 39 33 32 32 33 33 32
29 33 34 30 25 23 26 34 41 46 47 42 34 23 16 17 16 17 17 18 18 18 19 21 22 25 31 28 23 24 26 28 29 37 48 52 49 44 41 40 36 30 30 33 33 32 34 45 51
15 23 29 36 44 46 32 23 21 21 19 17 17 17 17 17 19 24 24 24 28 32 33 38 45 43 35 34 43 42 41 43 44 44 39 35 37 38 40 39 36 36 38 39 50 64 64 57 50
37 44 42 32 22 20 20 19 19 18 19 22 24 24 32 42 44 40 38 34 34 35 36 37 36 32 31 31 30 31 35 37 39 40 41 42 45 44 43 48 47 57 75 71 62 55 48 42 39
29 25 20 20 22 20 21 24 24 27 38 41 43 42 39 36 37 41 43 42 42 41 38 37 35 37 36 37 40 41 41 42 43 45 48 51 54 58 64 74 74 66 60 54 48 43 37 34 31
22 24 24 30 31 33 35 43 42 40 39 37 38 45 51 53 51 47 42 41 39 38 38 42 44 45 45 44 42 39 38 40 48 54 61 72 81 78 68 62 60 55 48 45 40 31 27 23 20
28 43 50 42 34 30 32 35 39 45 50 52 50 47 44 43 40 39 43 43 46 43 37 38 41 42 43 41 42 50 59 68 79 87 94 84 68 61 63 55 52 48 41 34 25 21 17 14 10
43 40 37 38 38 41 44 48 49 49 45 42 42 40 37 35 35 34 36 37 36 41 46 46 47 52 55 54 54 60 68 73 80 78 65 55 48 49 50 44 40 36 28 22 18 12 10 8 6
40 43 43 45 50 53 53 52 50 47 42 39 36 36 34 33 33 33 37 50 63 63 61 56 52 52 54 57 61 67 68 63 56 49 50 56 60 50 43 36 33 27 20 15 11 9 7 6 5
50 51 51 54 55 55 56 50 45 39 36 37 41 43 40 42 38 40 46 49 51 57 54 54 53 48 50 55 57 54 50 50 48 55 63 61 54 49 43 35 25 19 14 11 9 7 6 6 5

GFSSGP_250_rhum_027.txt.gz
RH
14 13 14 14 18 21 22 22 20 20 49 79 100 83 74 98 100 100 100 100 100 100 98 100 100 100 97 88 86 78 59 54 54 50 49 64 57 67 71 52 57 38 50 36 55 56 42 44 70
14 15 14 15 19 25 25 25 25 23 37 72 100 100 100 100 100 100 100 100 100 100 100 100 96 99 100 81 64 58 55 61 44 67 79 64 45 59 63 60 50 54 55 67 61 33 49 87 76
12 12 12 13 17 23 28 28 26 26 23 50 100 100 100 100 100 100 100 100 100 100 99 98 93 87 87 86 73 71 63 58 54 67 72 52 47 72 77 64 53 51 64 61 52 55 66 88 80
9 10 12 12 13 19 23 29 30 29 27 29 57 100 100 100 100 100 100 100 96 100 100 100 85 82 77 59 55 59 74 85 77 72 39 77 83 70 52 44 72 83 58 89 66 71 76 96 87
8 8 9 11 12 14 19 21 28 31 30 27 45 100 100 100 100 100 100 96 100 96 95 80 83 86 96 92 99 96 97 78 46 72 92 89 68 72 65 99 86 82 87 74 71 83 96 95 86
9 8 10 10 10 12 15 18 29 35 34 32 49 100 100 100 100 100 100 100 100 100 100 100 100 100 94 98 94 92 64 73 97 92 93 85 69 79 85 93 80 83 78 76 73 87 97 84 86
9 8 8 11 13 14 20 23 32 35 36 33 58 100 100 100 100 96 100 100 100 100 100 97 98 99 100 98 70 74 99 90 99 93 97 92 100 100 83 80 86 78 90 73 75 99 91 83 69
11 10 11 13 16 16 25 26 31 34 37 35 52 100 100 100 100 100 100 100 100 100 100 100 100 95 97 100 91 90 95 91 87 76 78 97 100 100 96 92 87 88 76 74 92 97 87 84 70
15 15 20 20 19 24 29 32 35 43 50 48 81 100 100 100 100 100 100 100 100 100 100 100 96 89 100 100 100 98 100 73 100 100 94 100 96 90 74 97 77 76 82 88 84 70 89 75 58
29 30 31 31 36 41 53 95 78 64 70 85 100 100 100 100 100 100 100 100 100 93 86 100 100 96 100 100 100 95 75 82 77 93 96 95 88 82 84 92 79 83 85 90 77 45 41 38 52
51 46 46 47 59 55 80 83 91 83 78 83 100 100 100 100 100 100 100 100 100 100 100 100 100 100 92 81 77 87 85 85 100 100 95 93 87 87 97 87 80 93 79 52 44 51 53 61 55
59 69 60 60 70 72 72 97 100 96 92 93 100 100 100 100 100 100 100 100 100 100 100 100 98 81 94 100 93 100 100 100 100 99 97 90 85 84 100 90 92 80 53 59 74 84 66 45 33
82 93 96 95 87 95 96 100 100 100 97 100 100 100 100 100 100 100 100 100 100 99 93 100 99 100 96 100 100 100 100 100 99 99 90 86 83 90 98 79 79 66 64 66 62 46 34 21 19
100 100 100 100 100 100 100 100 100 100 100 100 100 95 90 90 82 90 93 97 83 91 86 98 97 83 100 78 100 100 95 93 95 99 87 67 62 56 54 53 53 48 52 64 71 35 19 19 20
100 100 100 100 100 100 100 100 100 100 100 100 100 98 100 100 100 100 100 100 79 98 100 90 86 65 75 100 83 84 100 100 98 97 85 65 42 59 50 66 70 71 74 68 31 18 18 19 18
99 97 100 100 99 100 100 100 100 100 100 100 100 100 100 100 100 100 97 94 97 71 77 83 100 100 99 86 85 94 100 90 97 100 100 83 94 100 98 82 79 78 72 56 18 18 18 17 18
94 99 100 100 98 100 100 100 100 100 100 100 100 100 100 100 100 100 93 97 98 100 100 98 93 88 69 71 84 100 100 100 100 100 100 100 100 100 78 69 76 56 54 35 20 21 26 34 42
100 99 99 100 100 100 100 100 100 100 100 100 100 100 100 100 95 100 100 100 85 78 76 70 64 59 93 100 96 92 82 100 100 100 100 100 100 97 76 65 35 23 22 23 32 48 49 51 54
100 100 100 100 96 92 94 97 100 100 100 99 97 94 88 87 84 82 65 69 61 55 50 42 47 64 92 100 100 100 100 100 100 100 100 100 76 68 27 23 23 29 38 57 57 56 52 48 46
96 100 100 100 100 99 100 91 81 82 85 79 78 76 77 70 42 43 46 48 44 37 30 30 34 40 77 86 92 94 75 93 100 100 60 26 25 29 37 46 55 59 59 56 50 47 48 51 53
81 84 95 93 89 87 76 65 53 60 73 78 70 53 39 38 44 46 38 30 21 16 17 18 21 24 28 55 58 26 26 28 36 43 46 51 54 54 52 51 52 54 52 49 48 44 43 43 41
31 23 16 10 10 16 30 49 58 54 39 34 33 44 46 46 26 18 18 20 23 30 32 33 38 44 44 40 40 48 50 48 46 44 43 45 50 52 52 49 44 42 42 42 43 45 50 54 56
7 8 10 22 39 41 35 30 27 32 35 37 31 20 18 20 26 30 38 40 40 40 38 38 36 36 39 39 40 40 36 37 40 42 42 39 38 37 35 34 36 42 48 57 66 61 57 54 49
27 26 22 23 29 34 36 40 40 26 18 20 24 30 38 48 49 44 42 42 42 41 38 37 36 35 34 35 36 36 36 37 39 40 38 35 31 31 42 50 55 62 63 59 56 54 49 44 38
23 27 39 41 36 29 20 18 20 25 33 41 46 46 46 47 49 49 46 44 41 38 37 34 31 30 28 29 30 30 31 32 32 32 31 32 42 49 58 67 62 60 62 64 55 44 42 38 31
36 32 22 19 20 22 34 48 50 46 43 44 48 50 49 49 46 41 37 34 32 30 30 30 33 35 38 40 37 35 34 36 39 41 48 56 65 69 61 54 57 61 58 49 41 35 29 22 16
20 21 22 32 50 56 49 44 48 52 55 55 52 48 44 40 35 32 32 34 34 33 35 44 53 52 49 45 44 48 54 58 61 65 66 64 58 52 57 65 70 66 55 43 34 22 17 15 12
26 40 45 41 40 40 41 43 50 53 52 49 44 37 34 36 40 40 40 43 45 47 50 48 48 52 54 55 57 63 65 64 59 52 51 52 54 68 69 78 76 72 52 32 24 18 13 10 8
43 42 43 43 42 46 50 54 55 52 46 39 36 41 42 43 45 52 57 58 58 63 71 75 74 72 72 63 62 64 58 52 50 50 54 61 75 73 86 72 66 56 42 26 17 12 9 8 6
48 52 53 52 54 57 59 59 56 49 42 41 39 41 51 52 56 62 66 68 72 74 83 75 70 62 56 58 55 52 54 48 50 60 67 80 70 75 61 62 64 46 29 17 13 10 8 6 5

GFSSGP_250_rhum_030.txt.gz
RH
13 14 15 16 15 15 15 16 18 20 20 21 23 32 36 74 74 68 59 70 100 100 100 99 96 100 100 100 100 100 98 87 82 87 76 71 44 43 43 48 69 62 42 72 59 33 42 50 46
10 12 16 17 21 19 16 17 17 20 22 25 27 30 35 65 100 100 100 99 97 100 100 100 96 100 100 100 100 100 100 96 86 75 66 57 53 62 58 75 45 50 82 61 53 47 61 50 71
8 10 14 17 19 20 19 18 19 20 24 24 29 29 31 61 100 100 100 99 100 95 94 99 100 100 100 94 97 96 93 72 67 64 65 50 60 96 91 65 64 89 55 44 61 90 82 76 74
7 8 10 13 16 17 18 17 18 19 19 28 32 35 33 29 40 100 100 100 100 73 73 98 100 98 92 95 88 83 73 64 60 61 59 92 87 69 61 71 73 55 52 61 65 92 86 64 67
8 8 9 9 12 15 16 16 16 17 17 20 26 37 35 33 32 76 99 100 97 74 75 69 77 84 93 70 59 71 83 71 100 86 83 70 64 69 74 76 77 49 78 92 86 84 70 62 85
9 8 8 9 8 8 10 13 14 14 15 17 19 28 37 42 42 100 100 100 100 100 100 100 100 100 100 98 91 97 93 90 96 85 68 91 91 70 81 56 65 93 99 80 81 75 65 85 93
10 8 8 8 8 8 8 9 8 10 14 15 18 28 37 42 43 100 100 97 100 100 95 99 100 100 89 96 100 100 100 100 74 99 100 90 69 82 61 100 84 78 93 89 80 70 86 83 99
13 11 10 11 9 8 9 9 10 10 13 17 27 34 44 44 63 100 100 100 100 100 100 100 100 100 100 81 99 100 90 100 100 94 99 76 74 84 100 100 100 100 98 83 84 87 97 98 96
17 18 15 15 14 15 15 16 18 19 24 34 37 44 40 48 76 94 100 100 100 100 100 100 100 100 100 100 100 100 100 100 82 99 100 94 100 100 98 93 94 92 76 75 85 90 100 94 58
32 33 32 37 33 33 34 31 59 82 45 45 46 48 50 78 100 100 100 100 100 100 100 100 96 100 100 99 87 97 98 100 100 100 100 100 100 100 100 88 88 86 76 68 81 91 84 67 54
41 38 42 53 54 64 59 59 74 100 84 78 85 66 68 98 100 100 100 100 100 100 100 100 98 100 100 100 100 100 91 100 100 100 100 98 100 87 79 75 67 75 62 68 69 79 67 61 56
60 73 67 77 76 78 77 78 73 85 100 100 100 90 79 100 100 100 100 100 100 100 100 100 99 100 98 100 100 100 100 100 96 88 85 99 77 74 69 64 58 47 43 44 50 49 51 50 39
94 85 90 97 100 88 82 85 87 100 100 100 100 100 93 88 100 100 100 100 100 100 100 100 100 100 100 87 97 100 100 97 86 77 80 86 95 78 68 58 45 38 36 36 34 42 38 41 36
92 96 99 96 99 86 94 95 100 100 99 100 100 100 100 100 100 100 100 100 100 100 98 90 86 91 94 78 87 91 80 66 72 97 98 93 79 60 43 34 32 34 56 60 68 71 66 54 57
100 100 100 100 100 99 99 100 100 100 100 100 100 100 100 100 100 100 100 92 84 91 100 100 97 73 70 70 70 92 98 100 100 97 94 89 72 98 90 81 79 100 100 100 100 88 86 73 40
100 100 100 100 100 100 100 100 100 100 100 100 100 100 100 86 100 98 87 94 99 87 87 100 98 100 94 94 99 100 100 86 83 99 82 100 100 100 100 100 100 100 100 100 100 100 85 33 21
100 100 99 97 100 97 99 100 100 100 100 100 100 95 100 100 100 100 100 100 100 100 100 100 99 92 96 92 99 99 100 98 99 100 100 100 100 100 100 100 100 100 100 100 100 81 33 34 40
100 100 100 100 100 100 100 100 100 100 100 100 100 100 100 100 100 100 100 100 100 90 88 86 91 80 74 69 100 100 100 100 100 100 100 100 100 100 100 100 100 100 100 96 76 42 45 45 44
100 100 99 100 100 86 96 100 100 100 100 100 100 100 100 100 100 100 94 77 76 77 73 72 68 60 51 40 69 97 100 100 100 100 100 100 100 96 94 100 91 54 43 45 46 46 52 55 52
95 100 100 100 100 100 100 100 100 100 100 100 100 91 92 87 82 74 70 65 53 46 49 44 30 25 20 22 42 63 66 86 100 100 100 100 100 98 45 49 47 49 50 50 47 41 42 48 57
100 100 100 100 100 100 100 97 91 87 81 77 74 72 72 74 77 67 45 35 37 31 21 19 18 21 25 28 29 31 34 41 77 78 57 39 42 43 42 46 52 51 47 44 41 48 58 56 53
100 100 100 100 95 90 86 84 82 63 46 38 53 71 56 38 35 35 29 23 20 27 34 38 40 41 41 42 40 38 38 39 40 41 41 43 44 46 43 39 37 36 38 44 51 49 52 53 57
82 87 78 72 55 38 23 13 16 38 52 48 35 32 34 31 19 19 27 35 38 39 40 41 42 42 45 48 47 45 46 50 53 51 46 36 31 31 32 35 40 45 46 49 55 55 57 65 70
22 20 16 11 8 11 28 40 36 33 35 34 30 19 21 28 36 38 40 43 44 43 41 37 35 33 34 33 35 34 33 33 32 34 36 34 33 37 44 50 54 57 58 54 58 75 77 72 63
14 14 24 34 41 31 30 34 31 23 21 27 36 41 40 42 45 46 47 43 38 36 35 35 33 31 30 30 31 33 36 38 38 36 35 36 43 47 53 57 60 54 54 69 70 61 57 52 40
29 34 44 42 38 36 26 22 24 36 40 37 40 45 50 53 46 40 37 38 37 35 32 34 37 41 44 50 56 58 58 53 46 42 45 47 50 59 60 55 54 70 66 54 52 52 47 36 27
41 40 37 32 24 20 27 37 34 36 41 50 57 55 50 42 41 39 36 38 38 41 44 49 55 61 72 79 83 84 77 66 58 53 51 53 56 55 59 60 70 60 59 62 60 53 40 28 21
29 23 22 25 32 38 35 45 55 58 60 59 55 49 41 42 42 43 37 38 54 65 67 70 71 70 69 78 86 77 71 64 52 48 52 50 55 55 57 62 68 75 72 70 58 43 28 17 14
23 30 42 39 40 40 51 64 65 64 61 56 50 42 42 40 40 40 35 42 49 57 70 78 71 72 72 72 74 71 61 51 50 47 47 50 57 62 65 78 80 63 53 48 40 30 17 14 11
50 45 44 48 53 60 60 63 63 64 63 57 49 47 43 43 37 38 41 41 47 62 83 83 90 81 79 84 77 63 55 52 47 47 53 60 66 70 83 84 62 36 31 27 21 17 14 11 10

GFSSGP_250_rhum_033.txt.gz
RH
5 8 10 11 12 15 16 19 15 14 17 20 20 19 18 18 27 33 40 38 29 41 58 60 99 99 76 83 98 100 100 100 100 100 100 91 89 83 90 81 61 52 58 68 70 59 39 37 45
6 6 8 11 12 12 16 15 14 18 23 27 25 21 20 21 23 23 26 35 75 72 67 83 74 77 89 76 87 100 100 100 100 96 98 92 72 73 74 62 56 66 78 78 59 45 48 54 50
6 7 8 8 9 11 13 12 19 21 24 24 28 27 25 24 24 26 28 43 100 100 100 100 76 71 71 70 65 77 85 98 90 95 80 76 56 52 50 52 49 82 58 49 54 55 47 54 68
6 7 7 8 9 8 10 12 14 18 22 24 23 23 26 30 28 30 54 65 74 100 100 100 100 100 93 100 81 82 81 71 60 59 51 42 65 60 58 90 81 56 48 53 69 58 63 95 100
7 7 7 8 8 9 9 10 11 14 18 20 21 22 25 25 24 24 36 39 40 64 92 100 78 88 92 76 74 76 57 54 54 60 78 100 100 98 91 81 76 75 79 62 63 100 100 86 83
8 7 8 8 7 9 9 10 10 9 11 14 17 19 22 21 21 23 38 71 61 63 76 63 51 80 81 64 60 76 100 100 75 99 100 98 98 97 85 88 100 94 71 74 89 91 97 84 69
9 9 8 8 8 8 8 9 8 8 9 10 12 16 17 18 21 24 37 71 97 100 100 88 100 100 100 100 100 100 100 100 100 100 96 99 96 100 89 77 98 100 99 100 99 88 70 62 73
11 11 9 10 8 10 8 8 8 8 9 12 10 12 13 24 32 65 100 100 100 100 100 100 100 100 100 100 100 100 100 100 100 100 93 92 100 100 100 100 100 100 79 92 76 68 72 67 80
20 17 14 13 28 14 15 11 10 11 11 14 16 14 14 17 32 57 100 100 100 100 100 100 100 100 100 100 92 100 99 100 100 94 96 100 85 100 100 100 99 85 76 67 71 66 58 54 62
33 24 18 17 56 60 48 19 23 20 26 34 28 30 21 34 60 90 99 100 100 100 100 100 100 100 100 100 94 88 84 87 95 94 86 100 100 100 100 100 95 83 77 59 62 58 46 42 38
40 32 28 43 35 35 30 40 48 56 49 46 40 58 43 49 90 95 100 100 100 100 100 100 100 92 100 100 100 100 96 70 100 100 99 100 100 99 100 89 78 87 87 69 66 48 31 37 32
56 70 73 63 66 65 51 56 62 78 100 100 100 100 68 48 99 100 75 79 96 100 100 100 100 100 100 100 100 100 100 100 100 100 100 100 95 85 90 87 98 81 80 60 47 28 30 38 52
95 100 98 88 85 84 84 84 94 96 100 100 100 100 100 100 93 99 90 100 100 100 100 100 100 100 100 100 100 100 99 100 96 87 77 70 82 90 83 70 77 68 54 42 29 34 39 86 100
100 100 100 97 86 90 77 93 97 96 95 97 100 100 100 96 76 90 87 100 100 100 100 100 100 94 98 94 96 100 98 97 83 86 77 86 92 84 79 66 51 44 39 50 86 75 62 100 93
100 100 100 100 99 98 100 100 100 100 97 91 100 100 100 100 100 100 100 100 100 100 100 100 100 100 97 100 100 81 67 78 81 92 79 85 80 75 80 99 98 98 100 97 100 100 100 100 100
100 100 100 97 100 100 100 100 100 99 100 100 100 100 100 100 100 100 100 100 100 73 78 84 82 91 97 84 72 86 91 100 100 100 99 100 100 80 92 100 100 100 100 100 99 100 99 100 100
100 100 100 92 91 95 100 90 100 100 100 100 95 100 100 100 100 100 91 78 65 100 100 100 100 100 96 100 99 99 100 98 94 81 100 100 100 100 100 99 95 81 90 91 100 97 94 100 95
100 100 100 98 98 100 99 98 100 100 100 90 100 100 100 100 96 97 99 96 97 100 100 100 100 91 78 68 62 62 69 77 100 94 100 100 100 100 90 100 100 100 99 100 98 95 77 72 48
100 100 96 90 93 90 93 100 100 100 100 100 100 100 100 100 100 100 100 100 100 100 92 87 76 67 62 57 55 55 51 44 40 47 59 54 82 100 100 100 100 100 100 100 91 54 48 44 39
100 100 100 99 98 100 100 100 100 100 100 100 100 100 100 100 100 100 98 100 97 82 70 68 58 49 41 28 22 21 24 28 32 33 65 65 76 56 43 48 62 83 66 38 40 41 36 39 47
100 100 97 99 100 97 100 95 94 100 100 100 100 100 100 100 100 100 86 72 62 64 58 49 61 29 33 34 33 33 34 34 35 35 35 36 36 37 39 39 37 38 40 38 34 36 49 53 55
100 100 98 100 96 100 100 100 100 100 100 100 89 87 88 84 75 63 68 55 38 29 28 27 31 32 33 33 32 32 32 31 32 34 38 38 40 37 35 34 36 36 34 40 48 49 50 57 57
100 100 100 100 100 100 95 97 84 62 69 73 52 34 38 54 56 32 31 23 28 34 36 34 34 34 32 31 33 34 36 40 44 46 42 44 38 40 43 40 36 42 46 46 54 57 58 54 51
96 100 96 99 100 95 83 84 68 40 27 39 43 35 33 29 22 28 35 37 37 36 35 33 32 34 34 35 38 39 42 52 61 78 86 83 74 62 45 41 43 50 54 58 57 54 53 53 53
81 76 76 78 60 34 20 13 15 44 36 31 28 24 29 37 33 36 40 40 37 34 35 38 46 53 56 57 63 68 72 76 74 80 72 64 60 53 50 52 54 51 53 53 52 51 56 52 45
60 28 22 20 16 22 35 38 34 31 28 33 42 38 33 34 39 42 38 35 34 35 37 42 47 51 55 65 79 81 82 78 76 70 67 60 57 58 54 51 50 54 58 58 62 55 59 52 45
38 30 30 40 38 37 36 30 29 40 43 39 37 39 43 45 46 39 39 40 40 34 32 37 44 53 50 62 69 76 76 87 80 76 75 72 70 58 50 54 65 59 59 62 60 58 55 48 35
49 49 41 40 38 31 36 58 52 41 36 42 47 50 51 50 43 40 41 41 38 36 37 42 47 46 56 67 74 73 73 81 80 81 80 75 65 56 65 69 64 67 65 65 59 53 46 36 30
46 45 40 33 33 63 63 47 40 39 46 54 60 61 57 51 45 46 49 52 39 37 39 43 48 57 57 64 66 80 86 91 91 92 79 69 63 65 65 68 65 60 64 65 53 46 38 28 22
34 31 30 52 70 60 47 48 50 56 62 66 67 67 64 63 55 55 52 52 36 37 39 46 53 52 58 60 77 83 96 91 84 84 71 63 64 68 73 68 64 69 76 55 48 35 26 20 17

GFSSGP_250_rhum_036.txt.gz
RH
4 4 4 6 6 6 8 11 7 9 16 17 19 20 19 20 23 20 30 57 38 38 52 26 28 34 36 35 32 30 58 60 85 100 99 86 74 96 93 88 83 80 64 58 50 42 38 36 36
5 5 4 4 6 7 9 7 7 8 12 15 15 21 21 24 21 22 26 52 52 38 43 53 37 42 58 76 68 56 47 45 58 69 68 61 69 90 77 64 51 46 45 46 45 45 61 40 42
6 5 5 5 5 6 7 5 10 10 12 14 15 19 17 20 20 23 37 36 42 42 45 52 58 67 45 74 100 100 100 94 74 61 77 81 89 71 55 45 67 66 81 99 88 83 50 41 72
6 6 5 5 6 6 6 5 8 9 11 13 14 16 16 19 19 31 41 70 76 72 59 60 70 87 99 74 100 100 87 100 100 84 93 86 74 49 78 100 100 87 100 100 71 65 100 89 59
6 6 6 6 6 6 7 6 8 8 10 12 10 12 16 18 21 25 74 86 92 86 82 93 91 80 94 82 80 61 85 97 100 90 92 74 56 99 58 100 100 100 82 78 100 93 79 98 100
8 7 6 7 7 6 5 8 8 9 25 16 24 18 12 11 13 20 44 64 97 100 100 100 100 98 72 77 74 75 84 100 74 63 61 68 100 97 100 100 99 97 100 100 99 100 100 100 99
9 8 8 8 8 7 9 9 8 8 10 13 20 22 12 11 13 19 16 32 59 98 88 100 75 100 100 100 99 100 100 100 95 83 94 100 100 100 97 87 77 83 100 99 98 100 100 100 86
14 11 10 9 8 9 60 41 9 28 57 70 32 10 13 14 16 22 94 48 37 53 94 100 100 100 100 100 100 100 100 100 100 100 100 100 100 100 100 100 100 99 87 100 100 100 97 77 72
14 13 15 12 9 9 28 58 37 62 23 37 12 25 19 17 14 35 74 100 100 100 100 100 100 85 95 100 100 100 100 100 100 100 100 100 100 100 100 99 98 100 100 100 96 82 68 62 55
22 18 16 14 12 53 86 100 96 44 75 18 13 75 100 77 23 30 55 100 100 100 100 100 100 100 100 100 100 100 100 100 100 100 100 100 93 98 100 100 100 100 95 89 78 69 70 58 46
34 29 22 26 80 100 100 100 88 65 29 23 21 28 100 97 46 35 54 100 100 100 100 100 100 100 100 100 100 100 100 100 100 100 100 100 99 100 100 96 96 93 92 88 72 74 62 53 41
48 47 53 61 100 100 100 100 100 77 51 36 44 61 48 61 86 69 92 96 100 100 100 100 100 100 100 100 100 100 100 100 100 100 93 81 100 97 100 99 89 79 70 64 56 56 52 33 30
70 82 82 83 70 86 85 97 97 86 48 85 100 90 100 99 80 67 91 100 100 100 100 100 100 100 100 100 100 100 100 100 100 100 100 96 86 96 89 87 68 65 55 46 42 34 31 23 42
99 100 84 100 100 95 84 82 78 98 90 83 100 100 100 100 91 94 100 100 100 100 100 100 100 99 100 100 100 100 100 97 95 100 100 99 100 91 74 62 51 52 50 36 32 28 38 40 72
100 100 100 100 100 100 100 100 88 90 99 97 100 100 100 100 100 83 69 100 100 100 100 100 100 100 100 100 100 100 100 100 100 100 99 96 80 78 72 58 66 48 50 63 57 80 100 100 100
100 100 100 100 100 100 100 97 98 97 81 99 99 98 100 100 100 100 100 100 100 100 100 100 100 100 100 100 100 100 100 99 88 79 80 64 63 60 69 58 69 67 69 94 100 100 97 79 91
100 100 100 100 100 99 100 83 87 99 100 100 100 100 100 100 100 100 100 100 100 100 100 100 100 100 98 89 88 79 71 68 80 84 66 57 56 52 49 39 52 60 62 90 99 100 100 100 100
100 99 100 100 100 100 96 75 100 100 100 98 87 79 98 100 100 100 100 100 100 100 66 63 70 63 50 66 87 97 97 84 66 53 49 48 34 26 40 49 45 57 77 87 96 88 86 65 42
100 90 97 96 99 95 96 92 94 100 100 100 100 100 87 98 100 100 89 73 78 100 100 100 87 100 100 100 100 86 63 51 49 38 26 24 32 39 42 42 42 45 36 36 38 33 29 28 29
100 100 100 100 100 96 90 94 100 100 100 100 95 100 100 100 100 86 100 100 100 99 100 100 98 80 84 87 64 58 52 32 31 34 33 32 30 28 26 26 29 32 34 34 33 32 32 34 39
100 99 100 93 85 100 100 100 100 94 83 82 100 100 100 100 100 100 100 100 100 100 100 98 88 75 53 52 46 32 29 28 26 26 28 30 33 36 38 41 45 45 46 52 55 49 44 44 49
100 82 96 85 89 100 100 98 84 86 84 70 100 100 100 100 100 100 100 100 100 96 74 61 50 36 31 30 28 26 24 27 29 33 42 45 46 46 47 55 66 68 63 52 48 48 48 50 53
88 89 89 96 93 100 99 80 100 100 99 97 100 95 95 84 72 67 58 57 53 54 37 32 28 34 56 25 27 34 37 44 42 44 53 54 64 69 69 75 77 74 75 58 52 50 51 54 59
93 84 94 100 100 100 97 80 93 67 79 99 80 72 56 36 36 39 37 33 29 28 31 32 70 31 32 39 38 34 32 33 41 44 54 58 67 66 63 66 63 58 49 49 48 49 52 52 49
100 100 100 100 100 100 100 100 90 90 100 96 95 40 38 32 30 24 29 39 37 34 30 28 29 31 33 34 32 33 37 43 45 49 57 65 82 84 80 77 67 62 56 51 50 52 55 55 56
97 97 100 100 81 76 93 96 73 36 25 32 43 31 27 30 39 39 38 40 34 32 31 33 34 33 38 39 37 37 40 42 49 56 63 78 84 71 69 67 64 57 57 64 65 64 59 51 50
97 95 89 82 58 34 35 32 55 44 39 31 31 35 43 38 36 40 40 37 34 35 37 36 38 39 42 37 37 35 41 48 53 60 71 86 82 77 74 66 64 66 69 65 58 57 58 51 54
93 91 66 53 36 40 53 49 38 33 33 42 43 42 36 35 39 39 44 40 40 41 47 49 46 42 40 39 43 36 44 55 56 68 77 90 84 79 71 64 72 80 78 70 66 58 57 64 57
81 68 67 57 50 42 40 32 35 44 47 47 42 40 38 44 49 52 52 55 52 51 53 54 55 43 40 44 43 40 52 57 62 74 91 88 85 82 75 77 82 85 76 63 62 66 70 55 42
84 50 53 51 41 34 29 52 50 56 48 43 41 41 47 57 62 65 64 57 61 65 65 61 60 53 49 53 44 53 63 60 74 89 81 80 81 75 74 81 79 72 68 72 80 73 52 42 31

GFSSGP_250_rhum_039.txt.gz
RH
4 4 4 3 5 6 8 7 6 5 6 7 7 11 17 23 13 15 23 25 24 23 26 25 24 41 37 46 61 40 33 46 47 45 39 30 39 41 50 54 54 62 46 48 48 59 50 47 84
5 5 5 5 6 6 7 7 7 7 6 8 12 23 22 20 12 15 27 25 24 24 32 35 50 52 71 87 75 57 47 45 57 43 32 52 67 72 66 59 69 100 83 66 56 36 53 90 84
5 5 6 7 7 8 5 5 6 7 9 9 10 12 12 13 14 14 14 24 27 27 26 34 36 47 71 68 59 79 83 71 55 58 78 100 100 98 100 100 93 85 65 49 43 76 97 97 72
6 6 7 8 9 8 7 5 6 6 7 8 10 10 12 13 13 12 14 20 22 28 47 73 72 100 100 93 100 91 71 64 69 66 72 85 100 88 98 94 74 42 55 59 100 100 100 80 78
6 7 7 9 9 8 6 6 6 6 7 6 8 9 9 10 13 14 30 49 49 100 100 100 100 99 100 100 100 95 83 82 91 100 100 99 99 100 99 83 46 59 95 100 100 89 88 61 82
8 8 9 9 8 9 7 7 7 8 7 7 8 9 9 10 9 9 22 72 68 100 91 100 100 100 100 100 100 100 99 98 76 69 100 100 100 99 76 56 94 97 100 100 99 100 67 100 100
10 10 10 9 9 8 8 8 10 9 8 7 10 9 8 9 11 10 13 25 74 97 100 100 100 100 100 100 100 92 71 77 100 100 100 94 100 100 72 100 89 99 97 99 78 98 99 87 87
13 14 12 10 11 9 9 10 9 11 13 13 10 8 8 12 15 39 27 39 100 100 100 100 100 100 94 100 100 90 100 89 100 100 100 100 94 100 100 100 100 90 100 100 94 85 80 73 90
14 22 18 13 10 10 10 10 22 24 57 62 18 10 28 72 85 61 32 25 47 100 100 100 100 100 100 100 100 100 100 100 100 100 100 100 100 100 100 97 96 100 96 92 100 100 100 92 85
38 34 32 18 11 11 12 41 69 86 71 56 25 22 100 100 100 81 71 91 64 72 80 100 100 100 100 100 100 100 99 100 99 99 100 100 100 100 100 100 100 100 100 96 100 80 100 97 81
75 78 22 16 14 16 41 95 100 100 54 70 46 42 97 100 100 85 85 87 100 100 100 100 100 100 100 100 100 98 98 97 100 100 100 100 100 100 100 100 97 100 100 98 96 97 93 88 74
89 65 42 23 23 64 100 100 100 95 34 68 65 87 100 100 100 69 99 100 100 100 100 100 100 100 100 100 100 100 100 100 100 100 100 100 100 100 100 100 88 100 82 94 93 88 78 69 61
84 88 71 34 57 100 100 89 90 97 100 49 77 71 65 100 100 100 97 92 100 100 100 100 100 100 100 100 100 100 100 100 100 100 100 100 100 100 100 100 100 100 100 92 84 72 58 51 44
88 98 75 52 71 100 100 100 100 100 100 62 93 100 90 76 78 99 100 93 100 100 100 100 100 100 100 100 100 100 100 100 100 100 100 100 100 100 100 100 100 90 83 78 66 58 50 41 32
100 100 98 53 74 100 100 100 100 100 100 77 88 100 88 84 87 99 92 100 100 100 100 100 100 100 100 100 100 100 100 100 100 100 100 100 100 100 99 93 82 82 72 57 44 38 31 24 29
94 99 100 100 57 100 98 100 100 100 96 83 94 100 100 100 73 90 100 100 100 100 100 100 100 100 100 100 100 100 100 100 100 100 100 100 98 80 76 77 69 57 50 40 33 24 22 27 37
98 100 100 100 84 68 59 61 81 84 84 75 94 100 100 100 99 100 92 100 100 100 100 100 100 100 100 100 100 100 100 100 97 84 82 73 72 66 75 68 42 36 28 25 28 30 30 30 33
100 100 100 89 99 100 88 75 94 91 87 100 100 98 100 100 100 100 100 100 100 100 92 94 100 100 100 100 100 98 86 63 51 43 52 66 88 98 60 31 26 25 26 26 26 30 36 40 43
99 99 98 93 100 99 84 97 100 100 94 85 88 99 96 99 100 100 100 100 100 100 100 100 93 95 96 74 46 45 61 98 100 85 70 72 58 41 24 26 24 25 30 34 38 43 48 57 53
100 90 96 100 100 100 90 90 86 99 100 100 100 100 100 100 92 89 97 100 100 100 100 100 75 64 90 100 100 100 98 90 78 64 45 32 25 23 26 34 42 49 50 47 47 48 52 55 48
80 86 100 100 92 94 98 96 83 100 100 100 100 100 100 100 100 100 98 100 97 92 71 98 100 100 100 90 97 88 74 57 38 29 25 23 25 31 39 45 50 52 47 52 58 58 58 51 54
99 85 98 100 100 100 81 96 99 88 100 91 94 100 97 100 100 100 100 100 100 100 100 100 100 94 88 73 63 53 38 31 26 26 26 26 31 37 41 41 45 53 67 62 56 56 54 52 51
93 99 97 99 100 87 94 100 89 98 91 81 95 88 92 97 99 79 74 82 73 80 64 56 50 46 45 38 37 33 38 29 30 28 27 30 37 39 44 45 54 61 63 70 72 64 55 54 51
92 86 100 100 100 100 86 89 96 85 86 94 86 78 79 79 72 58 53 46 37 36 41 41 34 34 31 44 72 37 28 27 25 25 30 32 31 36 38 49 59 66 65 65 61 54 49 47 48
92 99 98 100 100 100 95 70 53 72 98 86 96 76 48 68 44 44 39 45 34 33 31 33 35 33 30 30 30 30 29 27 24 25 27 27 33 40 47 54 58 56 58 61 55 51 52 57 64
95 76 91 100 100 100 100 88 100 100 93 100 92 45 26 37 49 34 29 29 33 37 39 36 33 33 34 36 34 31 30 28 26 30 32 36 50 50 52 65 64 60 65 62 60 64 70 70 72
83 83 100 100 96 92 83 66 80 79 80 58 39 58 92 98 55 31 38 42 44 46 46 39 38 40 41 42 40 39 44 34 36 36 38 60 60 53 68 66 58 67 72 70 73 74 72 69 62
100 95 79 80 99 95 75 42 49 31 16 41 38 35 33 32 43 46 47 51 50 47 46 43 45 45 52 56 56 58 53 40 52 49 71 64 55 59 72 64 59 71 76 81 73 75 69 64 68
98 83 82 99 95 84 56 65 79 51 36 32 34 30 42 47 46 47 48 50 49 45 43 44 45 49 55 59 58 57 44 65 66 62 58 52 57 68 74 65 60 70 84 85 78 71 64 70 67
86 91 88 89 75 96 52 49 50 40 35 30 40 58 46 46 47 43 39 40 41 44 49 53 52 50 51 50 54 56 59 60 58 54 50 56 66 72 66 62 77 85 85 84 70 64 70 75 62

GFSSGP_250_rhum_042.txt.gz
RH
4 3 4 5 5 6 6 6 6 5 6 6 6 6 6 7 10 15 13 16 17 19 23 26 24 24 24 25 26 26 30 42 39 44 54 49 47 42 38 42 44 42 37 42 59 82 78 70 56
4 4 4 5 6 6 6 6 6 5 6 6 6 7 8 8 9 10 14 17 18 17 17 22 28 29 32 29 29 39 59 77 92 77 68 62 51 54 53 55 58 60 91 99 100 100 91 52 44
6 6 5 5 6 6 6 6 6 6 7 6 7 8 8 8 8 10 13 12 15 14 17 23 27 29 28 29 37 43 74 85 92 93 88 71 76 86 82 91 98 100 100 93 100 100 65 57 44
7 7 7 7 7 6 6 6 8 8 7 8 9 9 10 9 11 11 11 12 12 17 16 22 25 28 30 40 58 99 100 87 97 96 100 100 100 93 100 100 100 99 90 100 100 64 72 99 59
8 9 10 9 8 6 6 7 11 9 8 7 8 9 9 10 10 11 15 26 12 12 13 21 83 55 63 93 100 100 100 100 100 100 98 98 87 95 95 100 100 90 100 100 99 56 48 61 91
8 10 12 11 8 7 7 7 11 9 9 9 9 9 10 9 10 16 42 57 53 42 31 84 100 79 100 97 100 100 100 100 100 95 98 88 99 89 70 97 98 100 100 100 51 69 100 100 87
9 11 12 13 11 9 8 8 9 10 10 10 10 10 9 10 9 8 10 78 100 70 80 100 74 82 96 100 100 100 100 100 100 100 100 94 79 63 87 100 88 100 69 47 84 100 99 83 99
13 13 13 13 12 10 8 9 10 10 12 10 10 14 9 8 8 8 13 33 66 93 100 100 100 88 90 100 100 100 100 100 99 84 70 85 100 100 100 100 100 100 100 100 100 82 77 99 100
17 18 19 16 13 11 10 11 12 11 14 10 9 21 11 9 9 9 11 27 54 99 100 100 100 100 100 100 100 100 100 90 100 93 100 100 97 83 100 96 100 100 100 67 91 100 100 100 100
25 27 33 16 11 11 18 24 15 20 54 27 41 16 11 10 15 25 27 14 45 62 100 100 100 100 100 100 100 100 100 100 100 100 100 100 100 100 100 89 100 100 100 100 92 92 89 100 92
66 100 32 12 15 21 34 40 57 99 94 46 39 28 28 22 34 85 65 42 57 100 100 100 100 100 100 100 100 100 100 100 98 99 100 100 100 80 100 100 98 85 96 100 96 94 85 90 94
96 49 31 30 42 72 70 90 91 100 98 60 42 31 31 38 100 100 76 66 80 100 100 100 100 100 100 100 100 100 99 100 100 100 100 100 100 100 76 98 99 99 94 87 83 100 94 97 89
100 77 69 77 74 97 77 84 100 100 63 82 61 53 81 100 100 100 96 99 98 99 100 100 100 100 100 100 93 97 100 100 97 90 100 100 88 98 100 88 93 100 99 100 100 94 88 81 73
100 100 95 100 78 79 52 87 100 100 92 76 68 100 100 100 100 100 98 94 100 100 95 90 95 99 100 100 100 100 100 100 100 100 100 100 100 100 100 98 96 98 98 94 91 89 79 66 55
100 100 100 100 100 99 67 100 100 95 78 100 100 100 100 100 100 100 100 100 100 100 100 100 100 100 100 100 100 100 100 100 100 100 100 100 100 99 100 100 91 95 86 80 75 77 86 63 52
100 99 100 100 98 100 88 100 100 100 82 92 100 100 100 100 100 100 100 100 100 100 100 100 100 100 100 100 100 100 100 100 100 100 100 100 100 98 92 90 80 74 77 82 88 71 57 41 24
100 92 90 100 100 100 100 100 100 100 96 96 97 90 89 93 100 100 100 100 100 100 100 100 100 100 100 100 100 100 100 100 100 100 97 100 90 98 98 89 80 80 76 48 30 27 30 34 36
94 84 87 100 100 100 100 100 100 100 91 76 72 80 81 70 90 100 100 100 100 100 100 100 100 100 100 100 100 100 100 100 99 100 99 99 78 76 96 93 76 60 29 29 27 31 34 37 39
88 94 100 100 99 84 95 100 100 92 100 100 84 100 100 100 100 97 89 87 95 100 100 100 100 97 100 100 100 100 100 100 100 96 100 75 86 100 88 76 55 26 26 29 32 34 34 37 39
100 98 98 100 94 75 96 86 78 92 98 94 86 96 100 100 100 100 100 100 100 89 76 73 87 100 98 98 90 83 84 92 57 93 86 99 81 83 60 38 26 25 29 31 31 29 30 38 43
97 99 99 94 100 100 99 99 99 100 92 93 100 100 100 85 88 100 100 100 92 89 82 91 100 100 100 100 96 98 100 93 100 100 97 81 64 42 28 27 26 26 30 30 32 30 35 43 45
99 98 98 100 100 100 100 86 81 78 100 97 100 100 100 100 100 100 100 100 100 100 100 100 100 100 93 91 96 89 82 77 72 64 56 46 33 30 27 25 25 28 28 30 33 36 50 49 45
96 98 98 99 100 100 91 99 100 88 87 100 100 100 100 90 99 74 81 100 100 100 99 94 82 85 93 74 57 46 43 37 33 32 39 39 32 28 25 24 25 27 27 41 46 37 44 52 56
94 85 84 98 100 99 82 92 95 95 100 100 100 100 100 100 88 91 92 92 93 74 60 52 82 68 53 42 37 32 32 33 37 53 43 30 29 30 30 32 31 34 41 40 39 46 58 60 51
87 94 85 90 99 87 94 64 84 99 94 74 69 76 76 73 67 56 47 48 34 35 57 67 55 48 37 38 39 38 37 34 33 33 33 34 34 33 34 33 28 29 37 39 44 55 58 56 59
83 83 81 97 87 71 58 54 69 88 88 88 67 56 62 58 60 35 23 32 51 60 57 72 67 41 38 42 39 36 38 40 39 40 39 43 37 36 32 29 34 37 39 47 56 55 58 66 71
85 93 90 97 100 88 59 80 97 79 73 74 65 51 42 30 23 34 53 84 92 71 60 46 48 42 45 47 50 43 40 40 41 41 41 40 38 38 37 39 42 49 54 60 57 61 70 72 79
92 80 77 89 82 76 66 78 98 88 77 56 35 23 19 28 34 37 64 88 51 46 40 40 48 49 67 50 51 54 48 42 42 45 47 44 39 39 46 51 55 60 63 61 69 71 72 76 76
87 92 100 100 100 82 67 73 75 66 35 35 36 48 44 37 35 45 52 42 39 46 45 46 50 53 50 53 52 53 48 44 50 54 53 58 61 57 60 66 64 64 65 71 70 74 80 75 64
100 89 87 80 83 98 81 79 65 44 27 39 44 40 36 38 53 49 42 46 50 49 51 46 43 43 45 48 51 48 52 64 75 70 67 66 65 64 60 58 64 69 68 72 81 81 71 59 60

GFSSGP_250_rhum_045.txt.gz
RH
5 5 4 4 4 5 5 6 7 7 8 8 7 6 6 7 6 7 8 8 10 11 12 13 14 14 16 18 20 22 25 26 26 26 26 27 28 41 49 56 46 41 47 45 52 61 52 49 49
7 6 6 6 6 5 5 5 6 7 7 7 7 7 7 7 6 7 11 8 10 12 13 13 15 16 16 19 26 29 31 32 34 32 41 45 51 41 53 66 71 76 71 66 66 66 65 89 93
7 7 7 7 7 6 6 5 5 5 8 8 8 7 7 9 8 8 9 12 12 12 15 17 16 18 16 18 20 26 34 42 42 45 54 65 84 96 95 88 90 84 94 80 79 78 77 70 90
7 7 7 8 8 7 6 6 6 8 7 8 8 8 7 8 8 11 14 18 17 15 24 17 16 15 17 17 20 22 42 52 47 48 70 100 99 100 89 91 98 95 92 83 80 74 61 74 97
10 9 8 8 8 8 9 9 7 7 11 13 8 9 8 8 10 10 14 22 23 17 36 26 29 28 22 25 26 38 55 56 82 88 99 97 100 100 96 86 84 91 90 73 58 53 87 96 80
12 10 8 9 8 9 10 11 10 9 20 98 28 10 10 11 12 13 27 16 16 50 75 33 32 27 19 20 19 44 62 98 100 100 100 100 95 92 92 86 85 84 72 60 48 76 83 79 56
14 16 12 10 8 9 11 12 11 13 23 33 26 24 16 13 14 12 12 15 23 27 56 93 57 50 36 30 50 98 100 100 100 100 100 100 100 100 95 81 69 61 61 99 100 100 76 51 87
20 24 19 16 12 12 13 14 13 12 15 14 14 44 21 19 13 12 14 16 42 39 97 89 86 100 98 100 100 100 100 100 100 100 100 89 80 80 65 69 79 90 92 98 90 60 68 100 71
37 31 23 14 12 10 11 12 12 14 25 44 54 31 24 30 15 13 11 10 20 40 99 100 100 100 100 100 100 100 100 100 100 100 94 99 62 67 72 93 100 84 90 77 73 86 100 100 88
54 33 27 15 12 15 16 15 16 20 71 86 99 43 67 38 16 10 10 9 11 27 94 100 100 100 99 100 100 100 100 100 100 97 88 83 100 100 100 81 91 100 100 100 100 100 100 88 84
74 24 16 21 32 39 24 25 33 46 54 94 93 55 90 34 18 15 12 11 16 35 86 100 100 100 100 100 100 100 100 100 100 91 100 100 100 85 99 100 95 100 88 100 87 87 82 82 76
78 23 24 66 86 72 84 100 86 77 79 100 50 54 38 34 26 22 26 13 12 48 100 100 100 100 100 100 99 100 100 100 100 100 86 100 100 100 100 100 100 100 80 100 97 94 96 95 78
74 51 62 96 74 95 100 100 100 99 100 37 46 83 76 71 75 82 65 39 45 73 100 100 100 100 100 100 100 100 100 100 96 100 100 100 100 100 100 96 98 100 100 99 93 94 86 80 76
69 83 85 100 100 100 100 100 89 98 85 78 86 100 100 100 100 100 100 99 84 82 100 100 100 100 100 100 100 100 100 100 100 100 99 100 100 100 100 96 77 99 86 88 94 75 82 96 99
96 100 100 100 100 100 94 84 100 100 100 100 100 100 100 100 100 100 100 100 92 100 100 100 100 100 100 100 100 100 100 100 100 100 100 100 100 100 94 100 100 100 90 91 85 91 97 98 87
77 83 100 100 100 100 92 97 99 100 100 100 100 100 100 100 100 100 100 100 82 83 100 100 100 100 100 100 100 100 100 100 100 100 100 100 100 98 100 96 96 93 93 96 98 100 89 80 55
100 100 93 100 100 100 100 100 100 100 100 100 100 100 100 94 100 100 100 100 100 98 95 100 100 100 100 100 100 100 100 100 100 100 100 100 100 100 98 95 95 83 100 100 96 86 68 51 34
100 100 99 92 100 100 100 100 100 100 100 100 100 99 100 93 91 100 99 100 100 100 100 99 91 81 92 100 100 100 100 100 100 100 100 99 100 100 98 98 99 99 98 73 75 69 53 29 28
100 100 100 96 100 100 100 100 100 100 100 100 96 100 100 83 96 100 100 100 100 100 100 100 100 100 100 100 100 100 100 100 100 98 98 95 100 98 100 90 82 72 81 84 78 54 30 30 30
99 100 100 100 100 98 100 100 100 100 100 100 95 89 88 99 100 100 100 100 100 100 100 100 100 100 100 100 100 100 100 100 100 100 100 100 97 95 87 89 90 82 78 63 39 31 30 28 27
91 100 100 100 100 81 94 100 100 100 94 99 100 100 100 100 100 100 100 95 97 100 100 99 85 100 100 95 100 98 83 66 69 75 76 64 75 76 65 56 52 49 44 36 31 30 28 26 27
82 99 90 99 100 100 81 99 100 87 100 98 82 76 84 100 100 100 100 100 100 100 100 100 100 100 100 98 96 98 94 88 96 97 81 65 50 39 33 45 51 61 42 32 30 29 27 26 26
95 98 100 100 83 98 100 100 100 100 100 100 94 100 100 98 100 99 80 75 64 65 81 90 88 97 99 82 72 68 68 70 62 50 41 36 32 33 34 33 33 34 35 33 30 32 36 40 43
96 100 100 93 88 98 95 75 84 98 100 98 100 100 99 88 98 100 100 87 75 70 64 63 61 63 61 55 68 90 68 60 43 35 35 36 36 35 39 38 36 34 34 37 43 46 50 53 53
95 99 100 100 98 81 66 79 84 80 79 94 100 100 95 97 98 86 80 86 89 87 70 80 78 67 77 83 82 76 61 46 39 39 39 38 41 40 39 39 42 45 47 50 50 52 51 51 53
97 100 100 100 94 82 82 92 100 84 84 90 92 97 88 70 62 66 61 54 52 47 75 94 96 100 100 100 100 95 69 50 40 48 42 38 41 46 46 46 46 46 43 46 52 51 48 48 48
100 97 89 88 74 64 94 82 83 89 70 58 59 63 61 62 56 49 47 21 21 48 99 100 100 100 100 86 86 56 52 50 57 42 44 47 48 47 44 42 47 50 59 58 56 56 56 54 51
84 96 96 82 75 80 100 100 100 75 72 62 60 66 64 50 30 24 24 32 35 39 76 64 78 90 89 62 50 49 48 44 44 44 48 49 46 51 63 71 63 57 56 60 62 56 53 60 70
77 100 86 71 89 79 69 100 98 90 83 77 77 70 26 25 31 41 41 37 40 44 50 51 44 40 47 44 44 44 41 38 42 50 51 61 67 72 63 59 60 66 66 70 63 60 69 76 72
90 87 100 97 98 96 92 91 90 86 90 86 86 59 58 45 45 44 41 54 63 64 55 48 46 56 67 59 50 39 39 48 52 54 60 67 71 64 66 71 71 74 76 69 70 83 83 71 63

GFSSGP_250_rhum_048.txt.gz
RH
7 6 6 5 4 5 5 5 5 6 7 8 8 8 9 9 10 10 9 8 8 8 8 7 7 8 10 11 13 15 16 18 18 19 21 26 28 25 24 26 28 26 26 27 29 34 38 63 71
7 7 8 6 6 6 6 6 5 6 6 7 7 9 12 14 27 23 16 16 12 8 9 10 10 10 12 14 15 16 17 18 18 16 18 19 22 23 25 28 28 28 37 39 69 74 70 82 89
8 7 7 8 7 7 7 7 6 6 6 8 7 9 15 15 32 42 28 19 14 20 18 13 12 14 20 23 28 32 26 21 17 18 19 24 21 22 31 40 32 31 46 75 73 72 88 84 93
8 8 8 8 8 8 8 8 8 8 9 7 9 7 11 17 16 36 28 21 14 11 12 15 18 21 24 26 28 19 22 19 18 18 26 39 33 32 66 64 67 71 61 80 72 73 77 69 64
9 10 9 8 9 9 8 8 9 8 10 8 10 11 14 24 20 15 17 20 46 44 27 25 24 27 20 26 17 23 24 23 23 31 40 58 81 77 76 71 62 78 80 74 68 76 73 71 48
11 11 11 12 11 11 9 8 9 10 11 11 9 17 37 43 38 21 16 16 31 83 96 62 42 45 36 46 34 43 40 29 34 74 68 90 100 100 98 80 91 86 74 74 70 62 53 58 71
13 13 13 13 11 10 10 9 9 10 12 14 13 43 82 57 38 23 23 20 19 37 64 81 100 75 78 48 62 60 65 54 66 71 100 100 92 88 93 75 88 88 90 76 67 66 60 46 48
14 16 21 16 14 14 11 10 9 10 14 14 39 43 50 55 63 34 19 12 14 16 21 32 81 90 81 96 100 100 74 75 96 100 100 100 100 93 91 100 93 78 63 73 72 70 58 50 75
16 20 28 21 17 19 14 15 13 14 16 18 65 91 56 85 63 48 41 28 18 16 46 89 100 100 88 100 100 100 96 76 99 80 100 100 98 100 100 97 88 76 77 96 77 75 100 100 100
18 26 43 36 25 25 19 17 19 24 49 59 98 100 100 100 93 60 29 14 13 14 18 24 75 100 99 100 100 100 100 100 100 100 100 100 100 99 91 81 60 92 99 72 90 100 98 95 81
21 52 81 55 30 24 24 22 28 37 64 80 92 97 100 86 76 60 28 13 12 20 23 58 98 100 100 100 100 100 100 100 100 100 100 100 100 90 98 100 100 100 100 100 100 100 100 61 68
29 72 79 54 34 30 36 59 52 59 100 100 100 100 84 74 63 24 19 21 17 19 55 100 94 100 100 100 100 100 100 100 100 100 100 99 90 75 100 100 100 100 89 97 96 89 80 96 80
56 88 62 67 76 63 70 92 96 98 98 100 100 71 37 76 37 49 48 37 22 37 66 100 100 100 100 100 100 100 100 100 100 100 100 86 100 100 100 100 98 100 100 100 100 100 90 76 83
68 92 89 97 100 100 100 96 100 100 98 90 72 68 67 95 99 93 92 46 42 35 91 99 100 100 100 100 100 100 100 100 98 100 99 100 100 100 100 100 89 82 100 95 98 96 91 94 98
79 89 99 96 81 80 75 78 90 100 100 79 76 93 100 100 100 100 100 97 78 72 77 100 100 100 100 100 100 100 100 100 100 100 100 100 100 100 100 100 100 100 100 92 80 82 84 77 91
98 90 85 80 99 100 100 100 77 97 100 100 89 100 100 100 100 100 100 89 71 98 91 100 100 100 100 100 100 100 100 100 95 100 100 99 88 94 98 92 93 100 92 88 84 88 94 100 98
84 84 81 72 100 100 100 94 92 100 100 100 100 100 100 100 100 100 100 100 100 84 81 99 100 100 100 100 100 100 100 100 100 100 100 100 100 100 99 94 96 96 84 100 100 89 94 90 84
96 100 87 100 100 100 95 99 98 100 100 100 100 100 100 100 100 95 84 92 94 91 72 78 93 99 100 100 100 100 100 100 100 100 100 100 100 100 100 100 97 91 99 93 89 77 66 65 59
100 99 100 100 100 100 95 99 100 100 100 100 100 100 100 100 100 100 100 96 88 95 77 64 76 100 100 100 100 100 99 100 100 100 100 100 100 100 98 91 99 93 90 84 69 59 51 47 50
88 94 92 98 95 99 100 95 87 100 100 100 100 100 100 100 91 91 99 100 100 100 100 100 84 75 73 86 91 91 92 98 100 100 100 100 99 100 100 94 90 92 76 62 43 35 35 38 38
78 92 84 85 98 100 96 98 100 100 100 100 100 100 100 100 100 100 100 100 100 100 100 100 100 100 100 100 98 98 100 100 100 100 97 87 94 95 87 78 55 48 42 34 35 38 42 40 38
99 99 94 96 74 99 91 100 95 100 100 93 84 91 94 88 89 100 100 100 100 100 100 100 100 98 100 100 100 83 95 100 99 97 83 84 81 73 55 42 34 34 36 38 42 43 43 40 37
100 100 100 100 100 90 83 93 100 100 99 99 100 100 99 92 89 90 85 86 94 100 100 99 100 100 100 100 100 100 100 92 76 79 67 62 50 38 31 37 38 40 41 43 45 42 42 46 40
77 100 100 100 100 99 77 70 92 66 95 95 94 92 96 96 100 100 98 100 100 100 99 98 83 90 95 89 80 86 77 65 59 58 61 44 37 42 44 46 46 42 46 46 45 45 45 44 46
71 82 97 98 98 100 100 100 100 77 91 96 95 92 98 100 100 100 94 92 81 78 68 69 68 70 73 60 61 71 66 90 95 63 47 50 53 47 50 46 46 47 42 42 48 55 59 55 61
60 78 98 100 100 100 98 93 98 94 97 96 87 100 100 100 94 73 71 88 83 75 70 65 58 51 54 60 79 81 75 97 99 72 61 55 59 54 46 45 44 46 50 63 70 70 64 65 63
60 60 91 83 85 98 100 90 95 98 98 90 93 96 77 72 73 73 64 61 65 74 71 54 42 67 94 100 100 100 100 100 92 80 82 67 51 49 41 49 62 63 73 79 78 66 59 61 61
60 62 70 85 94 100 100 96 82 96 100 81 91 82 78 93 91 80 75 76 52 47 46 54 84 100 100 88 87 85 97 100 86 65 55 57 47 45 52 59 66 69 65 66 64 60 67 73 76
61 71 75 85 100 99 98 100 99 82 92 100 100 100 100 100 99 90 52 46 46 42 38 42 58 72 71 78 98 100 96 82 58 61 58 51 52 54 57 60 62 59 63 69 62 62 68 72 75
30 75 83 85 94 95 99 100 100 100 100 100 100 100 100 98 75 56 46 43 40 38 40 49 62 66 76 99 100 100 68 55 85 74 61 61 52 55 67 70 62 63 65 60 60 70 76 77 74

GFSSGP_250_rhum_051.txt.gz
RH
7 6 6 7 7 6 5 5 5 5 5 6 7 7 6 8 11 12 11 10 10 10 10 10 10 10 10 11 13 13 13 13 16 19 19 19 21 20 19 19 19 20 20 16 16 18 17 16 21
8 8 7 7 8 8 6 6 6 6 6 6 9 22 23 9 10 10 12 13 11 12 11 10 10 10 11 10 10 12 13 16 20 22 18 17 19 19 20 21 19 17 17 18 18 18 20 27 38
9 9 8 8 8 8 7 7 7 8 7 6 7 8 12 18 28 28 32 20 16 16 12 13 12 12 14 12 11 12 16 18 20 19 17 16 23 18 17 18 18 21 31 22 23 38 58 58 62
10 9 10 9 10 10 9 8 8 8 8 7 6 11 15 61 63 62 52 40 38 42 26 20 26 18 18 18 19 19 21 16 16 18 18 29 28 22 25 22 26 32 34 48 54 54 66 70 55
10 10 10 10 10 11 10 9 10 9 9 8 8 15 22 41 50 29 32 41 63 69 62 46 55 48 36 27 22 24 19 24 22 26 24 27 36 37 34 44 48 55 62 66 79 76 71 89 86
10 10 12 12 11 12 12 10 10 10 9 9 9 14 24 21 23 19 16 32 51 100 100 100 98 79 51 36 36 27 25 25 28 38 39 30 41 52 63 78 92 85 66 81 77 84 74 73 62
10 13 13 14 14 14 16 14 13 10 9 10 11 14 18 22 27 32 22 41 70 77 100 100 100 89 74 73 73 60 61 72 78 63 59 54 74 72 80 76 98 86 75 64 65 62 72 65 75
13 14 14 16 25 27 24 22 17 14 11 11 14 16 15 25 40 58 49 44 81 100 100 100 100 100 92 98 86 100 89 100 100 98 88 73 100 100 100 100 98 78 83 87 100 89 84 72 84
15 15 16 21 40 42 33 24 15 15 27 26 29 23 24 77 76 60 70 70 63 74 76 70 96 86 100 100 100 100 100 100 100 100 100 100 100 99 100 100 100 86 83 82 84 61 68 98 59
17 18 24 46 67 61 41 28 22 20 21 33 72 92 100 100 100 100 100 77 67 42 38 31 85 100 100 86 100 100 100 100 100 100 100 93 100 100 100 100 100 100 86 100 78 100 94 97 100
21 31 45 59 76 53 38 27 25 25 25 44 94 100 100 69 93 100 86 79 79 39 32 66 56 46 58 65 100 100 100 100 100 100 100 99 100 100 100 100 100 100 98 75 98 93 98 100 100
25 43 59 74 55 48 37 40 41 31 48 52 100 100 100 79 94 77 80 64 40 28 22 23 53 53 96 100 100 100 100 100 100 100 100 100 99 100 100 100 100 89 75 70 100 100 94 73 70
35 61 71 58 47 48 52 47 56 46 36 89 100 100 100 63 74 69 66 54 33 21 33 33 55 85 100 100 100 100 100 100 100 100 100 100 100 100 100 99 96 88 100 100 100 97 100 100 95
52 63 95 62 90 100 99 80 38 50 43 64 91 91 94 89 82 77 88 67 39 31 35 43 100 100 100 100 100 100 100 100 100 100 100 100 100 95 100 99 100 100 100 99 100 99 100 91 87
70 81 81 86 83 90 87 83 84 93 94 97 73 64 52 58 84 99 92 78 86 73 45 73 100 100 100 100 100 100 100 100 100 99 100 100 100 100 100 100 100 78 70 80 98 85 89 91 100
69 84 80 82 94 88 85 97 99 100 100 88 79 93 98 100 100 100 100 83 90 96 89 100 100 97 100 100 100 100 100 100 100 100 100 100 100 100 100 100 100 100 100 100 98 100 98 87 91
64 73 88 84 83 77 83 70 77 92 100 92 87 100 100 100 100 100 100 86 100 97 100 100 100 100 100 100 100 100 100 100 100 100 100 100 100 100 96 96 96 71 95 100 100 94 91 87 84
80 94 94 94 82 100 100 86 84 87 100 99 95 100 100 100 100 100 100 95 98 86 86 98 100 100 100 100 100 100 100 100 100 100 100 100 100 100 100 100 100 100 100 100 92 96 95 82 66
72 80 83 84 99 100 100 80 91 100 100 100 100 100 100 100 100 100 78 91 96 89 79 73 69 96 100 100 100 100 100 100 100 100 100 100 100 90 100 100 100 100 94 87 73 76 71 46 37
60 89 100 96 100 100 100 93 84 90 100 100 100 100 100 100 100 98 100 98 100 100 100 92 90 85 72 67 82 90 99 100 100 100 100 98 100 100 100 98 88 97 92 82 68 52 38 39 49
52 82 100 90 82 98 97 96 100 98 100 80 91 100 100 100 100 100 100 100 100 100 100 100 78 64 77 98 99 89 84 89 90 97 94 100 98 90 99 94 83 79 62 53 45 40 42 50 46
55 64 87 100 98 88 93 100 100 100 92 94 88 77 98 100 100 100 100 100 100 100 92 83 96 100 96 92 92 98 96 98 100 88 83 89 100 100 91 87 77 64 54 45 39 42 46 42 45
50 59 79 93 100 95 85 88 100 100 100 100 100 100 99 100 90 82 98 100 100 97 100 86 100 100 100 100 89 100 99 90 99 100 94 82 80 70 66 67 65 58 43 42 39 41 43 44 43
31 60 67 79 99 79 98 86 89 82 78 92 98 94 98 100 100 100 100 93 99 100 100 100 100 100 100 95 96 83 75 78 76 64 71 75 77 67 66 62 61 56 49 42 41 42 43 40 39
28 54 61 79 94 100 95 100 100 88 89 84 74 87 90 86 85 88 99 100 100 100 96 99 100 98 91 88 84 71 64 67 71 84 100 80 70 55 57 53 64 60 59 51 45 43 43 50 57
30 40 66 68 75 96 99 80 94 82 89 93 100 100 100 99 94 92 91 94 95 81 82 84 81 73 78 79 78 71 61 70 88 100 100 99 85 61 60 65 83 60 46 40 46 52 65 72 71
32 35 65 67 84 99 100 92 97 98 100 100 100 99 99 90 98 94 83 84 83 85 80 78 78 75 69 59 61 75 96 100 100 88 92 96 71 50 60 85 69 54 54 51 55 65 75 67 64
37 33 58 72 84 99 100 100 93 100 99 100 100 95 100 98 82 72 87 100 95 80 73 57 60 48 52 73 77 100 93 99 99 100 100 96 67 79 93 90 76 64 55 55 61 64 62 63 65
33 40 36 69 81 95 100 100 100 90 97 99 100 96 99 98 100 95 91 83 78 77 67 54 51 52 61 70 72 100 100 100 100 100 100 96 99 100 91 96 75 59 55 66 74 80 76 73 72
31 40 36 44 79 90 100 96 92 100 100 82 100 99 94 99 94 85 77 78 77 75 64 53 46 50 72 83 100 100 100 100 100 100 100 100 80 82 81 79 72 73 72 71 80 79 79 78 67

GFSSGP_250_rhum_054.txt.gz
RH
12 14 10 8 7 7 7 6 5 5 6 6 7 6 6 6 13 14 12 11 10 10 12 12 11 11 12 13 14 15 17 18 20 21 21 22 22 20 19 21 22 22 21 21 20 20 20 18 17
14 14 9 9 9 8 8 7 5 6 6 7 7 8 7 6 8 22 20 10 14 12 11 13 13 12 12 12 13 15 16 18 18 20 19 19 21 21 19 22 21 19 18 19 21 19 17 16 16
15 14 9 8 9 9 9 8 7 7 7 8 8 8 9 37 23 20 14 24 20 28 12 13 16 13 12 12 12 13 14 16 17 17 17 19 18 19 19 19 17 18 18 27 25 19 17 17 24
19 13 10 9 9 9 10 10 9 8 8 7 9 8 8 10 20 39 29 16 16 43 35 39 19 16 16 14 12 13 15 17 18 16 17 15 17 16 17 19 21 18 24 32 29 35 31 35 38
21 13 11 9 9 12 12 12 11 11 9 9 8 11 12 10 22 39 22 33 40 50 73 82 74 48 27 17 15 17 18 24 23 21 24 25 24 26 22 24 34 31 28 39 44 54 57 58 76
20 13 11 11 12 13 13 13 12 11 11 10 10 11 11 12 22 74 53 54 95 95 93 97 100 100 98 58 45 40 34 40 36 32 32 34 32 29 29 28 36 46 45 58 66 93 89 74 66
19 12 13 14 14 14 15 15 14 13 12 11 11 12 13 16 24 21 24 33 79 100 100 100 100 100 100 100 97 71 62 56 54 52 49 58 66 74 77 69 76 74 67 90 88 85 85 71 74
16 13 16 16 16 16 19 22 18 15 15 13 13 14 17 59 79 76 58 80 82 100 100 100 100 100 100 100 100 100 82 81 81 83 95 99 98 100 76 96 100 82 93 100 100 100 89 84 66
15 14 19 21 22 25 34 36 22 20 18 15 18 17 20 24 66 73 55 65 69 88 100 100 100 100 100 100 100 100 95 100 100 100 100 100 93 91 100 100 100 100 100 100 100 100 100 95 80
14 18 25 29 36 50 57 49 32 28 29 28 26 18 22 24 40 68 86 84 67 49 98 100 100 100 100 100 95 100 100 100 100 100 100 100 100 98 100 99 100 100 100 100 100 100 99 96 82
15 26 34 44 53 69 64 57 46 34 27 45 55 50 49 77 95 99 100 100 91 80 81 100 100 100 100 100 100 100 100 100 100 100 100 100 100 100 100 96 99 100 100 100 100 87 97 100 76
18 33 48 57 61 61 46 52 43 39 40 83 100 100 99 91 94 70 70 82 75 40 52 88 100 87 100 100 100 100 80 93 100 100 100 100 100 100 100 100 100 100 100 100 96 91 96 99 100
22 36 46 57 42 39 39 36 46 39 33 61 100 100 100 71 57 45 65 67 59 60 54 70 93 98 98 63 100 100 100 100 100 100 100 100 100 100 100 100 100 100 100 96 93 97 100 94 95
26 43 53 79 58 65 77 68 53 60 93 94 100 100 90 74 58 64 62 66 72 77 60 63 73 78 98 94 100 100 100 100 100 100 100 100 100 100 100 100 100 100 100 87 100 100 100 91 93
33 46 56 88 94 91 89 79 63 41 38 81 100 98 87 46 43 48 62 81 79 80 70 62 96 100 100 100 100 100 100 100 100 100 100 100 100 100 100 100 100 100 99 100 100 100 100 94 81
37 52 59 82 98 100 100 100 100 100 91 100 100 97 72 55 65 92 99 100 92 92 95 69 63 73 100 100 100 100 100 100 100 100 100 100 100 100 100 100 100 99 99 67 100 100 78 78 88
34 52 66 81 97 92 92 99 99 99 100 96 78 81 68 86 99 100 98 100 74 75 100 100 99 99 94 92 100 100 100 100 100 100 100 100 100 100 100 100 90 90 100 97 100 89 99 98 98
29 52 63 72 82 100 99 81 87 87 100 86 97 98 100 92 100 100 100 99 80 85 100 100 100 100 100 100 100 100 100 100 100 100 100 100 100 99 100 100 100 93 98 100 99 94 100 96 74
26 54 60 81 66 86 100 89 100 100 95 86 100 100 100 100 100 100 100 100 99 83 80 97 92 100 100 100 100 100 100 100 100 100 100 100 100 100 100 100 100 100 99 100 100 87 95 85 74
26 44 56 70 76 74 100 88 83 100 100 89 85 100 100 100 100 100 100 77 100 100 100 89 79 87 93 100 100 100 100 100 100 100 100 100 96 93 100 99 98 100 98 97 87 81 73 70 62
28 37 60 61 72 90 90 88 95 99 100 100 94 87 100 100 100 100 78 96 100 100 100 100 100 94 85 77 80 87 91 91 91 90 87 82 84 81 93 96 100 99 86 80 82 69 60 62 54
34 27 64 61 75 85 98 80 91 90 98 84 74 75 79 100 100 100 100 89 97 100 100 96 70 72 100 100 94 83 71 71 80 93 100 100 100 100 100 99 91 85 72 70 65 60 53 56 54
36 27 57 65 70 84 100 92 83 75 86 99 100 98 75 80 93 100 100 100 100 100 100 100 83 67 70 65 85 94 90 93 94 92 92 96 91 86 78 68 68 69 68 68 57 59 57 51 57
36 30 36 66 62 77 90 80 83 78 77 99 100 100 100 100 85 79 76 70 78 80 76 77 72 79 82 89 100 99 89 81 85 84 76 75 84 83 70 73 70 65 62 66 64 54 66 58 52
34 30 29 59 71 70 86 80 100 98 96 78 87 87 97 86 98 100 100 98 96 86 92 97 100 94 87 79 80 81 74 72 68 70 64 68 78 89 83 69 72 81 70 56 68 70 67 63 63
37 30 32 45 72 70 78 73 100 100 86 96 93 81 69 79 100 98 99 100 100 100 100 100 100 100 97 88 78 76 92 97 89 86 78 77 100 100 100 96 78 60 56 58 63 63 67 66 79
37 31 34 36 59 75 69 70 77 100 99 94 90 85 79 74 78 98 98 100 99 99 98 98 91 82 84 83 85 90 90 100 100 90 100 100 99 100 100 82 77 70 80 73 65 73 74 68 63
42 37 31 39 50 86 82 68 66 87 99 100 100 92 84 70 69 71 66 69 73 66 75 81 81 82 81 59 82 82 87 100 100 100 100 95 100 100 100 100 100 99 78 94 87 73 65 75 74
46 42 37 38 40 64 88 76 64 66 87 100 100 100 99 95 91 86 78 76 71 68 82 77 81 77 69 45 51 59 62 84 98 89 100 100 100 100 100 100 100 98 100 98 79 75 72 75 75
51 42 37 38 46 51 81 96 73 70 81 97 100 100 100 100 82 77 74 79 74 64 68 81 75 64 73 56 50 50 57 65 82 100 100 100 100 100 100 100 100 100 92 74 77 85 84 76 79

GFSSGP_250_rhum_057.txt.gz
RH
19 17 16 13 11 9 8 6 6 5 5 13 26 69 5 4 8 82 100 91 63 14 12 12 22 19 14 12 13 14 14 14 16 17 19 18 19 19 18 16 16 16 16 17 16 17 17 17 16
19 16 14 12 10 9 7 6 6 7 6 87 67 10 7 5 22 85 98 100 85 31 19 15 14 21 23 20 14 14 16 17 18 20 20 19 18 19 18 16 15 15 17 17 18 17 17 17 16
18 17 16 14 10 9 8 8 7 7 7 8 15 8 6 6 6 33 100 82 62 50 25 21 19 20 19 19 18 18 18 22 21 22 22 19 18 18 17 16 17 18 17 18 17 18 18 17 17
22 18 21 17 12 9 9 8 9 8 7 7 7 13 8 7 8 7 47 98 66 48 39 24 32 34 25 20 22 26 25 20 22 19 19 18 17 19 18 17 16 17 17 18 20 21 20 18 22
22 24 26 16 13 10 10 11 11 10 12 9 8 82 100 74 9 9 8 14 24 40 78 55 69 64 45 68 44 37 27 27 29 22 19 19 20 21 24 18 24 23 22 23 26 28 24 28 34
26 29 20 14 11 11 13 14 12 11 100 12 9 90 99 98 14 10 11 16 30 98 93 98 95 94 100 91 85 86 70 45 36 30 27 29 34 40 43 39 34 36 36 31 32 32 29 50 48
35 24 16 13 13 15 18 17 15 29 67 65 29 15 72 23 12 32 17 48 77 100 100 100 100 100 100 100 100 100 99 97 72 67 56 54 63 64 67 62 62 55 56 43 54 59 55 63 86
29 24 15 13 16 21 24 25 22 17 22 96 86 13 14 22 14 26 18 37 37 100 100 100 100 100 100 100 100 100 100 100 100 100 98 90 78 84 88 98 97 99 73 78 63 64 79 80 92
36 21 14 14 22 32 36 35 34 24 22 16 15 15 26 28 33 44 24 33 75 90 100 100 100 100 100 100 100 100 100 100 100 100 100 96 99 97 99 89 93 96 94 100 99 98 100 99 100
34 19 13 21 32 42 53 57 61 41 34 20 23 25 31 48 33 37 33 27 100 82 100 100 100 100 100 100 100 100 100 100 100 100 100 97 100 100 100 100 100 100 89 93 100 100 98 100 100
31 20 16 33 42 56 65 76 67 43 62 62 38 61 37 58 43 38 54 37 37 100 100 100 100 100 100 100 98 100 100 100 100 100 100 100 100 100 100 100 100 100 97 94 98 98 100 100 100
29 19 19 39 49 42 53 69 51 49 92 99 34 60 60 65 74 79 90 99 54 27 74 100 100 99 100 100 100 100 100 100 100 100 100 100 100 100 100 100 100 100 100 100 99 100 98 100 100
29 21 26 46 58 42 44 44 44 42 42 45 46 74 83 79 67 65 43 48 46 38 93 100 94 80 99 81 100 100 100 100 100 100 100 100 91 100 100 100 97 100 100 100 100 100 100 96 84
32 26 32 59 73 83 62 66 55 47 44 90 90 99 100 100 84 67 47 42 58 38 45 66 84 94 82 96 100 100 94 99 100 100 100 100 100 100 100 100 100 100 100 100 100 90 97 100 100
36 29 34 97 81 85 88 100 99 86 90 96 100 100 100 100 78 72 56 44 45 50 70 52 58 62 100 100 100 100 100 100 100 100 100 100 100 100 100 100 100 100 100 100 100 100 94 83 92
41 31 35 96 83 98 85 100 100 69 73 65 100 100 100 84 69 70 65 58 70 66 63 86 93 100 100 100 100 100 100 100 100 100 100 100 100 100 100 100 100 100 100 100 98 100 99 100 99
49 32 32 66 86 90 100 100 100 100 100 100 96 100 91 71 61 72 82 87 75 84 84 67 88 96 96 100 100 100 100 100 100 100 100 100 100 100 100 100 100 99 96 99 99 100 100 100 95
50 36 28 54 59 76 100 86 88 90 100 100 61 79 70 65 84 71 76 95 95 100 88 78 91 90 74 92 100 100 100 100 100 100 100 100 100 100 100 100 98 98 99 97 100 98 85 85 100
55 37 26 55 60 63 88 100 85 85 98 85 88 100 100 86 100 100 92 91 84 100 82 100 100 100 100 100 100 100 100 100 100 100 100 96 100 100 100 98 100 100 100 100 100 100 100 100 100
50 40 26 49 66 59 86 99 100 100 100 100 100 97 100 100 94 100 96 100 94 79 78 98 100 100 92 100 100 100 100 100 100 100 100 100 100 100 100 100 100 100 100 100 100 100 93 100 95
51 39 26 38 70 61 61 93 76 85 100 100 98 86 100 100 100 100 100 100 98 100 100 100 100 94 93 94 100 100 100 100 100 100 100 100 100 100 100 100 100 96 100 100 100 98 93 80 67
59 37 27 27 73 69 60 81 75 96 96 100 100 93 100 100 100 100 100 100 80 73 100 100 100 100 100 100 98 97 82 94 98 100 100 99 98 89 100 99 92 100 100 87 82 68 56 60 54
54 41 26 24 57 76 66 87 100 87 94 89 100 87 95 100 100 100 93 100 100 89 77 100 91 100 90 67 64 61 86 82 66 63 61 60 59 68 85 97 89 80 66 62 64 74 68 64 53
57 44 26 25 34 74 70 74 80 77 84 78 99 97 77 63 72 86 83 96 100 100 100 91 100 86 68 73 54 49 55 76 94 100 100 100 100 85 77 67 64 66 91 81 73 85 70 65 60
66 49 32 28 27 60 77 72 68 64 82 88 99 100 100 100 100 100 97 73 72 71 70 72 70 71 63 68 96 95 84 77 76 77 75 62 62 58 62 69 78 100 100 100 100 100 85 60 56
68 56 38 34 30 34 74 78 77 76 69 78 88 74 85 81 77 72 77 100 97 91 83 86 86 78 84 86 88 86 90 74 68 64 62 59 53 60 73 83 98 99 100 100 100 83 52 48 52
76 62 43 34 34 33 42 69 81 76 80 79 87 96 88 79 75 68 70 84 91 98 100 100 100 100 100 100 94 94 98 71 71 77 72 64 76 74 72 94 100 98 89 99 74 74 71 72 66
84 70 52 32 32 35 33 53 68 88 68 71 68 78 87 85 88 86 92 100 99 99 96 92 90 82 75 76 76 75 74 74 69 81 80 93 100 80 98 100 100 100 92 86 99 100 100 98 94
94 76 62 36 33 35 38 37 38 88 85 74 75 77 81 87 84 83 85 84 76 72 77 90 88 76 72 73 68 66 66 73 68 76 96 100 100 100 100 100 98 91 100 100 100 100 100 93 99
96 76 73 44 34 35 40 46 37 41 91 95 80 69 77 73 91 78 71 70 72 67 70 75 79 76 81 82 78 67 44 67 70 77 67 71 85 89 91 98 100 100 100 99 100 98 99 94 83

GFSSGP_250_rhum_060.txt.gz
RH
37 30 26 23 19 16 13 12 11 9 7 6 7 6 5 6 4 5 6 100 100 100 99 100 100 30 13 12 14 14 14 12 13 13 13 14 14 15 15 15 14 14 12 12 12 13 13 12 12
34 29 25 21 18 14 11 11 8 6 6 6 7 6 6 11 35 10 28 100 100 100 99 100 100 100 30 14 13 15 16 17 17 17 17 18 18 19 18 18 16 15 14 14 13 14 14 15 14
29 26 23 21 17 13 12 10 7 6 7 8 8 8 43 65 90 40 21 100 100 100 100 100 100 100 87 52 18 22 24 23 22 22 23 22 21 18 19 19 18 17 17 17 16 16 16 16 16
27 24 22 20 16 14 11 8 8 7 9 10 10 8 67 100 100 100 19 72 100 99 100 99 96 90 78 69 27 15 24 42 53 44 38 30 23 20 19 20 19 19 19 18 17 16 15 16 16
28 24 23 19 14 12 10 8 8 11 13 12 33 19 99 98 100 95 93 16 100 100 86 100 75 76 99 86 39 28 29 31 39 42 44 42 33 28 24 29 22 19 20 20 18 17 18 18 18
29 27 28 18 14 11 8 9 14 17 60 67 100 100 100 88 78 82 100 17 91 99 93 83 99 100 100 90 95 85 74 65 63 64 60 42 34 32 34 29 25 28 29 28 27 32 30 26 28
40 38 28 18 14 9 9 11 23 29 100 100 100 100 86 85 82 74 81 80 60 98 100 100 100 100 100 100 69 63 78 100 100 100 99 86 87 70 51 52 50 57 48 48 56 50 52 48 45
51 41 24 18 11 10 12 20 59 53 96 100 62 91 100 100 100 99 100 94 63 36 65 100 100 100 100 100 100 100 100 100 100 100 100 100 98 98 94 91 84 79 81 86 90 77 78 69 63
59 38 25 18 12 14 14 25 90 63 83 83 68 66 100 100 97 93 88 84 34 89 89 100 100 100 100 100 100 100 100 100 100 100 100 100 100 100 99 97 100 100 100 99 96 100 91 76 72
51 40 26 20 14 22 19 18 42 50 82 95 89 90 100 100 100 78 66 74 29 75 100 100 100 100 100 93 100 100 100 100 100 100 100 100 100 100 100 100 100 100 96 97 100 98 100 87 75
58 43 28 20 19 32 25 20 41 99 85 100 100 99 100 100 94 84 58 38 35 82 100 100 100 100 100 100 100 100 100 99 100 100 100 100 100 100 100 100 100 100 100 100 94 100 86 94 99
56 44 32 22 20 43 24 19 65 100 100 100 100 100 100 81 18 47 38 28 41 100 100 100 100 100 100 100 100 85 100 100 100 100 100 100 100 100 100 100 99 100 100 95 100 100 88 92 97
66 48 34 25 22 48 33 63 100 87 98 100 100 93 99 91 36 34 26 32 28 98 100 100 100 100 100 100 100 98 100 100 100 100 99 100 100 100 100 100 100 100 100 100 100 97 97 87 86
72 50 39 25 27 54 67 93 100 96 74 58 58 98 89 64 38 43 28 26 28 47 99 100 100 100 100 100 100 100 95 98 100 100 100 100 99 100 100 100 100 100 98 100 100 95 90 96 100
81 52 40 25 25 58 67 100 100 100 100 100 44 58 56 63 57 45 36 21 18 37 87 100 100 94 92 85 100 99 81 98 100 100 100 100 100 100 100 100 100 97 96 99 100 100 100 100 100
91 53 37 24 30 52 63 84 100 98 100 88 49 65 94 82 92 85 55 32 27 66 100 100 100 100 100 100 100 100 100 100 100 100 100 100 100 100 100 100 100 100 100 100 100 100 100 100 100
100 68 36 24 29 55 64 90 96 82 88 86 43 100 100 99 78 72 49 48 41 37 32 46 70 84 100 100 100 100 100 100 100 100 100 100 100 100 100 100 100 100 100 100 100 100 100 100 100
100 58 40 24 24 63 66 62 82 100 89 66 50 100 100 66 60 76 71 78 66 59 54 55 39 43 59 95 100 100 100 100 100 100 100 100 100 100 100 100 100 100 100 100 100 100 98 100 100
100 65 45 26 24 47 69 76 76 70 100 94 84 66 74 68 72 67 81 78 72 78 77 74 86 81 90 89 90 100 100 100 100 100 100 100 100 100 100 100 99 100 98 100 100 97 100 100 100
100 74 50 26 26 28 61 69 69 68 100 85 100 83 91 84 74 73 83 74 64 62 76 87 76 69 76 79 85 86 93 99 100 100 100 100 100 100 100 100 100 100 100 94 100 98 99 97 100
100 86 52 29 24 25 59 68 66 73 68 95 100 97 92 95 98 100 82 85 70 74 68 66 71 72 78 91 82 82 97 100 100 100 100 100 100 100 100 100 100 100 100 100 100 100 100 100 98
100 99 55 34 28 24 35 73 67 68 67 98 81 100 92 100 98 100 90 99 100 100 100 97 100 100 98 94 81 83 89 100 100 100 100 99 100 100 100 100 100 100 100 100 100 95 100 98 83
100 100 57 45 34 27 26 57 73 73 79 85 81 100 70 100 100 100 100 100 100 100 100 93 100 100 100 100 100 98 100 100 100 99 99 99 97 99 99 95 100 100 100 100 99 91 78 64 70
100 100 71 55 38 29 27 39 69 78 61 68 75 83 99 79 100 99 98 100 100 100 92 93 75 82 100 100 100 100 77 70 68 52 53 71 91 88 87 100 100 99 95 83 64 68 85 59 56
92 100 88 62 44 32 26 30 46 87 69 62 67 79 85 68 75 89 80 72 79 77 79 94 95 98 74 76 83 92 86 60 70 75 75 100 98 93 90 86 75 68 59 59 59 69 72 62 84
68 100 100 67 54 39 30 27 41 85 72 69 66 64 92 90 100 100 100 100 89 80 66 65 69 63 60 65 65 66 68 60 74 95 58 83 100 99 64 77 58 57 56 57 66 71 92 100 99
66 100 100 72 66 53 34 31 28 45 79 91 77 64 72 60 76 81 70 74 75 75 98 86 88 93 100 95 86 98 97 100 96 76 64 62 75 89 90 71 58 54 60 58 54 56 57 77 100
63 100 100 84 82 58 39 31 31 34 50 74 87 86 74 74 70 61 58 59 68 83 95 94 84 80 77 77 74 76 97 83 64 66 100 77 90 84 64 68 81 81 84 90 89 97 100 100 100
74 100 100 92 91 64 53 36 31 40 41 42 73 98 94 85 78 77 70 69 74 76 75 78 74 69 63 57 59 65 63 57 70 100 100 100 99 89 82 72 89 100 100 100 100 100 100 99 100
76 100 100 100 95 71 66 41 36 32 34 38 36 66 82 82 81 78 76 71 82 83 93 100 90 80 71 59 76 99 100 96 77 95 80 74 66 65 77 75 82 78 89 97 100 97 100 92 100

GFSSGP_250_rhum_063.txt.gz
RH
62 50 43 36 33 31 23 18 16 15 12 11 9 8 7 5 6 6 8 12 13 22 85 100 100 96 90 100 100 63 31 15 12 12 16 15 16 15 14 15 15 15 12 12 11 10 10 10 10
50 44 38 32 30 24 20 17 15 12 10 9 8 6 5 5 6 26 14 25 28 47 87 96 96 84 99 100 100 100 100 99 43 13 12 14 16 20 21 20 20 20 18 16 13 12 12 12 11
44 40 33 26 26 21 18 14 13 10 8 7 7 6 8 8 15 84 100 100 96 100 100 100 100 100 98 100 98 82 95 100 74 21 14 14 18 21 23 23 22 21 20 20 18 16 16 14 14
38 35 28 25 21 22 18 14 10 8 7 7 8 10 9 78 100 100 93 100 100 100 99 100 80 74 100 100 100 100 100 100 96 73 18 14 17 21 23 24 22 22 22 18 19 19 19 18 17
32 32 30 32 26 22 16 11 8 9 9 13 12 11 22 85 94 56 84 100 100 100 90 69 70 99 100 100 100 100 98 88 64 66 57 26 24 36 38 38 34 30 30 32 28 25 21 26 22
35 38 31 28 24 19 12 11 14 15 34 96 43 19 47 100 100 61 80 100 100 90 89 92 91 83 96 92 98 99 74 76 99 77 66 39 23 34 37 47 43 47 49 44 41 36 31 29 25
68 64 34 31 22 16 12 12 20 36 93 100 78 85 64 100 100 99 94 100 100 100 100 78 99 100 100 100 93 86 90 92 78 100 100 100 96 100 82 90 78 74 66 55 54 53 42 38 38
100 48 32 28 23 16 13 18 67 99 72 100 100 100 88 74 90 100 74 86 100 100 100 77 100 100 100 100 100 94 100 69 71 100 100 100 100 100 100 100 100 98 99 90 81 77 76 67 59
46 44 38 29 22 14 17 20 63 100 73 84 97 100 90 78 92 66 79 86 100 99 100 100 100 100 100 100 100 100 100 93 81 100 100 100 100 100 100 100 100 93 94 86 100 100 100 100 96
100 51 46 34 20 16 20 15 35 94 89 97 100 100 100 100 86 78 73 90 99 100 86 100 100 100 96 100 100 100 100 100 99 100 100 100 100 100 100 100 100 100 100 92 96 98 95 83 82
49 65 48 31 19 24 21 92 91 100 88 100 100 100 99 83 96 94 89 63 99 73 99 100 100 100 100 99 89 99 100 100 100 86 98 100 89 99 99 100 100 100 100 87 81 76 66 68 78
63 59 45 36 20 38 53 100 100 80 100 82 86 90 97 87 83 95 60 75 87 90 52 98 100 100 100 100 100 100 97 80 100 86 100 100 100 100 100 97 96 94 100 85 82 74 93 88 68
98 53 53 44 21 24 47 99 99 100 91 100 95 100 88 62 65 73 82 94 80 80 79 44 100 100 100 100 100 100 100 100 100 100 100 100 97 100 98 86 100 100 100 96 100 100 91 81 88
61 52 76 49 23 24 36 80 89 100 100 99 100 93 58 44 47 58 50 48 44 61 67 70 56 100 100 100 100 100 100 100 99 100 100 100 88 90 76 94 100 100 100 100 99 95 81 89 94
50 63 99 61 27 24 68 55 66 66 67 96 100 100 87 56 82 75 61 35 19 62 76 57 99 100 100 100 100 100 100 100 100 100 100 96 60 79 78 82 79 100 100 100 100 94 89 100 100
47 76 100 81 32 23 61 93 45 46 92 100 100 100 95 45 81 73 33 38 34 31 55 74 100 100 100 100 100 100 100 100 100 86 98 92 88 99 100 100 89 86 92 90 100 100 100 100 100
42 96 100 100 34 22 26 69 67 68 93 100 100 100 100 59 100 97 74 46 41 35 38 70 100 100 100 100 100 100 100 100 100 99 100 100 100 100 97 100 100 100 100 100 100 100 100 98 100
39 100 100 100 40 25 23 45 77 76 81 90 78 80 67 43 79 94 100 69 47 60 49 45 60 96 100 100 100 100 100 98 100 100 100 100 100 100 100 100 100 100 100 100 100 100 100 94 99
48 100 100 100 70 36 30 24 43 63 97 100 100 100 68 64 78 77 95 83 72 80 82 72 67 78 90 100 100 100 100 100 100 100 100 100 100 100 100 100 100 100 100 100 100 100 97 92 92
58 85 100 100 85 40 32 24 39 43 61 100 100 99 85 60 76 85 90 78 85 81 57 42 48 62 73 87 98 100 100 100 100 100 100 99 98 100 100 100 100 100 100 100 100 100 100 99 100
28 46 100 100 96 42 37 26 24 41 48 83 96 96 100 66 100 78 70 55 60 55 48 44 33 33 37 45 73 71 78 83 78 77 87 95 90 95 100 100 100 100 100 100 100 92 94 100 99
25 41 100 100 100 59 41 27 26 36 55 57 61 62 77 78 75 98 100 96 66 80 76 54 55 44 36 32 33 37 48 65 65 85 100 99 93 98 97 83 83 75 84 95 99 98 100 100 100
28 65 100 100 100 90 40 35 30 30 52 63 66 82 93 100 86 100 95 88 100 100 100 100 78 69 90 78 85 72 73 65 69 84 78 82 99 100 100 100 100 100 100 100 100 100 100 100 100
28 62 100 100 100 99 49 42 34 27 30 63 52 73 83 100 100 89 100 100 55 90 100 100 100 100 100 100 100 100 100 100 97 85 97 98 89 86 66 63 82 97 100 100 100 96 88 78 65
27 49 100 99 100 100 69 40 36 29 26 46 56 52 86 96 100 72 98 95 100 100 100 91 88 82 97 92 82 92 94 100 99 100 79 73 65 49 54 67 72 80 82 77 66 61 62 69 66
28 37 100 100 77 100 90 45 46 37 30 27 50 56 61 64 65 62 66 95 98 82 73 72 73 88 56 61 67 75 74 67 64 63 58 47 59 67 66 80 92 75 66 60 66 64 65 68 87
35 53 100 100 83 100 96 52 52 41 32 30 30 51 67 74 72 74 80 81 81 62 76 55 59 58 60 59 58 53 46 48 51 47 56 62 92 99 78 100 100 100 97 76 65 55 70 70 73
47 33 83 100 74 100 100 65 62 47 38 29 33 33 39 52 65 72 64 62 59 61 63 62 60 57 50 49 57 54 49 45 51 50 64 73 100 99 100 100 100 100 86 84 92 94 82 94 97
58 39 70 71 73 100 100 99 67 55 45 33 30 39 38 37 34 48 63 72 59 54 56 54 40 54 73 65 58 53 80 100 90 98 100 100 100 100 100 100 100 100 95 89 71 74 84 89 88
55 42 57 100 64 100 100 100 69 65 50 38 34 44 48 36 40 50 56 67 84 78 69 43 87 100 96 97 100 100 98 96 77 100 100 100 100 96 100 100 100 85 70 61 62 77 81 60 48

GFSSGP_250_rhum_066.txt.gz
RH
65 53 50 46 44 41 36 31 23 18 14 15 16 14 13 12 10 10 9 10 8 8 15 34 34 22 74 100 100 100 100 100 100 100 72 19 13 12 14 23 41 20 20 18 15 14 13 14 13
54 42 36 31 34 31 29 24 20 16 14 13 12 10 9 9 9 9 10 19 21 9 16 48 52 61 100 100 86 100 100 100 100 100 100 96 55 20 19 47 83 34 28 28 19 17 17 17 15
47 33 33 33 33 29 24 21 18 16 13 11 8 8 8 7 7 7 27 21 17 13 42 88 97 92 100 94 92 100 100 94 83 94 94 100 100 91 48 29 25 16 15 22 20 20 20 21 20
29 38 43 41 32 27 23 18 17 14 11 9 7 6 6 6 7 9 29 45 20 26 33 100 100 88 100 100 86 100 93 93 90 90 88 98 100 99 95 79 48 16 14 16 18 19 21 25 24
27 86 72 36 44 26 23 23 19 13 9 9 8 8 8 8 8 52 100 91 83 72 97 100 100 100 100 99 100 100 100 99 76 90 100 99 95 95 87 85 47 20 16 15 18 20 22 25 27
30 69 55 44 37 27 25 22 14 11 16 21 15 15 14 16 13 100 100 100 100 100 100 100 99 100 95 88 99 100 100 71 83 86 80 76 74 67 75 88 73 38 21 21 26 34 45 48 39
31 50 44 52 60 32 26 14 14 20 73 94 51 21 17 22 64 100 100 100 100 99 100 100 100 100 100 100 70 77 82 100 72 79 68 66 100 100 93 71 86 74 66 67 56 53 57 66 51
21 31 49 82 41 34 21 15 14 24 100 100 60 76 59 92 94 100 100 100 85 100 100 100 100 100 100 100 100 100 100 94 100 100 99 91 99 100 100 100 100 100 100 100 90 87 82 89 92
21 54 89 31 40 27 17 20 17 58 100 100 92 69 53 100 92 94 100 100 100 100 100 100 100 84 100 100 100 100 100 100 99 100 74 100 92 80 99 100 100 100 100 98 96 96 93 68 66
23 31 57 36 40 31 20 55 27 51 100 100 100 81 61 73 87 82 91 100 100 100 97 100 100 94 99 100 100 87 100 100 100 100 86 94 100 91 78 78 94 98 99 100 100 91 66 47 56
25 39 70 43 63 37 35 100 54 99 100 100 100 94 55 67 90 81 100 100 100 100 100 93 99 100 100 100 100 100 100 100 100 100 66 100 100 100 90 83 68 70 55 49 44 40 46 61 88
30 45 48 42 77 49 20 90 86 99 100 91 91 81 68 75 98 100 96 98 100 97 100 100 100 99 100 100 100 99 100 100 100 100 97 100 100 99 90 68 64 62 43 47 53 72 84 73 87
36 27 34 46 75 62 21 24 100 72 100 100 100 100 74 52 55 65 68 71 88 88 86 99 100 83 96 100 100 100 100 100 100 100 100 100 91 87 55 45 54 76 49 54 70 84 91 100 100
32 27 33 46 91 66 22 21 38 100 57 65 68 82 70 50 35 34 38 41 55 77 93 95 100 69 91 100 100 100 100 100 85 100 100 100 100 100 100 87 61 69 70 61 64 100 100 99 95
37 30 26 39 99 82 31 25 26 58 96 60 58 38 32 35 26 34 39 55 56 79 85 82 100 100 88 100 100 100 100 100 100 100 100 100 98 100 100 100 97 64 67 63 77 86 97 99 100
47 33 25 28 58 92 58 31 26 49 66 86 78 58 37 38 42 43 38 50 61 62 57 91 77 100 100 100 100 100 100 100 100 90 100 100 100 100 100 100 100 96 84 76 86 86 70 73 68
63 36 26 33 38 85 79 34 29 37 65 61 84 84 63 71 59 47 31 37 38 44 53 57 63 77 91 100 100 100 100 100 100 100 100 100 100 100 100 100 100 100 94 98 100 98 77 99 99
64 48 29 26 54 79 97 36 28 25 62 79 64 93 82 69 61 62 48 57 45 41 32 33 37 51 100 100 100 100 100 100 100 98 100 100 100 100 100 100 100 100 100 100 100 100 96 96 100
72 48 37 24 35 54 95 42 28 25 38 84 100 92 92 61 79 61 40 66 87 80 76 69 58 65 64 100 100 100 100 100 100 100 100 100 100 100 80 86 100 100 100 98 94 86 100 100 100
80 66 42 31 45 34 70 66 33 32 26 48 58 75 84 88 65 70 37 62 84 88 99 100 99 90 81 100 100 100 100 100 100 100 100 100 100 100 100 100 100 100 100 100 100 100 94 100 100
92 76 45 33 46 39 69 86 48 32 26 42 53 62 77 71 77 70 52 48 49 68 69 61 52 47 41 57 81 96 98 100 100 100 100 100 100 100 100 100 100 99 97 99 96 100 100 100 100
99 73 39 34 38 44 36 64 77 31 30 29 53 62 65 71 72 60 65 86 65 58 58 57 60 47 53 56 52 68 84 89 95 100 100 100 100 98 98 96 97 93 88 94 98 92 98 100 99
100 76 52 31 35 37 28 58 92 38 37 34 38 55 68 83 78 72 78 95 81 49 80 89 100 93 65 83 90 77 71 84 85 88 82 82 83 80 74 70 75 85 100 100 88 89 95 88 100
98 87 61 36 33 31 37 40 95 72 36 32 34 40 52 68 92 67 90 96 95 67 63 88 100 100 100 100 94 86 87 95 97 94 91 83 72 80 91 98 99 86 86 78 74 82 86 98 95
100 95 72 40 33 37 30 43 83 87 33 34 31 30 43 59 88 58 78 92 100 98 56 76 99 100 100 93 84 97 87 95 97 95 94 97 96 89 88 81 70 64 60 64 59 65 76 79 69
100 87 76 48 34 30 32 48 76 92 38 37 35 32 34 41 59 86 100 80 82 99 94 67 65 66 88 65 100 98 95 91 76 64 70 65 63 54 53 54 63 72 62 47 46 53 53 52 48
100 100 82 55 38 33 38 45 71 100 55 41 38 32 32 42 44 54 52 61 84 97 94 93 70 70 52 50 52 64 58 43 44 44 45 46 46 49 67 82 71 56 65 64 52 42 56 65 85
100 100 94 62 43 38 50 43 60 97 96 41 42 37 34 35 38 58 66 62 70 72 70 76 76 70 68 64 61 56 53 53 68 62 69 79 96 91 86 100 95 87 86 75 62 54 77 96 97
100 100 100 76 52 56 41 47 44 67 100 63 44 42 37 32 36 42 45 59 54 51 56 51 51 50 74 93 98 100 100 100 99 85 86 100 100 100 100 100 100 100 100 100 100 98 100 100 100
90 91 86 70 62 46 39 46 54 64 100 87 51 49 43 36 37 43 40 40 46 47 50 51 61 78 100 99 69 65 100 100 100 78 100 100 96 100 100 100 100 100 100 100 100 100 100 100 100

GFSSGP_250_rhum_069.txt.gz
RH
49 55 71 55 56 53 42 34 25 22 21 22 21 17 15 13 14 14 12 12 14 13 11 11 12 15 15 21 31 37 44 74 31 36 47 49 54 40 35 32 30 32 37 74 82 63 30 22 31
74 78 63 64 56 35 24 24 26 21 19 18 20 16 13 14 13 11 10 10 10 12 10 10 10 16 16 23 40 69 99 100 100 100 100 100 100 100 100 84 64 35 20 16 30 29 22 22 24
77 70 57 43 30 25 23 39 27 21 19 18 15 13 12 9 8 8 8 8 9 11 11 10 11 11 16 18 49 67 100 100 100 100 100 99 84 87 96 100 97 89 68 48 22 14 13 15 31
75 60 39 19 19 18 31 36 24 21 18 18 13 9 7 7 7 6 6 8 8 11 13 27 20 38 36 35 100 100 97 100 100 97 85 71 63 78 81 72 80 92 97 96 76 39 25 20 23
51 32 22 16 18 20 35 31 22 16 18 15 12 10 7 7 6 6 7 7 9 8 13 34 51 88 97 100 100 68 78 72 100 79 89 81 69 75 96 94 82 80 84 87 86 74 61 48 31
29 22 19 17 16 20 26 34 21 22 18 12 13 10 8 11 10 8 9 11 30 51 31 86 100 100 100 89 88 98 84 95 98 87 83 76 95 70 71 73 78 88 88 87 81 80 60 38 30
33 30 19 17 17 26 33 22 25 18 12 14 24 33 21 26 11 13 90 66 63 53 100 100 100 100 99 100 100 99 88 66 95 100 100 100 94 72 64 60 58 66 91 100 94 83 89 77 68
30 27 21 18 19 30 28 27 25 14 20 21 70 89 54 26 18 100 100 99 100 100 100 100 100 100 100 100 98 100 100 100 100 100 100 100 94 92 71 71 73 57 64 88 94 67 78 67 74
31 25 19 23 22 34 32 27 30 20 44 41 100 100 65 27 64 100 100 100 100 100 100 100 100 100 91 100 100 100 100 100 100 100 100 100 100 93 98 95 66 64 56 68 65 49 48 51 50
37 28 24 25 25 36 33 41 23 21 48 46 100 100 70 58 96 100 100 100 100 100 100 100 100 93 100 100 100 100 100 100 100 100 100 100 100 100 100 82 65 48 47 44 42 40 41 39 38
33 29 30 30 28 38 42 54 20 23 64 67 100 100 83 61 84 100 100 100 100 100 100 100 100 100 100 100 100 100 100 100 100 100 100 100 100 100 100 81 62 47 41 34 39 26 29 28 31
38 37 43 34 28 32 40 70 23 21 79 80 100 100 97 55 81 100 100 100 100 100 100 100 99 100 100 100 100 100 100 100 99 100 100 100 100 100 100 70 49 90 65 40 39 36 31 28 32
44 58 52 37 34 28 46 50 37 22 79 100 96 100 100 96 49 82 100 92 100 100 100 98 90 100 100 100 100 100 100 100 100 100 100 93 98 96 95 78 72 62 59 67 60 48 38 35 48
58 56 60 40 34 26 51 49 64 30 25 78 100 100 100 72 77 50 80 100 77 99 98 98 96 100 100 100 100 100 100 100 100 100 100 100 100 100 100 100 100 100 98 80 58 64 51 52 68
61 65 70 37 31 28 38 61 60 51 23 22 64 83 94 77 76 63 66 92 99 84 81 86 89 100 98 100 96 100 100 100 100 100 100 99 94 98 100 100 99 98 98 99 99 95 94 89 90
51 81 82 44 34 33 28 33 66 70 26 20 26 72 96 70 69 56 46 50 89 98 93 68 80 85 100 100 100 100 99 100 100 100 100 100 100 99 99 99 100 100 100 96 80 83 92 100 84
55 87 86 55 44 37 29 28 59 84 31 24 24 41 63 58 48 47 45 31 33 76 84 82 59 57 76 100 100 100 100 100 100 100 100 97 99 100 100 100 100 100 99 100 100 100 100 100 92
55 99 93 78 52 41 30 27 78 93 43 25 25 38 86 86 66 55 43 31 35 38 50 64 82 63 80 100 100 100 100 96 97 100 97 66 85 100 100 100 100 100 100 100 100 100 100 100 98
100 100 100 84 58 38 33 26 57 79 46 26 21 39 55 93 100 72 52 44 45 55 51 54 61 82 75 97 100 100 100 100 100 100 100 100 100 99 100 100 100 100 99 77 86 92 100 99 98
90 94 100 90 60 44 36 30 45 52 30 31 25 29 46 55 63 55 55 54 39 51 51 67 72 83 93 100 100 100 100 100 100 100 100 100 100 100 100 100 100 100 97 100 100 100 100 100 100
100 99 100 94 66 48 38 33 44 52 34 45 28 24 45 57 59 64 57 58 47 52 68 62 62 74 78 93 100 100 100 100 100 100 100 100 100 100 100 100 100 88 100 100 100 100 100 100 100
98 88 100 87 86 62 45 36 30 63 44 39 34 26 32 56 50 80 69 69 60 40 50 67 68 53 50 76 75 85 82 79 86 73 81 82 100 100 100 98 93 89 98 100 100 100 100 100 100
100 68 100 96 94 84 50 35 29 63 50 37 37 27 28 44 54 69 65 83 98 78 70 64 66 61 51 40 37 40 45 51 55 74 84 92 100 92 90 95 100 92 100 97 100 96 92 90 93
84 66 86 99 99 99 52 37 32 37 87 54 37 29 28 34 52 54 61 78 98 86 76 82 75 62 56 45 52 44 49 75 65 72 82 89 86 88 95 100 100 100 99 96 91 79 72 67 64
100 100 91 100 85 100 78 42 34 32 90 59 36 33 30 28 42 56 48 52 70 90 83 59 67 82 90 91 98 100 95 85 80 85 83 71 82 88 93 87 80 76 70 66 76 72 70 63 63
65 52 100 100 74 95 98 50 34 35 58 70 54 34 31 35 35 41 62 71 63 71 86 80 64 65 82 100 90 61 58 49 51 63 68 65 60 58 57 60 63 64 95 100 83 63 61 50 52
59 82 100 100 94 81 97 59 41 36 57 62 77 44 35 35 37 34 33 57 59 84 77 100 100 96 60 59 62 76 63 52 52 55 58 67 80 76 68 81 90 89 72 56 55 50 30 29 30
61 62 79 94 100 97 100 79 51 39 41 47 85 72 51 45 38 32 34 36 44 59 65 91 90 90 95 80 70 72 70 64 65 68 75 99 77 85 70 66 87 82 74 70 49 54 57 55 59
86 85 97 99 91 100 94 80 65 45 36 52 73 88 65 49 43 39 32 31 35 50 60 63 76 83 81 77 77 98 100 100 100 100 100 100 96 99 98 100 100 100 100 100 92 99 75 91 98
95 82 74 79 97 100 87 100 72 62 39 39 64 84 80 54 50 42 40 30 27 31 60 81 88 85 69 72 99 100 100 100 100 100 100 100 100 90 98 100 100 100 100 100 85 100 100 100 100

GFSSGP_250_rhum_072.txt.gz
RH
64 61 59 44 56 62 56 47 45 25 23 24 22 18 18 17 14 14 11 10 11 12 12 13 13 12 15 15 17 14 22 59 47 43 28 33 26 26 28 25 22 25 33 36 32 33 32 29 36
56 56 46 53 55 62 57 49 30 17 17 17 17 17 16 15 13 11 12 11 12 11 10 12 13 17 15 22 15 15 17 19 44 54 60 44 49 50 44 43 51 44 36 39 46 39 31 28 27
44 43 46 57 54 36 30 24 16 15 15 15 15 13 12 12 10 9 10 9 9 8 8 10 66 42 64 67 32 19 17 16 53 58 95 64 90 100 100 97 99 88 88 75 71 62 51 50 40
67 66 55 50 35 25 20 17 16 15 14 16 16 12 13 10 8 8 7 7 7 8 8 18 58 86 100 45 17 27 46 20 73 94 81 100 100 100 100 88 88 96 94 70 71 72 72 58 56
88 82 65 37 38 31 22 19 17 16 17 17 14 13 12 8 9 9 9 8 7 7 11 27 89 100 97 95 38 40 66 56 100 100 100 99 100 100 100 94 92 80 71 87 92 88 78 79 77
87 55 45 41 35 27 20 16 15 17 24 14 13 13 13 19 26 25 13 11 9 11 11 23 69 100 100 100 100 96 100 100 100 99 100 96 100 100 96 88 76 64 57 60 65 69 65 60 83
66 44 39 40 22 19 20 18 20 28 27 16 11 18 20 53 50 33 19 14 20 43 18 28 79 100 100 100 100 100 100 100 100 100 100 92 100 100 100 92 85 82 57 41 47 47 35 41 47
66 58 58 37 32 30 26 22 29 30 27 15 11 24 38 63 62 62 40 33 57 61 97 96 100 100 100 100 100 100 97 100 81 76 70 100 100 100 100 98 87 86 60 48 33 42 31 28 34
66 67 60 41 28 31 27 24 31 35 25 15 12 33 62 73 70 66 64 100 100 100 100 100 100 100 100 100 100 100 100 100 100 100 97 78 80 100 100 100 100 98 69 59 48 44 27 34 26
79 70 57 42 33 33 24 24 38 33 29 17 13 44 57 96 87 88 98 100 100 100 100 100 100 100 90 100 100 100 100 100 99 100 85 76 100 100 100 100 100 100 72 60 51 42 29 26 29
82 72 41 33 36 30 24 24 38 32 42 21 15 36 61 98 100 96 100 100 100 100 100 100 100 100 100 100 100 100 100 100 100 100 71 100 100 100 100 100 87 100 86 76 54 42 31 27 28
78 59 52 41 35 32 23 26 35 38 43 24 23 18 54 89 100 98 100 100 100 100 100 100 100 95 100 98 100 88 100 93 100 100 100 100 100 100 100 94 100 100 91 55 51 43 43 40 33
86 77 57 51 51 34 24 28 31 50 49 37 24 19 33 64 97 100 95 100 100 100 100 100 100 100 92 100 100 100 100 100 100 100 98 90 100 100 100 100 100 98 79 59 58 53 64 42 42
86 86 71 59 62 47 33 30 29 53 49 45 25 21 20 74 66 79 96 97 100 96 100 100 100 100 100 100 100 100 100 100 100 100 100 100 100 100 100 100 99 87 95 95 100 67 76 56 77
100 96 80 59 66 48 36 29 30 52 46 46 31 21 20 29 73 93 59 69 94 100 100 100 100 100 100 100 100 97 100 99 100 100 100 100 100 100 100 100 100 100 91 100 99 99 100 83 79
100 100 79 52 76 58 47 23 30 34 41 37 36 22 20 21 48 81 87 69 67 90 100 100 100 100 100 100 100 100 100 100 100 100 100 99 100 98 100 100 100 100 100 100 96 100 91 98 93
96 84 68 54 84 70 51 26 30 33 32 36 54 32 22 20 30 51 63 54 57 66 80 100 100 100 100 100 100 100 99 100 100 100 100 100 100 84 100 100 100 100 100 98 100 100 88 87 90
52 58 55 79 65 86 64 35 28 34 30 32 55 46 26 22 31 47 66 58 55 49 56 93 100 100 98 100 100 100 97 100 100 100 100 100 100 100 100 100 100 100 94 89 83 98 95 99 91
73 67 59 66 74 99 75 46 31 33 32 37 66 56 28 22 25 45 52 54 48 44 44 46 80 99 94 96 94 100 100 100 100 100 100 99 100 100 100 100 97 100 100 100 100 100 100 100 100
79 58 85 95 84 100 92 68 57 37 33 30 45 67 33 24 24 43 51 61 57 53 41 34 38 75 91 81 80 87 99 100 88 99 100 100 100 100 95 100 100 100 100 100 99 100 100 100 100
92 55 65 90 67 100 90 93 75 42 32 34 46 77 39 26 26 48 57 61 67 46 43 59 70 65 91 92 86 80 75 83 100 100 100 100 100 100 100 100 100 100 100 100 100 100 100 96 98
88 62 57 73 79 95 95 98 88 53 36 34 39 65 53 28 24 46 63 86 93 64 46 52 74 75 70 88 92 87 70 78 90 93 100 100 100 100 100 100 97 96 97 90 100 100 100 91 100
100 68 46 46 70 88 61 99 86 88 44 33 35 54 76 31 27 38 50 76 100 100 96 63 62 64 69 61 71 73 84 100 100 96 98 100 100 100 100 100 98 92 100 99 96 100 100 100 94
92 66 58 58 52 88 86 100 87 84 50 35 39 62 75 36 32 29 45 57 67 100 100 96 76 68 66 66 64 66 84 91 89 94 96 98 100 99 99 100 96 98 100 100 100 100 100 100 100
98 90 69 70 60 93 57 100 93 100 63 39 40 57 50 59 33 31 35 53 60 81 93 99 100 88 92 74 62 63 63 74 82 82 81 81 80 89 86 78 84 88 90 92 89 81 82 77 71
90 80 42 80 62 49 58 100 100 100 86 47 39 57 46 72 50 33 32 34 43 57 59 76 71 83 98 100 96 86 91 95 87 86 83 77 83 88 78 71 66 58 57 55 58 59 82 73 60
100 91 77 70 65 62 100 100 100 100 100 56 42 52 58 67 77 36 34 34 37 50 59 63 61 58 71 69 95 100 100 92 67 78 71 61 54 50 50 50 47 61 72 72 71 80 66 49 40
71 86 90 74 75 80 78 100 100 98 100 71 47 44 53 64 93 50 32 37 35 35 47 63 69 68 79 64 65 78 67 63 87 64 60 73 70 63 61 67 82 98 90 83 71 57 45 64 86
100 100 100 100 82 67 78 97 100 99 100 98 58 50 44 52 71 82 35 33 37 34 32 42 63 74 92 94 67 75 85 80 71 74 69 74 98 100 100 100 100 100 71 56 95 85 60 66 84
100 100 100 92 93 78 87 100 100 100 100 100 72 65 52 45 77 90 73 28 34 35 36 33 40 62 81 85 97 91 81 78 70 70 75 84 97 91 77 100 100 79 85 90 94 100 100 100 100

GFSSGP_250_rhum_075.txt.gz
RH
20 25 37 35 46 36 36 36 46 48 39 31 27 21 18 15 12 12 11 10 9 9 10 11 15 16 12 13 15 14 20 23 28 33 32 35 40 41 37 40 48 38 34 25 20 20 36 54 76
15 17 21 46 36 54 66 60 37 28 24 20 19 19 15 13 12 11 10 9 19 10 10 11 10 16 31 14 15 15 17 20 26 31 27 27 31 52 79 72 64 51 40 33 28 25 22 29 32
14 15 35 48 62 91 61 36 33 32 27 20 17 15 14 12 11 11 10 9 11 11 15 31 31 39 81 34 49 39 47 19 24 27 25 31 32 46 69 69 70 76 61 42 41 30 35 29 36
14 22 48 58 85 69 47 39 31 22 20 15 13 13 11 12 12 11 10 8 8 22 9 49 38 58 92 57 41 77 90 64 40 25 23 48 59 37 68 100 98 80 80 74 74 74 48 45 63
13 19 34 91 100 60 40 32 23 21 18 14 14 12 15 15 12 12 14 10 10 10 48 59 59 54 27 54 100 99 83 88 95 58 24 21 22 99 99 100 100 75 100 97 97 90 80 75 77
14 24 60 67 60 53 37 33 32 25 15 16 16 18 16 12 10 23 16 21 15 11 49 92 96 42 24 67 100 73 76 100 100 98 75 55 100 79 100 100 100 100 100 88 82 62 45 50 39
33 48 52 59 52 57 48 31 22 17 14 20 19 17 13 10 24 50 41 45 19 49 59 97 100 99 69 69 90 90 44 90 100 100 100 100 98 99 100 100 100 100 88 78 71 58 34 31 32
54 55 61 58 62 54 45 25 20 17 17 22 19 17 14 15 52 76 70 65 54 68 92 100 100 100 100 100 100 94 32 100 100 100 100 100 100 100 100 100 100 100 100 76 63 52 34 31 30
63 62 65 75 73 55 36 28 24 20 21 29 23 20 16 25 64 88 97 92 73 99 88 100 100 100 100 100 100 85 78 65 96 100 100 100 100 100 100 100 100 100 100 93 71 52 56 29 27
60 67 85 80 54 43 40 33 24 24 25 30 21 20 15 22 72 100 100 100 100 100 93 100 100 100 100 100 99 81 96 87 100 100 100 100 100 100 100 100 99 99 99 97 93 48 46 33 36
42 84 88 76 61 55 50 48 21 25 26 28 27 23 17 16 58 100 97 100 100 100 100 100 100 100 100 100 98 100 98 100 100 100 100 100 100 100 100 100 100 86 80 97 91 82 41 38 31
45 68 89 78 76 70 59 48 23 24 28 29 32 27 18 17 27 82 100 100 100 100 100 100 100 100 100 100 100 100 100 100 100 100 100 100 100 100 85 100 100 100 98 100 84 53 42 30 35
60 71 89 89 82 86 64 45 22 25 29 28 33 29 20 18 18 49 77 95 100 100 100 100 100 100 100 92 100 100 100 100 100 82 100 100 100 95 100 100 100 100 100 66 70 53 44 42 44
58 80 85 94 88 85 64 47 29 26 29 30 31 32 21 19 18 24 59 57 90 100 100 100 100 100 99 100 100 100 100 100 100 98 95 98 100 86 100 100 100 100 100 99 62 95 49 60 63
51 76 97 100 100 88 63 64 44 35 23 24 27 37 24 21 18 20 36 72 63 86 100 100 100 100 87 100 100 100 100 100 100 100 100 100 100 83 81 100 100 100 100 100 97 85 90 80 85
56 91 100 100 99 89 72 72 55 40 29 23 26 37 32 23 20 20 24 50 48 68 90 100 100 100 100 82 100 100 100 100 99 99 100 99 100 100 95 100 100 100 100 100 100 100 100 100 100
50 60 100 99 71 63 84 76 59 48 35 26 28 36 34 28 24 20 25 35 48 60 70 95 97 100 100 100 100 100 100 100 100 100 99 100 100 100 100 100 100 100 100 99 96 100 100 100 100
44 86 94 45 39 67 61 96 77 72 53 32 27 44 39 33 28 21 24 35 52 55 51 61 94 89 100 100 100 100 100 100 100 100 100 90 98 100 100 100 99 100 92 87 85 83 85 100 100
81 89 84 44 41 84 86 99 90 92 62 44 29 42 45 42 35 23 25 45 51 51 58 51 58 88 88 100 100 100 100 100 100 100 100 100 100 72 84 100 100 74 80 54 54 83 100 100 93
84 100 92 58 54 73 67 100 68 89 83 72 32 36 45 59 57 27 25 35 46 49 48 46 39 53 77 86 99 100 100 100 100 100 100 79 100 99 100 100 100 100 99 100 100 100 94 100 94
83 100 96 54 64 59 54 86 89 77 100 84 56 32 38 75 82 34 26 29 43 46 51 50 41 53 53 69 85 92 100 100 100 100 100 100 100 100 92 98 100 100 100 100 100 100 100 100 100
87 100 80 56 73 51 43 95 60 93 100 82 63 37 35 74 81 44 26 28 42 63 59 43 45 60 65 61 76 87 90 93 100 100 100 100 100 100 97 100 100 100 100 100 100 100 100 100 97
58 69 100 100 69 67 56 48 99 75 100 68 92 54 38 54 74 62 32 28 41 73 82 56 61 71 80 78 85 84 76 92 96 95 99 96 100 95 96 100 100 100 100 100 100 100 100 100 100
74 100 100 100 49 71 77 50 100 62 92 82 100 64 41 44 57 86 46 32 30 51 77 81 83 79 76 71 71 71 74 98 100 100 100 100 98 93 98 100 100 100 100 100 100 100 100 100 100
94 100 100 94 69 87 79 57 100 60 96 93 97 95 46 48 60 64 70 38 30 38 58 73 94 89 97 100 91 80 70 75 82 97 100 100 100 100 100 100 100 100 100 100 100 100 100 100 100
100 100 73 77 91 65 71 84 87 79 87 100 100 100 61 46 62 48 83 53 33 32 35 57 65 74 82 100 100 100 100 100 98 100 100 100 100 100 100 100 100 100 100 100 100 100 88 83 90
96 84 84 48 43 42 64 100 100 92 72 100 79 100 88 48 46 61 44 96 54 33 31 32 39 57 85 81 90 100 100 100 100 100 100 100 100 100 100 100 100 100 97 88 78 71 68 68 59
69 58 71 52 39 42 82 92 100 100 89 100 84 91 100 63 45 51 53 65 89 41 31 32 31 38 55 59 70 88 92 100 100 100 99 92 84 83 82 85 87 81 77 70 71 70 76 80 84
89 63 55 76 83 93 68 55 100 100 99 100 100 100 100 100 59 55 58 56 94 71 41 36 32 33 41 57 64 94 78 64 90 100 100 81 78 78 56 55 57 50 55 82 94 99 97 69 46
51 74 89 59 60 94 98 100 100 100 100 100 100 94 86 100 70 56 62 58 88 86 49 40 34 34 35 56 64 66 85 89 75 60 62 60 60 71 68 73 82 76 76 68 94 86 60 47 34

GFSSGP_250_rhum_078.txt.gz
RH
14 13 12 11 12 12 14 20 29 27 29 32 33 23 20 20 17 15 13 14 13 12 11 10 10 9 10 11 11 13 16 15 14 15 24 26 27 29 29 33 29 29 31 39 45 48 42 36 41
16 15 12 12 12 14 19 28 34 47 38 32 29 29 27 24 21 14 12 11 12 11 9 8 8 8 9 13 14 12 15 16 14 17 21 27 28 29 29 28 35 40 46 71 82 64 61 48 37
19 17 13 12 14 30 42 64 75 55 41 40 35 22 18 14 13 12 11 11 11 10 8 7 8 8 11 19 49 46 52 47 19 15 18 26 29 31 30 30 33 35 46 71 86 66 60 51 47
24 19 14 12 15 22 44 94 70 55 46 34 25 19 14 12 11 12 12 12 11 13 10 24 36 31 26 33 46 100 92 69 34 25 22 24 27 29 31 31 30 46 65 76 67 65 60 69 68
29 19 14 14 14 38 75 67 58 45 40 25 16 14 13 13 16 14 11 12 10 12 11 20 32 62 62 83 74 83 100 88 89 90 71 26 25 29 30 27 44 57 96 72 65 98 80 75 89
35 20 18 22 39 46 50 50 52 49 28 23 19 15 15 18 18 13 12 13 14 15 14 66 96 80 100 100 100 100 100 99 100 100 100 91 39 33 27 23 62 94 99 86 72 83 89 73 66
37 26 31 45 49 46 54 59 55 42 32 24 16 15 16 20 17 13 19 25 54 48 48 85 100 100 100 100 100 84 95 57 98 100 100 100 100 100 42 31 52 100 75 81 100 100 96 69 39
38 33 32 48 57 60 66 69 51 34 29 20 16 16 22 19 17 14 26 41 56 98 77 100 99 97 82 100 100 100 88 46 97 100 100 87 100 89 38 29 92 83 100 100 100 80 78 56 41
43 41 35 57 60 59 73 54 42 37 32 20 16 18 23 23 17 16 24 54 69 88 100 100 100 99 92 100 100 100 51 73 100 98 100 99 100 90 100 100 92 99 100 100 99 87 69 64 56
49 48 41 55 62 72 64 55 53 41 35 21 18 23 28 25 20 18 37 54 84 94 100 100 100 100 100 100 100 93 76 100 100 100 94 97 100 100 100 100 100 100 100 100 100 90 83 70 53
49 44 46 56 79 85 79 68 71 50 34 20 23 24 37 34 23 19 28 67 80 100 94 100 100 100 100 100 100 100 81 100 100 90 80 99 100 100 100 100 99 98 100 100 98 100 91 85 68
52 43 44 51 95 89 84 83 72 63 44 24 20 20 30 37 23 21 19 80 73 90 100 100 100 100 100 100 100 100 91 79 99 98 99 100 100 100 100 100 100 87 100 88 79 58 77 85 76
59 50 44 46 94 91 91 83 88 68 49 29 20 16 26 38 25 22 20 37 73 77 89 100 100 100 100 100 100 100 100 90 73 100 100 100 100 100 100 100 91 78 100 100 97 100 99 68 68
62 60 47 54 76 91 91 76 99 75 58 41 26 21 26 33 26 24 21 25 82 63 88 94 100 100 100 100 92 99 100 98 86 100 100 100 91 100 100 100 100 100 100 100 96 100 85 51 39
70 91 53 36 48 84 94 92 100 80 60 45 26 24 26 33 28 25 23 23 37 75 75 87 100 100 100 100 93 90 100 100 100 100 100 100 100 100 100 100 96 100 89 100 100 94 100 63 58
80 99 55 39 62 82 100 97 93 73 60 53 33 33 24 31 33 25 25 21 25 71 81 77 85 100 100 100 100 100 100 100 100 100 100 100 100 100 100 100 100 100 100 100 100 100 98 89 100
100 100 65 43 65 64 100 71 35 80 66 54 40 36 28 30 32 29 24 21 25 37 63 63 63 92 100 100 100 100 100 100 100 100 100 100 100 100 100 100 100 90 100 98 100 100 100 100 100
80 94 66 52 38 63 75 52 49 65 74 46 48 43 28 30 35 38 28 22 27 37 41 57 60 63 98 88 100 100 100 99 93 100 92 96 100 100 89 100 100 100 64 87 100 100 100 100 99
56 99 88 70 33 43 56 74 76 53 72 45 54 65 31 32 38 49 37 24 24 42 42 54 69 53 71 96 91 100 100 100 100 72 88 100 92 97 100 100 100 88 69 100 98 100 100 99 89
81 100 98 71 40 44 62 93 66 56 72 43 76 64 42 38 36 64 56 30 23 32 46 50 56 55 50 92 90 99 100 100 100 100 64 92 100 100 67 75 85 100 99 74 88 59 57 67 50
100 100 100 94 49 51 79 89 67 46 53 36 96 50 42 44 36 54 72 46 25 30 45 59 65 55 49 59 96 92 100 100 100 100 100 96 83 100 94 84 84 51 56 70 49 59 98 98 85
97 96 100 96 48 58 98 90 72 49 52 47 69 54 70 49 37 39 85 74 32 25 43 53 63 72 67 46 81 95 94 100 100 100 100 100 100 100 86 100 88 100 100 100 100 100 100 100 100
100 71 100 96 76 98 86 70 82 65 74 58 42 49 99 72 44 38 66 88 49 28 31 56 63 80 100 79 73 90 98 90 100 100 100 100 100 100 100 100 100 89 73 100 100 100 97 100 100
100 63 100 100 91 100 100 70 99 85 83 65 39 59 100 67 46 40 45 77 69 45 29 36 52 92 76 79 85 77 74 96 100 100 100 100 100 100 100 100 100 100 100 100 100 100 100 100 100
100 88 56 100 92 100 100 83 100 99 88 73 43 43 100 99 49 45 36 45 82 66 42 30 37 54 94 66 68 75 79 73 68 70 91 100 100 100 100 100 100 100 100 100 100 100 95 100 100
100 100 79 68 58 100 100 82 100 100 96 78 70 48 74 84 75 53 40 40 47 89 57 34 30 36 68 69 78 90 78 74 74 72 78 92 96 100 100 94 98 100 100 98 100 100 100 100 100
100 100 97 74 61 54 67 66 100 100 93 93 100 54 51 49 94 91 40 41 38 50 93 46 33 30 36 57 80 77 90 100 81 83 88 100 100 100 100 100 100 100 100 100 100 96 88 96 95
100 100 97 75 63 69 100 90 98 100 97 74 87 86 92 78 58 100 88 32 45 50 62 94 45 31 29 33 57 84 77 97 100 94 92 98 100 100 100 100 100 100 100 100 100 100 98 98 89
100 100 98 96 88 78 96 76 63 100 84 68 88 100 74 83 62 47 86 79 38 47 58 74 83 41 32 29 33 51 65 72 82 100 100 100 100 100 100 99 96 83 76 70 61 62 63 60 65
100 100 97 78 66 87 76 64 62 100 100 81 100 100 97 70 59 52 48 92 91 57 50 66 74 74 43 35 31 32 43 56 69 74 73 86 100 100 100 94 73 57 62 64 64 64 61 66 77

GFSSGP_250_rhum_081.txt.gz
RH
20 19 18 17 14 13 11 10 10 11 14 23 22 29 24 22 22 21 17 15 15 14 14 16 18 15 11 10 9 11 12 12 12 14 18 26 28 25 28 30 30 27 22 23 26 25 25 28 25
21 25 24 23 17 14 12 12 11 14 19 28 43 44 29 25 29 27 19 16 13 12 13 11 13 15 12 9 9 10 13 15 23 15 11 14 18 20 23 24 33 38 39 43 39 41 36 42 34
27 27 28 27 23 17 14 12 11 18 32 62 57 52 51 32 22 18 15 13 12 11 10 10 11 10 9 10 8 9 10 22 54 92 83 25 20 21 22 20 26 30 39 45 44 45 45 47 44
30 33 35 32 26 21 15 12 14 45 68 58 56 45 33 26 18 14 12 10 11 10 9 9 19 11 11 23 39 45 18 83 100 100 91 97 38 24 20 23 28 33 31 31 37 35 38 40 43
31 36 45 38 29 22 17 20 49 47 53 54 50 48 33 24 16 15 12 11 12 11 10 8 17 10 17 53 81 99 100 100 97 100 90 99 46 22 22 24 28 36 34 36 37 70 40 38 52
40 36 48 45 34 24 24 36 46 52 51 55 42 31 23 18 14 13 15 14 13 15 18 15 23 48 57 44 95 99 96 100 95 95 93 88 84 56 27 30 39 34 36 48 87 56 48 78 100
34 31 54 53 38 30 34 46 47 58 64 50 38 32 22 16 14 14 16 16 17 20 33 24 23 89 98 100 100 98 100 100 100 85 100 66 98 100 96 93 59 30 35 66 70 63 88 94 80
29 36 44 58 45 34 37 46 55 67 57 44 40 27 18 15 15 15 18 16 20 27 48 53 66 100 96 100 100 100 100 100 100 100 100 100 100 100 100 100 88 34 61 84 68 69 100 100 88
32 30 48 67 52 42 39 45 55 70 52 50 47 23 19 17 16 16 18 16 24 37 49 94 72 98 100 100 82 97 100 100 100 100 100 100 94 98 88 96 100 68 55 87 86 100 100 85 61
30 30 32 63 55 47 38 46 60 72 65 62 57 38 19 17 17 17 19 18 20 53 52 92 79 100 100 100 99 76 100 100 100 100 100 100 95 92 100 96 83 61 46 94 100 100 100 81 53
27 30 30 61 65 49 38 48 71 82 69 71 60 48 32 18 16 18 19 18 16 62 69 84 100 100 100 95 99 100 99 100 100 100 100 100 100 63 80 100 72 46 58 100 100 100 100 82 94
30 30 32 46 78 54 39 42 60 84 77 74 82 61 40 22 18 20 18 18 17 41 81 94 90 100 100 100 92 96 90 98 100 100 100 100 94 50 100 100 94 84 100 100 100 100 100 92 79
33 29 32 66 100 69 45 39 56 71 72 81 95 69 50 22 20 21 20 18 18 20 76 100 95 94 100 100 100 95 100 100 100 100 100 100 73 93 100 100 99 82 84 100 100 100 96 75 81
34 30 36 61 100 72 49 33 59 63 51 91 100 75 53 23 24 24 23 20 18 17 36 94 100 96 90 100 96 96 100 100 100 100 100 91 100 100 100 100 100 83 86 93 89 100 99 68 84
34 31 35 91 100 74 53 36 40 63 75 100 100 72 51 25 28 26 24 23 21 18 18 58 100 100 98 100 100 94 71 91 83 100 100 100 100 100 100 100 100 100 100 90 65 93 100 100 95
36 36 51 78 100 86 63 42 32 85 100 69 68 64 48 28 31 29 28 30 22 19 18 20 49 88 100 100 100 100 83 87 99 100 100 100 100 100 100 100 100 100 100 100 98 97 100 100 100
40 85 100 100 99 100 68 45 27 93 76 29 59 58 57 29 30 32 28 35 25 20 22 25 27 58 96 100 98 100 100 85 100 100 100 100 100 100 100 100 100 100 100 100 94 100 100 86 92
100 100 100 94 99 100 72 47 31 36 34 33 50 71 62 31 31 36 32 41 28 22 23 30 30 44 67 98 100 97 100 100 100 100 100 100 100 100 100 100 100 100 100 100 100 100 100 100 96
100 100 100 100 100 100 82 47 50 37 31 31 47 72 52 62 37 40 36 46 39 25 24 27 35 39 38 70 100 74 100 100 98 99 100 100 100 100 100 100 100 100 100 100 78 81 100 100 64
100 100 100 100 100 100 86 60 80 52 32 34 38 54 46 74 36 38 39 44 42 27 24 33 38 39 39 60 66 100 67 100 100 100 100 100 100 100 100 100 100 100 99 100 100 86 70 70 74
100 100 100 100 100 100 92 59 97 74 32 41 42 47 45 58 69 44 42 38 42 33 24 35 50 49 47 52 58 87 90 100 100 100 100 100 100 100 100 100 100 100 93 93 95 98 100 94 74
100 100 100 100 100 100 100 75 93 79 39 43 51 56 39 35 86 59 39 41 52 41 29 29 51 63 55 50 49 84 100 100 100 100 100 100 86 91 85 85 100 100 100 96 82 83 51 46 50
100 100 100 100 100 82 100 85 100 74 40 39 56 56 40 35 50 69 36 35 45 53 47 30 38 49 52 44 45 68 100 100 100 100 100 100 100 100 95 75 56 51 54 52 39 41 44 59 100
100 100 100 100 100 61 100 100 100 98 50 45 64 68 47 34 40 100 36 33 40 47 51 49 30 43 67 59 52 47 100 100 100 100 100 100 100 100 100 100 100 88 84 80 84 98 86 99 96
100 100 100 100 100 86 100 100 100 100 91 95 78 79 56 49 54 65 41 46 28 32 55 59 40 29 35 54 54 46 47 92 100 100 100 100 100 100 100 100 100 100 100 100 100 100 100 100 100
100 100 100 100 100 98 100 100 100 100 100 100 100 71 49 65 48 31 32 89 75 36 42 55 63 51 32 28 48 49 53 46 54 93 100 100 100 100 100 100 100 100 100 100 100 100 100 100 100
100 100 100 100 100 100 78 100 100 100 100 100 100 67 40 59 99 56 31 63 100 73 43 45 66 66 40 30 28 36 50 61 66 64 70 78 80 92 98 99 100 100 100 100 100 100 100 100 100
100 100 100 100 100 85 74 62 100 99 100 100 100 81 44 34 58 68 42 48 41 40 70 48 40 70 66 40 31 28 30 46 49 70 74 60 61 63 66 73 86 97 100 100 100 100 100 100 100
100 100 100 100 100 100 79 96 97 82 85 100 100 75 47 38 51 100 47 45 62 41 49 68 44 45 67 71 42 35 28 31 44 58 80 97 90 67 70 90 97 97 98 100 100 100 100 100 89
100 100 100 100 100 100 100 100 100 92 89 100 100 100 82 43 44 95 39 60 82 44 47 49 60 36 46 72 64 44 38 30 29 39 53 64 100 100 100 100 100 100 100 97 74 74 68 59 54

GFSSGP_250_rhum_084.txt.gz
RH
25 26 27 28 25 22 20 18 19 14 12 12 11 13 18 22 22 22 19 23 21 17 18 13 13 14 16 16 14 20 23 24 20 17 18 21 24 24 25 27 27 27 22 19 17 17 18 19 21
31 29 28 27 33 32 28 22 22 18 12 12 13 18 29 28 30 25 27 22 19 15 14 12 14 10 10 8 7 8 10 14 13 13 13 15 15 18 18 16 19 31 41 36 30 25 23 27 34
38 35 33 34 33 41 37 31 33 22 14 12 14 38 46 43 51 41 31 24 20 15 11 11 10 13 12 11 9 10 10 16 25 24 15 23 82 100 89 33 33 30 32 35 35 30 30 35 47
30 41 29 28 34 38 38 36 37 28 17 19 35 34 46 48 46 35 25 19 15 13 14 12 16 20 22 20 13 35 52 83 85 99 99 100 100 99 97 100 51 65 68 52 38 28 36 58 51
31 32 29 26 30 27 45 44 43 34 24 35 42 43 49 49 36 27 19 16 14 12 12 10 12 14 23 27 40 76 100 99 92 98 100 100 100 100 98 98 80 64 82 65 50 80 95 56 43
39 40 31 31 29 28 43 48 48 39 27 39 44 49 52 42 33 24 16 15 14 12 12 13 19 9 10 19 27 97 94 100 100 100 96 100 100 100 83 100 70 49 49 50 45 100 50 45 34
36 30 37 32 30 30 30 57 49 44 30 39 56 62 48 45 24 17 16 16 14 13 13 14 16 20 28 26 25 100 96 100 100 99 100 97 100 100 100 100 97 52 35 42 34 60 62 79 34
41 40 35 34 32 28 29 67 56 49 35 35 62 62 47 50 28 19 16 16 14 15 14 14 24 41 64 92 87 100 98 100 100 93 100 100 100 100 78 100 100 100 73 83 44 100 89 36 70
48 45 39 40 34 29 26 53 64 53 42 32 64 65 62 56 34 28 25 16 14 15 15 14 35 59 96 100 100 96 97 100 100 100 100 100 100 100 100 74 80 100 100 100 45 45 54 79 100
40 37 42 38 33 32 29 34 72 63 45 35 60 79 69 56 52 34 33 22 15 14 15 14 35 66 100 100 100 100 100 100 100 100 100 100 100 100 100 89 94 86 98 96 72 49 79 98 100
35 40 39 37 37 37 35 30 55 85 48 33 48 64 77 70 45 35 37 23 16 15 16 15 29 56 78 100 100 100 100 100 96 100 100 100 80 100 100 99 67 54 61 88 68 48 100 100 100
36 42 41 33 35 40 39 31 46 86 63 39 36 71 54 47 63 62 50 23 16 16 17 16 35 66 70 100 100 100 100 100 99 100 100 97 91 100 100 98 100 56 50 61 49 60 100 100 100
40 51 48 35 29 31 34 33 50 100 80 42 35 55 37 92 98 67 48 23 16 16 17 15 41 78 90 72 98 100 100 100 100 99 100 100 99 98 100 100 97 69 49 47 29 86 100 100 100
47 46 42 32 31 28 32 32 45 100 85 43 40 54 39 100 99 68 36 22 20 17 16 16 19 98 98 67 87 89 91 99 100 100 99 100 100 100 100 94 86 70 62 54 71 100 100 100 100
41 41 35 32 36 25 26 34 83 99 79 48 30 53 100 68 65 59 41 24 21 18 17 16 15 46 100 89 97 98 79 72 81 100 100 100 100 100 100 91 91 76 77 89 96 99 100 100 100
33 32 36 49 33 26 23 89 89 100 81 53 36 71 82 36 45 57 41 26 24 20 17 17 15 28 71 96 97 100 93 64 59 70 98 100 100 100 99 100 99 100 100 95 100 93 77 100 100
30 34 42 46 29 29 25 97 87 89 95 58 39 34 35 44 45 59 44 31 29 24 20 17 16 18 63 73 81 100 86 100 84 88 93 100 100 100 100 100 100 94 98 94 100 100 100 88 88
33 33 40 38 34 28 47 100 92 91 100 66 41 27 30 43 42 72 50 36 31 28 23 20 17 20 23 74 95 100 73 100 100 99 94 100 100 100 100 100 100 86 100 100 100 100 100 100 99
34 30 39 38 39 39 80 100 86 96 100 66 38 28 33 40 36 52 45 43 31 31 30 22 17 19 26 39 86 97 100 85 100 100 100 100 100 100 100 99 100 100 77 90 100 100 100 100 100
30 37 38 38 47 75 100 100 100 100 100 66 35 31 35 43 32 48 44 49 32 35 33 23 20 23 25 33 68 92 100 83 91 100 100 100 100 100 100 100 93 83 76 81 89 91 98 100 100
40 42 52 72 100 92 100 100 100 100 100 76 40 33 32 42 39 27 40 43 30 32 35 26 23 28 29 35 45 78 100 100 86 100 100 100 100 100 100 100 100 100 100 98 99 100 94 100 100
46 85 100 100 100 69 89 100 100 100 100 76 42 38 36 40 48 31 26 39 32 31 35 36 25 28 36 39 43 63 83 100 87 100 100 100 100 100 100 100 100 100 100 100 100 100 100 100 100
82 100 100 100 100 82 91 100 100 100 100 86 57 46 49 44 47 39 26 82 54 25 29 32 35 27 35 44 44 51 67 89 100 100 100 100 100 100 100 100 100 100 100 100 100 100 100 95 99
100 100 100 100 100 64 100 100 100 100 100 89 67 61 61 54 54 42 28 87 22 29 52 35 31 33 30 37 46 47 49 54 100 100 100 100 100 100 100 100 100 100 86 75 77 80 75 84 84
100 100 100 100 96 72 100 100 100 100 100 92 78 74 82 89 66 47 39 29 24 53 100 50 39 32 33 28 31 40 44 42 84 100 100 100 100 100 100 100 100 100 99 99 97 99 96 95 81
100 100 100 100 100 96 100 100 100 100 100 94 85 98 100 100 99 64 33 54 32 29 97 53 43 40 33 37 30 28 41 39 49 95 100 100 100 100 100 100 100 100 100 100 92 97 100 100 98
100 100 100 100 100 100 100 100 91 100 100 100 95 93 100 100 100 99 46 68 47 32 45 28 31 40 39 34 35 33 30 32 43 50 98 100 100 100 100 100 100 100 100 100 100 100 100 100 100
98 100 100 100 100 100 100 97 90 100 100 100 100 100 100 100 98 98 73 39 45 35 34 45 35 39 33 41 36 36 36 30 29 48 43 65 95 100 100 100 100 100 100 100 100 100 100 100 100
100 100 100 100 100 100 100 100 100 100 100 100 100 100 100 95 98 79 54 42 78 67 35 65 65 41 36 41 38 36 36 37 30 29 38 52 55 54 63 75 89 99 100 100 100 100 100 100 100
100 100 100 100 100 100 100 100 100 100 97 81 100 80 100 100 91 62 47 63 73 62 31 42 74 50 44 39 35 41 52 44 38 38 38 31 44 67 80 67 53 64 87 100 100 100 99 100 100

GFSSGP_250_rhum_090.txt.gz
RH
30 28 32 33 31 30 25 27 33 28 25 23 19 17 18 17 14 11 10 9 10 10 11 12 15 16 19 18 16 16 14 13 14 15 14 15 18 18 17 20 25 24 22 23 21 20 21 22 23
30 28 32 31 30 28 31 27 30 29 25 24 24 21 19 16 14 13 11 12 12 15 16 18 19 19 20 18 16 15 15 14 12 12 12 12 12 13 16 18 20 23 26 30 33 34 33 30 30
28 29 31 29 31 33 30 28 26 25 23 22 22 20 18 19 18 17 16 19 20 21 20 20 18 16 14 13 13 12 12 11 10 11 13 15 13 12 12 15 17 19 22 25 26 27 30 34 34
28 28 28 34 42 38 31 24 24 24 24 25 24 23 25 28 28 28 31 23 20 22 22 22 19 16 14 12 11 10 10 9 10 13 16 33 26 74 90 99 49 34 35 26 30 36 59 62 46
30 31 30 42 44 46 48 32 24 27 27 26 29 26 28 33 35 39 36 28 28 29 30 26 20 16 13 11 10 9 9 8 8 12 56 89 99 100 100 100 92 72 37 39 92 100 100 100 87
29 30 36 43 55 41 28 25 31 29 29 27 28 27 27 34 46 49 42 36 31 33 32 30 28 20 15 12 11 10 10 19 41 19 94 100 98 100 95 100 100 100 95 97 100 100 100 97 79
29 26 28 36 50 44 27 26 28 29 34 28 28 27 27 30 43 50 48 41 38 34 34 31 29 22 17 13 11 11 16 25 84 94 100 92 83 100 100 100 100 83 96 92 99 80 62 70 88
31 30 49 50 58 50 27 27 35 34 45 38 26 31 30 28 31 59 57 44 41 37 37 31 24 20 17 14 12 12 16 34 73 71 100 97 100 83 100 100 100 100 82 90 69 47 47 65 74
34 48 75 84 70 44 32 31 34 47 45 32 25 25 34 30 29 51 72 50 38 41 46 27 30 24 18 14 14 14 24 57 62 84 100 100 99 100 100 100 100 100 87 82 59 58 47 44 41
79 60 87 76 71 63 43 40 40 53 49 44 29 26 29 29 26 36 66 59 36 35 40 52 45 25 19 13 14 16 54 100 98 100 100 100 100 100 94 100 100 100 92 63 62 56 42 45 53
100 79 90 97 95 72 56 44 77 83 56 51 34 29 31 28 25 38 64 67 41 35 38 56 42 20 18 13 14 17 70 100 100 100 100 100 100 100 100 100 100 100 100 80 61 39 38 36 52
91 93 89 71 66 51 62 95 78 42 39 50 40 30 37 31 27 36 80 57 47 38 65 55 26 20 17 13 14 20 71 100 100 100 100 91 100 100 100 80 100 100 100 82 62 60 46 42 68
75 80 59 65 75 88 89 76 49 44 66 45 42 27 41 31 37 48 85 56 58 49 70 30 24 19 16 14 15 16 68 100 100 100 100 100 100 100 100 100 100 100 92 79 94 60 45 48 58
84 70 64 66 86 95 83 72 76 77 72 52 32 31 42 34 41 83 83 54 57 55 34 28 22 18 17 15 14 16 44 100 100 99 100 100 100 100 100 100 100 100 96 100 100 93 72 70 59
94 84 77 76 89 84 91 40 52 61 59 42 37 32 38 35 40 94 70 49 42 36 26 25 20 20 19 17 16 16 21 86 100 100 100 100 100 100 100 100 100 94 100 100 85 98 84 62 58
100 100 86 100 100 89 91 62 72 60 39 43 38 38 41 42 85 99 66 57 43 30 28 23 20 20 20 19 17 16 16 68 100 100 100 100 100 100 100 88 100 96 88 89 82 80 85 62 64
100 100 95 97 83 68 62 46 56 57 39 39 48 39 43 55 100 100 74 62 47 29 28 24 20 20 20 18 18 18 16 32 94 100 100 97 100 100 100 100 100 82 90 84 96 87 78 57 61
54 61 61 54 76 71 48 39 45 51 29 32 44 37 47 95 100 100 71 71 37 32 26 21 19 18 20 18 16 17 18 26 59 97 100 100 100 100 100 100 100 93 90 100 96 88 100 87 86
63 52 46 66 78 59 35 26 34 42 24 28 39 36 54 100 99 100 94 59 37 31 26 20 22 21 20 22 19 17 19 18 67 66 82 100 100 100 100 100 94 100 99 64 77 100 100 100 69
63 53 67 61 48 32 33 33 32 28 23 31 38 41 87 100 100 100 86 56 35 35 25 28 51 28 19 23 22 19 23 23 30 82 56 67 94 100 100 100 100 100 100 100 100 100 94 100 96
52 48 48 37 31 37 29 24 21 29 25 34 42 73 95 100 100 100 86 49 37 38 32 28 53 22 20 23 24 23 32 31 27 50 80 55 59 74 93 100 100 100 100 100 100 100 100 100 93
49 49 41 32 36 33 17 20 20 39 36 37 49 95 100 100 100 100 91 54 39 40 37 43 25 26 37 23 25 24 27 37 34 30 52 67 61 58 67 76 78 95 100 100 100 100 100 100 100
61 47 38 38 37 22 16 16 25 40 50 48 93 97 100 100 100 100 96 56 45 40 41 35 25 28 46 21 22 28 26 31 42 36 38 64 74 65 83 100 100 100 89 91 100 100 100 86 86
56 56 40 36 28 18 15 21 26 85 100 90 79 100 100 100 100 100 98 70 57 40 44 44 34 27 27 20 22 26 32 30 33 44 45 47 77 79 79 99 100 100 100 89 100 100 100 100 100
67 52 42 32 16 18 17 33 37 100 100 83 78 93 100 100 100 100 100 81 63 44 51 51 37 39 34 24 20 23 27 33 34 35 53 56 65 74 88 100 100 100 100 100 95 99 100 100 100
74 63 39 29 18 20 19 64 55 100 100 100 57 85 100 100 100 100 100 99 71 61 81 73 43 48 44 32 26 20 21 26 35 32 30 46 53 75 100 100 100 100 100 100 100 99 98 93 95
72 66 36 22 25 29 30 98 100 100 100 100 56 63 88 100 100 100 100 100 96 81 100 100 73 58 50 41 38 30 21 20 23 31 33 28 36 49 98 100 97 90 100 100 100 100 99 92 80
58 44 29 35 60 66 72 85 100 100 100 100 70 43 55 94 100 100 100 100 100 100 100 100 100 85 68 66 51 42 32 21 21 22 32 35 33 34 47 77 100 95 78 79 98 100 100 100 91
45 45 39 90 77 98 87 62 100 100 100 100 93 64 52 73 100 100 100 100 100 100 100 100 100 95 88 68 73 53 37 27 25 25 30 49 46 36 34 38 55 99 100 100 99 97 100 100 100
71 99 81 98 100 100 99 94 100 100 100 100 100 88 59 66 99 100 100 100 91 100 100 100 100 100 86 81 70 60 52 30 28 35 28 28 29 33 36 34 35 37 77 100 100 100 100 100 100

GFSSGP_250_rhum_096.txt.gz
RH
52 52 53 44 35 32 30 33 34 31 30 32 28 24 23 22 19 17 14 14 13 12 12 11 11 11 14 14 14 14 13 12 11 11 10 9 9 9 10 12 16 14 14 15 17 17 19 20 20
57 71 63 38 34 31 30 35 40 35 33 30 25 24 25 22 22 20 18 17 14 13 14 13 12 13 14 15 15 16 19 19 18 17 16 14 11 10 10 10 12 13 15 16 21 26 28 24 26
92 96 64 37 32 29 30 32 34 32 31 29 26 24 24 27 26 22 21 19 19 18 16 14 15 15 14 14 15 18 20 20 19 18 16 14 12 10 9 9 11 13 14 18 23 32 42 44 36
100 98 49 33 32 31 31 33 35 34 33 32 29 27 23 24 22 22 22 21 20 19 18 17 18 16 17 16 16 16 17 17 17 16 14 13 23 13 15 14 15 16 25 17 21 34 44 34 31
100 73 42 30 29 27 30 35 31 34 34 34 34 37 36 29 30 22 22 22 20 19 19 18 18 18 19 19 18 17 17 18 19 20 30 16 26 84 92 45 53 54 56 58 30 27 38 31 22
92 60 39 32 30 33 36 30 28 28 33 35 44 53 52 41 49 43 26 26 21 20 20 20 18 20 22 22 20 18 21 20 24 20 25 33 26 52 100 87 88 92 96 100 100 95 74 45 40
94 63 53 34 35 49 38 28 28 31 39 63 64 60 55 66 57 47 36 36 26 20 23 25 21 20 23 23 21 19 22 29 28 38 63 60 55 82 100 82 100 98 100 100 100 100 100 82 72
100 57 47 42 79 79 41 28 43 30 37 54 63 74 83 76 56 54 66 48 45 26 24 27 24 20 27 28 22 23 32 32 46 75 80 79 67 76 48 92 100 96 100 94 100 100 100 100 100
96 49 43 63 91 83 65 50 36 35 48 88 100 91 97 66 49 38 52 41 40 28 25 29 27 25 33 33 23 28 24 29 24 61 72 42 44 81 99 99 100 97 100 100 99 100 92 63 58
90 66 72 100 94 97 91 71 47 74 99 100 100 100 74 51 38 35 40 60 46 34 30 31 32 28 37 34 24 23 22 18 16 19 24 19 17 71 100 98 100 100 100 97 88 90 58 49 53
99 81 76 84 83 71 86 92 82 84 59 53 73 66 48 42 39 32 54 65 57 29 32 35 36 32 42 34 24 23 18 17 16 18 22 18 20 71 100 100 100 100 100 100 99 100 70 58 46
82 91 79 80 84 93 99 83 66 72 51 46 49 47 42 33 34 46 63 71 62 33 32 40 37 42 49 33 26 22 18 16 16 17 19 41 62 68 100 100 100 100 98 69 100 100 100 76 64
92 100 100 100 100 90 76 79 89 43 42 50 48 33 29 35 52 63 80 66 50 56 36 43 40 60 45 30 26 21 17 15 17 17 30 71 88 97 100 100 100 100 85 100 100 100 100 83 56
100 100 100 100 100 96 93 94 54 71 80 51 38 30 30 38 52 76 78 63 54 56 39 46 44 71 39 30 23 20 16 16 17 17 50 92 96 100 100 100 100 100 98 100 100 100 100 100 91
100 100 97 100 91 88 86 58 64 72 51 36 37 37 33 38 65 74 64 62 50 48 45 47 51 76 38 31 24 19 20 16 17 17 64 100 90 100 100 100 100 100 81 100 100 86 100 100 84
85 73 92 82 78 68 70 52 73 57 40 41 54 39 38 41 58 54 58 70 49 40 40 50 70 74 42 30 26 23 16 17 18 17 58 100 91 100 100 100 100 100 91 100 92 100 100 100 100
76 72 69 64 69 75 74 74 72 61 57 60 69 56 46 42 48 54 68 67 50 47 37 48 90 71 40 28 26 27 18 18 18 17 24 100 100 100 100 100 100 100 100 100 100 100 100 100 94
100 77 78 70 76 86 96 98 79 90 60 43 49 53 57 48 47 60 59 54 49 51 42 47 100 66 37 28 28 26 23 15 20 17 17 100 100 88 100 100 100 100 100 100 100 100 84 93 68
100 100 100 100 90 100 100 49 47 59 56 44 40 39 45 45 53 54 66 52 46 47 40 54 100 61 33 29 28 24 24 16 20 20 17 79 100 100 90 100 100 100 100 100 100 100 100 100 97
100 100 100 100 100 100 100 50 44 50 42 38 46 50 48 48 49 63 47 44 47 43 41 74 100 55 32 31 30 26 26 16 18 23 22 35 100 100 100 100 100 100 100 92 94 100 100 100 99
100 100 100 88 88 58 56 47 44 40 39 66 85 70 57 57 68 60 34 42 42 41 53 93 96 47 36 30 29 29 28 18 17 22 31 19 95 100 100 100 100 100 100 100 100 100 99 100 99
85 80 80 75 72 53 34 35 41 46 62 84 97 72 56 64 56 41 29 38 44 41 66 100 89 48 37 30 29 30 29 24 19 17 24 32 23 100 100 100 100 100 100 100 100 100 100 100 100
58 66 49 49 42 45 53 40 39 59 62 99 84 60 50 56 47 29 33 47 35 42 86 100 85 48 38 31 31 34 34 31 26 22 18 24 34 26 96 100 100 100 100 100 100 100 100 86 100
73 64 53 47 47 54 100 55 49 62 72 98 78 51 58 44 27 28 37 39 27 74 100 100 84 51 37 37 35 38 40 36 35 26 19 20 25 29 32 60 100 100 100 100 100 100 100 100 100
74 65 82 78 79 78 77 59 70 63 93 81 57 43 42 22 21 28 53 35 27 52 100 100 87 54 40 39 39 43 48 39 40 35 24 21 26 26 26 39 38 72 97 100 100 100 100 100 100
100 100 100 100 99 74 67 67 53 84 91 68 52 39 24 20 29 42 62 35 31 42 98 100 90 56 48 42 43 46 60 48 42 41 34 26 23 28 29 32 49 56 57 55 92 98 100 100 100
100 100 95 79 72 66 70 75 55 77 78 51 40 26 22 27 36 58 97 68 45 40 93 100 90 60 58 48 49 72 79 65 48 44 42 36 26 25 28 34 30 80 98 88 81 95 100 90 89
88 85 86 78 71 63 65 70 73 83 55 50 30 30 35 43 60 70 90 100 70 55 60 100 100 73 64 62 66 96 99 77 62 43 38 44 32 29 32 27 35 32 52 75 93 96 96 100 100
91 94 86 71 69 62 64 73 88 68 58 37 52 58 80 91 92 91 99 95 70 60 78 100 99 85 70 75 81 100 100 100 89 54 41 40 42 33 32 33 27 38 39 61 97 95 99 100 100
84 83 71 70 71 64 67 83 90 60 55 30 100 94 100 100 100 100 95 88 88 52 66 100 100 99 99 100 100 100 100 100 100 76 53 47 48 44 37 42 32 37 44 44 40 66 100 100 100

GFSSGP_250_rhum_099.txt.gz
RH
58 45 43 47 50 54 45 49 36 33 32 30 33 33 31 28 26 24 22 21 20 19 17 14 12 12 12 12 12 12 12 12 11 11 11 9 9 10 12 11 10 9 9 11 12 12 14 21 22
67 51 46 44 61 62 55 48 37 33 34 33 40 38 34 31 27 24 21 20 19 18 17 17 15 14 14 13 15 16 15 14 13 13 14 15 14 12 11 11 11 10 10 10 10 12 16 17 17
62 51 51 49 82 82 88 52 37 32 31 33 38 37 33 31 27 24 24 21 20 18 17 16 15 14 14 16 16 18 17 17 16 16 16 16 15 12 12 23 20 34 41 37 36 18 16 22 29
59 52 55 71 100 100 98 52 38 32 32 33 38 39 34 30 28 26 33 31 24 21 19 17 16 15 16 16 16 17 21 21 22 24 20 18 15 19 51 99 91 79 39 34 34 35 28 22 28
62 54 61 100 100 100 80 46 33 31 33 33 39 42 33 30 37 44 44 35 28 31 23 18 17 16 17 19 20 18 22 25 20 26 34 34 31 96 90 94 99 86 88 78 79 70 54 50 30
68 58 74 100 100 97 70 41 35 30 34 36 38 35 41 58 60 52 48 44 43 36 28 24 23 17 16 20 22 22 23 26 23 29 58 65 22 61 65 79 89 100 98 90 94 96 95 79 42
73 74 84 100 100 95 63 45 34 31 33 36 41 56 67 73 86 58 48 50 53 36 33 26 23 21 20 22 23 25 25 26 22 28 43 51 60 32 39 69 58 82 100 87 78 100 100 100 94
91 90 100 100 100 94 77 59 42 28 32 42 39 60 91 100 92 80 54 57 48 35 42 37 29 22 23 24 23 27 29 28 24 24 56 59 69 66 44 89 82 79 100 98 90 90 100 100 95
81 89 100 100 100 100 82 63 45 35 35 36 54 76 100 100 95 93 74 49 37 39 41 42 38 26 26 26 25 27 33 29 24 36 33 43 56 56 63 70 100 97 100 100 98 99 100 100 100
87 100 100 100 100 100 80 60 45 46 58 60 65 97 100 86 70 67 50 35 39 40 39 48 40 34 30 32 31 29 40 31 28 28 24 17 16 32 42 32 82 100 100 100 86 92 100 97 78
99 100 100 100 100 97 83 76 66 57 61 70 66 100 80 60 45 38 42 37 34 55 48 56 46 44 36 41 37 39 49 27 21 22 20 29 21 18 30 40 69 98 100 100 78 89 90 67 63
78 97 100 100 100 100 100 95 72 64 70 70 67 66 56 46 37 38 47 38 30 44 43 37 48 45 39 43 41 56 44 24 18 16 15 22 19 16 28 34 100 100 100 100 93 92 68 68 61
85 100 100 100 100 100 100 100 85 76 92 86 60 52 43 35 42 53 47 42 33 42 39 40 43 41 40 45 52 80 34 22 18 17 15 16 17 19 38 49 57 100 100 100 99 88 79 83 83
98 81 100 100 100 98 90 99 99 98 80 71 61 54 48 46 48 48 64 42 40 41 37 40 45 38 38 44 64 85 30 21 19 16 17 18 23 43 56 58 69 96 100 100 100 79 82 100 81
100 82 92 100 100 100 100 100 100 100 99 66 55 50 52 46 51 48 48 64 48 48 42 38 46 36 41 41 81 71 30 22 21 15 17 18 45 67 75 100 99 100 100 100 100 92 100 100 84
100 100 87 100 100 100 100 98 100 94 66 54 48 45 53 49 52 49 45 61 57 61 53 40 45 39 46 45 97 55 26 23 20 16 16 17 84 79 83 100 100 100 100 100 100 100 79 96 100
100 100 100 100 97 89 71 62 77 79 61 65 62 52 76 79 78 59 46 52 59 65 56 44 46 41 47 52 95 43 26 25 17 16 18 17 98 81 81 100 100 100 100 100 100 100 100 78 100
100 99 97 99 99 94 89 82 77 75 64 63 76 80 72 60 75 72 50 47 62 61 51 44 46 43 46 67 88 35 28 25 20 17 16 16 90 98 88 100 100 100 100 100 100 100 100 100 100
90 85 82 90 98 84 85 79 75 70 70 74 96 100 64 52 57 55 40 39 61 67 50 44 47 40 46 78 80 32 29 26 22 19 21 16 58 100 99 100 100 100 93 89 100 100 100 100 82
100 100 100 100 94 74 94 93 88 75 82 100 100 99 76 73 65 50 42 38 67 65 52 43 46 38 48 87 57 31 31 27 25 21 23 24 25 100 100 96 100 100 100 100 100 75 70 79 100
91 88 98 98 99 100 95 100 98 76 99 100 100 100 82 62 48 46 44 40 69 70 50 37 43 34 55 94 38 33 29 27 26 22 21 28 26 98 100 100 100 100 100 97 100 100 100 100 95
76 85 91 95 100 98 92 90 100 99 99 100 100 81 54 44 54 46 45 74 72 55 35 32 36 37 77 93 36 34 29 30 31 28 20 24 33 36 100 99 100 100 100 100 100 100 100 100 100
72 71 78 87 96 93 99 86 84 91 90 80 62 59 50 78 61 45 47 74 62 51 29 38 33 45 95 81 36 35 29 34 35 33 22 18 25 33 81 100 97 100 100 100 100 100 100 100 100
69 63 53 55 76 91 99 85 75 77 57 59 51 46 62 75 56 49 52 57 62 47 37 37 39 89 100 80 36 36 33 34 37 35 29 21 18 25 36 95 100 100 100 100 100 100 100 100 100
94 83 65 61 80 80 91 84 64 53 51 47 60 82 63 63 63 54 61 58 40 40 33 38 42 98 99 85 36 39 37 37 37 36 28 25 22 20 24 35 72 100 100 100 100 100 100 100 99
99 98 95 89 77 72 68 61 51 41 42 56 97 97 62 63 60 45 50 36 42 30 32 43 70 100 100 86 39 38 40 43 45 39 34 29 31 23 24 24 37 42 87 100 100 100 100 100 100
97 100 100 91 74 60 55 51 67 69 91 99 81 65 63 66 52 43 44 44 26 30 37 52 93 99 100 82 40 37 40 46 64 58 44 37 39 37 26 28 23 30 49 49 89 100 100 100 100
100 99 99 90 84 81 80 92 100 89 80 74 68 68 67 54 41 48 37 26 24 40 42 55 93 98 100 93 46 41 39 52 83 77 71 46 42 44 36 32 30 25 32 75 89 92 99 100 100
100 100 100 100 94 99 100 100 94 75 70 75 73 77 56 45 50 42 28 26 34 40 60 64 100 97 100 100 58 48 46 61 96 99 91 68 46 42 42 40 36 33 28 37 83 100 99 100 100
100 95 98 89 90 81 78 78 76 68 70 71 78 75 50 49 47 40 52 46 36 50 63 82 87 92 100 100 87 64 53 61 86 100 100 100 72 43 41 43 40 46 33 28 28 37 61 95 100

GFSSGP_250_rhum_102.txt.gz
RH
68 57 52 52 62 60 51 46 42 54 59 45 39 34 32 30 30 30 29 27 26 24 22 20 18 17 15 13 12 11 12 13 14 13 13 13 12 13 12 12 10 9 8 8 8 8 9 11 13
70 71 64 73 83 75 58 47 43 62 70 55 43 38 34 30 31 31 32 30 28 25 24 22 21 19 18 16 14 13 13 13 14 15 16 15 14 14 13 12 11 12 11 11 14 27 21 12 12
100 88 80 85 93 82 64 50 47 77 77 67 46 37 35 32 31 28 31 30 28 27 25 23 24 22 18 17 15 14 14 15 14 17 20 19 20 20 34 33 37 75 56 79 55 53 52 47 28
84 83 90 83 99 86 63 51 50 69 90 84 50 39 34 32 28 28 30 31 29 30 26 26 24 22 18 17 16 15 16 18 16 20 23 24 21 24 68 100 75 100 84 87 100 87 64 69 72
96 100 93 84 92 77 63 56 75 100 100 88 50 40 35 31 29 31 32 31 29 30 29 30 31 26 22 19 17 16 16 21 19 20 22 25 58 82 100 100 100 100 94 77 93 95 81 74 68
92 80 72 91 96 86 64 63 98 100 100 78 47 37 32 32 33 34 32 30 30 33 32 36 40 29 22 20 19 17 19 22 22 21 56 62 35 70 94 63 98 100 78 84 98 99 94 100 100
70 75 82 91 94 92 75 71 97 100 95 70 45 40 36 38 37 38 43 42 33 43 52 52 39 30 25 24 22 20 19 22 25 24 26 42 33 25 31 42 100 100 69 75 100 90 100 94 100
100 80 76 72 94 91 90 100 100 100 93 66 43 43 49 43 49 53 73 47 48 56 50 44 34 29 27 24 23 20 22 26 26 28 32 42 55 54 35 36 44 99 91 98 100 100 90 100 94
96 85 81 81 100 100 100 100 100 100 84 63 44 44 48 52 68 97 90 72 57 55 41 31 32 29 28 28 26 24 24 30 28 34 40 42 59 45 34 42 49 48 100 100 100 100 100 100 98
89 78 75 90 100 100 100 100 100 100 88 76 62 50 52 56 75 100 76 75 58 46 37 34 31 29 28 32 28 29 28 32 30 42 45 40 50 52 30 35 60 84 86 100 100 100 100 98 100
91 91 93 81 100 100 100 100 91 100 98 81 63 51 59 68 82 98 77 72 61 46 39 36 32 31 30 32 33 32 34 33 30 44 39 38 41 39 17 24 45 53 69 100 100 100 100 89 86
62 67 66 79 100 100 100 100 93 100 100 89 60 52 47 53 70 89 88 75 62 42 39 39 34 36 32 37 37 33 37 36 38 54 27 20 21 14 13 15 19 40 42 100 100 100 100 100 81
76 71 62 73 79 100 100 100 100 100 100 96 70 49 63 81 74 83 72 74 56 47 40 39 35 43 39 42 41 36 37 36 50 52 24 20 18 14 14 14 18 27 46 100 100 100 100 96 95
90 87 63 74 100 97 100 100 100 100 100 99 73 64 78 71 69 65 68 62 58 51 40 42 34 44 41 47 41 39 37 35 55 49 22 20 18 14 15 16 17 24 61 100 100 100 100 92 90
67 92 72 75 77 100 100 100 100 100 100 100 72 84 82 76 58 66 71 60 58 51 46 41 36 42 38 38 42 41 37 36 64 39 22 21 15 14 18 18 34 50 65 100 100 100 99 100 96
82 70 97 80 84 100 100 100 100 100 100 92 91 100 100 100 72 68 67 63 65 59 55 53 47 44 38 42 43 46 39 42 67 29 24 17 14 15 17 21 67 74 95 98 100 100 100 100 91
73 74 94 99 97 100 100 100 100 100 100 100 100 100 89 73 70 73 77 67 70 61 52 47 42 37 36 46 46 48 40 53 66 24 23 17 13 16 18 56 81 99 100 99 100 100 100 93 96
85 97 100 100 100 84 100 99 100 100 100 100 100 90 74 82 81 78 70 74 66 52 46 50 44 40 38 48 46 49 40 62 52 25 22 18 12 17 19 86 76 100 100 100 100 100 100 100 99
93 89 99 73 89 100 100 100 95 100 100 100 100 100 95 84 87 78 70 75 81 49 56 69 52 43 40 62 51 51 41 69 40 26 24 19 14 17 19 100 87 100 100 100 100 100 100 99 90
75 87 76 85 68 81 100 100 100 100 100 100 100 100 100 92 69 70 65 62 55 84 81 56 49 42 68 64 50 52 42 79 35 28 25 23 16 17 18 100 93 100 100 100 100 100 100 100 100
60 78 96 97 83 82 79 93 92 98 97 96 97 83 89 97 100 100 100 100 100 99 70 53 47 42 68 63 48 54 44 82 30 30 27 26 18 18 23 100 100 96 100 100 100 100 100 100 100
51 66 87 99 98 93 99 91 83 90 85 80 77 86 96 99 100 92 91 90 87 85 54 56 50 48 66 60 50 49 46 65 30 29 31 26 19 19 23 100 100 84 100 100 100 100 100 100 100
58 62 81 96 100 98 100 100 100 100 97 95 87 95 100 100 100 100 85 84 80 60 58 59 49 46 62 58 46 45 60 46 30 30 34 27 19 20 25 88 100 100 94 100 100 100 100 100 100
79 77 83 93 87 96 97 85 77 87 94 86 82 94 98 96 75 71 67 66 62 50 57 51 45 57 55 52 45 53 78 35 31 31 35 33 21 19 23 28 100 100 93 99 100 100 100 100 100
92 95 86 88 85 98 97 84 77 71 79 75 79 89 93 85 79 76 70 57 56 58 62 42 41 52 44 49 46 84 83 34 32 32 35 35 27 21 22 24 38 100 100 98 98 100 100 99 98
97 97 94 88 94 98 97 80 73 75 70 70 74 72 80 94 87 71 57 48 69 55 52 41 43 38 49 44 55 92 65 38 33 33 35 32 33 28 24 25 23 34 100 100 100 100 100 100 100
99 100 100 100 96 92 100 100 100 88 84 74 64 67 74 77 74 70 59 78 76 47 43 41 38 43 41 41 90 100 61 42 36 37 41 38 35 36 28 26 28 24 33 66 99 100 100 100 100
98 99 98 97 100 100 96 93 88 90 90 91 88 78 66 56 51 58 83 79 48 38 34 36 40 36 34 53 100 100 74 48 41 39 52 59 47 42 34 26 26 26 24 23 32 55 91 98 100
100 100 100 99 98 98 94 87 86 86 78 70 66 66 74 85 83 75 59 46 34 31 33 38 30 32 39 92 100 100 90 50 50 42 46 74 72 62 47 34 31 28 27 26 24 44 69 77 99
100 100 100 100 98 98 99 89 88 84 83 80 90 88 99 87 67 59 56 46 37 38 37 28 28 43 54 100 100 99 96 59 54 46 42 62 93 87 75 49 43 39 34 34 28 27 41 89 96

GFSSGP_250_rhum_105.txt.gz
RH
50 55 48 39 39 49 60 56 45 44 45 49 39 36 38 40 35 31 32 30 27 26 26 25 25 22 21 20 19 17 16 14 13 12 11 13 13 13 12 13 12 11 10 11 10 10 10 11 12
56 63 63 54 46 51 74 55 48 58 63 58 47 42 45 56 44 40 35 31 30 28 28 28 26 24 23 22 20 18 16 15 13 12 12 12 16 14 14 25 23 17 30 34 27 21 19 20 25
74 71 71 69 70 88 100 67 88 73 68 66 55 56 63 61 60 46 36 35 31 29 31 30 29 26 26 24 20 20 18 17 15 13 13 14 14 17 34 24 41 46 78 53 98 87 99 85 58
91 89 82 69 75 89 90 76 94 87 79 70 62 64 73 74 79 54 42 37 30 30 34 33 28 29 29 24 24 22 19 17 16 14 14 16 18 35 61 31 38 99 100 100 100 100 100 100 100
75 83 81 77 91 100 100 84 87 92 78 77 65 75 89 94 85 66 45 33 29 33 36 31 30 31 31 27 28 21 18 17 18 17 17 16 25 61 100 76 82 100 96 100 99 100 100 100 100
70 72 75 70 78 100 98 100 93 91 95 84 64 75 100 96 83 67 42 34 30 34 36 31 32 32 34 29 26 22 19 19 18 20 19 46 94 91 95 95 74 100 100 93 100 100 100 100 100
100 96 86 77 64 99 100 87 81 85 87 87 69 73 100 88 84 62 44 36 34 38 34 33 35 43 38 32 26 23 20 20 19 19 19 20 26 25 30 37 34 68 95 100 83 98 69 99 100
84 85 93 100 92 100 99 66 73 84 92 84 81 76 98 100 87 61 44 40 34 44 43 54 54 45 40 34 28 24 22 21 23 27 26 26 26 30 34 38 58 37 32 98 73 80 100 100 100
36 44 80 100 100 100 100 98 76 82 93 94 100 90 99 100 88 62 45 38 38 65 86 74 64 51 40 35 29 25 24 24 26 27 29 34 30 35 66 60 52 43 34 44 100 94 100 100 100
29 27 45 90 100 94 100 100 100 98 82 83 100 100 100 100 95 62 48 44 39 53 53 60 66 59 48 38 32 26 30 27 29 31 43 47 31 32 43 51 55 56 38 71 80 100 100 100 100
40 31 47 61 57 54 98 68 66 80 99 97 100 100 100 100 99 72 58 54 40 54 58 52 64 57 49 41 35 31 29 28 26 31 41 72 69 75 73 62 58 51 32 32 86 100 100 100 100
47 42 36 49 50 71 100 93 63 62 88 97 100 99 100 100 100 90 70 65 76 71 60 50 61 57 54 44 37 31 30 27 29 31 32 58 52 48 54 51 52 53 45 40 70 100 100 100 100
49 50 48 48 38 41 88 70 74 71 81 90 100 82 88 100 100 97 73 68 94 68 65 60 67 62 53 43 38 34 33 34 33 33 33 34 52 40 35 30 33 14 21 22 71 98 100 100 100
46 52 50 45 46 53 92 69 67 71 81 100 100 100 96 100 100 99 72 90 98 88 71 68 60 53 49 42 38 33 30 33 37 37 36 36 50 42 27 20 15 15 17 37 51 51 100 100 100
46 44 54 53 48 63 74 61 62 99 80 93 100 100 90 100 100 100 78 100 100 100 76 52 44 44 45 44 40 35 36 35 35 39 39 38 61 30 22 18 26 23 36 28 75 65 100 100 100
52 44 47 71 56 51 67 66 99 94 100 100 100 88 66 100 100 100 77 100 100 100 59 58 54 57 49 47 40 33 38 39 45 46 43 43 64 27 20 16 19 20 21 34 51 100 100 100 100
67 51 46 59 76 58 56 90 100 79 63 100 100 94 67 98 100 100 96 100 100 99 66 72 71 62 56 44 38 42 39 38 43 49 44 48 60 23 19 14 18 20 20 46 72 99 100 100 100
79 68 55 48 67 80 64 67 99 90 58 82 100 100 98 100 100 100 100 100 100 75 76 72 80 66 68 54 45 57 48 40 46 52 48 57 51 21 17 15 13 16 31 65 97 96 100 100 100
99 81 64 54 45 60 71 49 66 99 70 91 100 100 100 100 100 100 100 100 99 83 77 86 69 95 78 47 60 66 50 43 47 54 50 66 42 20 17 14 14 16 62 93 100 100 100 100 100
71 66 75 66 51 47 70 75 70 96 94 100 100 100 100 100 96 94 94 91 93 99 100 82 91 75 52 72 96 69 53 43 48 56 50 74 38 22 18 14 15 22 100 91 100 100 100 100 100
46 68 68 69 61 43 54 80 94 92 100 99 100 100 100 100 99 90 87 97 100 97 90 100 100 100 100 82 72 66 54 42 44 52 48 74 30 26 21 14 16 50 100 96 100 100 100 100 100
32 44 49 59 62 52 50 58 92 76 88 100 100 100 100 100 100 100 100 100 89 77 77 67 67 67 70 68 72 58 49 42 46 47 46 70 27 30 20 15 18 45 100 92 100 100 100 100 100
33 39 43 50 50 54 52 50 76 90 89 83 87 99 100 100 100 90 88 89 88 85 84 94 66 79 77 66 57 56 50 42 46 45 46 51 27 32 21 16 22 49 100 100 100 100 100 100 100
31 34 40 47 50 45 50 51 64 87 88 91 83 78 84 89 86 79 81 96 85 88 95 89 66 65 57 66 59 52 51 42 46 40 60 30 30 37 26 18 18 42 100 96 100 100 100 100 100
32 41 42 48 47 51 56 58 73 74 90 100 99 100 100 95 96 99 95 97 97 83 76 71 73 64 67 64 51 53 50 44 46 40 68 29 33 37 27 20 19 21 100 100 98 95 100 100 100
47 62 96 83 70 79 69 80 89 64 80 98 100 81 84 90 90 95 86 77 84 80 79 75 77 74 69 62 51 54 46 49 44 47 64 30 37 38 29 24 22 20 62 100 100 100 100 100 100
66 74 95 100 100 97 100 100 83 85 73 80 100 100 100 100 85 79 78 79 80 82 77 67 63 54 64 61 56 56 46 53 44 70 53 32 39 39 30 27 22 22 21 92 100 100 100 100 94
91 100 100 98 89 95 100 100 100 96 96 100 100 90 99 98 87 82 80 80 84 83 68 60 60 55 58 48 52 49 48 53 46 95 44 32 40 41 33 31 28 25 24 20 52 100 100 100 100
100 100 100 100 100 100 100 100 100 100 98 98 100 100 99 99 99 92 88 86 91 85 80 68 57 54 59 45 48 51 50 48 60 99 38 32 40 47 42 41 41 36 33 28 26 21 37 87 100
100 100 100 100 100 100 100 100 100 99 93 93 95 100 99 97 90 78 72 76 74 68 72 79 53 49 44 47 53 48 46 53 96 94 40 36 40 53 62 53 46 57 41 41 34 31 22 19 21

GFSSGP_250_rhum_111.txt.gz
RH
62 55 50 45 40 47 51 63 49 35 22 24 30 31 25 23 23 25 26 26 24 25 27 27 27 25 29 27 27 23 20 20 19 20 19 20 20 16 13 12 12 13 13 14 17 19 31 39 35
60 57 52 43 45 45 65 83 72 42 28 40 46 38 32 26 34 36 35 34 40 36 33 35 40 42 41 37 31 25 23 21 20 22 25 26 21 16 13 12 11 15 25 28 25 20 18 32 62
72 68 60 50 49 95 100 100 100 81 65 59 62 49 40 36 47 45 46 48 53 47 43 42 68 72 58 50 34 28 24 21 23 24 29 28 22 16 14 15 13 13 20 30 28 40 30 43 64
81 76 68 63 63 74 98 100 100 60 75 54 63 70 52 44 53 72 63 62 76 62 56 49 93 98 73 52 40 31 25 23 25 26 34 31 24 19 16 18 20 20 19 22 29 52 43 76 89
94 79 81 70 67 89 94 100 85 67 67 60 67 78 56 62 67 76 100 100 88 72 61 70 95 100 74 52 49 33 25 25 27 30 34 34 30 24 19 21 19 22 36 28 29 65 94 100 100
63 66 74 83 88 100 94 100 94 75 65 69 73 95 63 66 70 100 100 100 98 82 69 61 70 91 77 64 52 38 26 26 30 31 37 34 33 26 22 20 27 27 22 60 70 79 100 100 100
79 82 73 65 90 95 100 100 100 100 94 91 100 99 62 55 76 69 98 100 100 79 77 63 78 100 100 67 54 41 32 27 29 32 35 39 36 31 24 23 23 44 27 28 32 45 70 92 100
50 49 56 72 87 100 100 100 100 100 100 100 85 79 78 75 71 77 100 100 100 89 82 69 79 100 100 88 62 44 39 35 32 38 38 43 38 29 27 24 24 39 40 31 31 26 32 82 100
63 41 42 41 59 55 79 95 100 100 100 100 100 72 69 88 71 70 100 92 100 100 96 95 100 100 100 99 68 50 46 44 37 39 39 36 34 30 27 26 23 46 60 45 36 50 50 68 100
71 54 57 54 51 43 43 45 72 87 92 87 81 74 89 100 98 93 99 100 88 99 86 85 100 100 100 100 75 59 48 46 44 40 37 31 34 35 29 25 26 26 83 85 42 41 66 68 67
66 52 62 51 56 54 49 50 50 45 40 41 37 44 43 37 52 100 100 100 99 100 92 79 87 100 100 100 90 70 50 50 45 44 40 35 32 34 31 29 28 50 88 97 79 72 80 79 58
36 44 56 71 68 62 54 59 55 38 30 28 30 30 25 29 90 78 100 100 100 100 100 79 100 100 100 100 100 78 58 59 49 51 42 38 37 34 35 34 34 60 76 98 83 70 66 65 63
31 33 41 53 65 58 67 55 58 52 44 38 29 30 28 32 93 94 74 77 81 100 100 95 94 98 100 100 100 89 69 66 63 46 39 40 40 36 32 47 34 56 76 84 75 46 55 34 38
25 23 28 34 40 57 56 75 60 49 54 54 43 37 37 35 52 100 98 85 79 88 100 96 91 73 100 100 100 95 92 80 58 53 51 43 38 36 44 43 37 32 40 79 74 60 41 22 21
23 18 20 22 28 36 61 51 53 70 50 52 55 46 39 37 33 58 100 100 91 74 94 100 73 61 97 100 100 100 100 95 79 65 53 44 42 37 64 41 44 38 36 55 62 43 26 25 22
18 14 13 16 18 24 59 41 49 72 72 55 59 57 48 44 31 38 44 77 97 100 96 100 99 100 100 100 100 100 100 100 92 72 48 52 48 49 59 42 50 42 39 50 47 38 28 26 39
12 11 11 20 19 23 29 47 77 76 62 76 60 51 52 41 45 32 41 58 100 100 100 84 94 100 100 100 100 100 100 100 100 82 64 60 52 61 41 45 46 44 43 52 48 30 21 19 27
14 15 16 16 32 33 35 25 70 100 80 56 82 57 42 42 42 51 38 46 98 100 98 97 71 98 100 100 98 100 100 100 100 83 73 65 62 52 44 47 43 44 44 47 47 26 18 15 21
10 9 10 11 17 25 22 24 69 100 97 58 64 73 49 48 45 57 48 52 77 97 98 81 79 70 100 100 100 100 78 100 100 100 71 71 58 42 50 48 46 44 45 46 46 24 16 16 24
8 8 8 11 14 16 20 18 36 60 82 78 79 81 75 56 58 54 58 50 61 70 86 100 100 96 100 100 63 73 99 100 100 94 86 74 54 40 58 52 52 44 44 48 48 23 15 17 25
8 8 9 11 16 16 16 20 34 52 62 65 72 81 87 83 66 62 58 51 53 55 56 76 89 100 100 100 100 93 98 99 93 95 88 77 54 57 57 55 51 46 43 50 44 22 15 19 36
6 8 12 13 18 19 19 19 26 46 42 54 99 100 100 75 69 57 52 58 59 70 79 57 57 74 94 100 100 96 98 100 100 94 78 73 71 68 61 60 52 48 45 50 40 21 15 28 66
5 6 9 11 12 17 24 20 25 36 43 56 91 100 90 65 61 63 72 85 66 63 99 100 100 100 100 100 100 100 100 98 97 84 70 75 67 58 65 55 55 52 48 50 31 21 18 73 99
6 5 7 9 11 12 26 24 29 30 43 63 67 100 100 100 80 76 70 76 84 74 75 100 100 100 100 100 100 100 100 100 92 73 70 75 63 59 59 51 58 54 53 46 25 19 18 83 100
5 5 8 11 10 18 25 22 50 36 49 51 54 78 100 100 99 88 77 68 65 81 75 88 97 100 100 100 100 100 96 95 75 69 76 76 72 68 58 53 61 53 56 38 26 20 19 94 99
6 13 15 18 20 27 28 25 47 51 49 46 49 54 97 100 100 96 92 85 73 70 82 98 84 93 77 92 100 100 86 68 78 92 100 91 77 71 56 53 57 52 56 30 27 22 19 100 100
8 12 12 18 22 21 24 38 44 56 59 73 60 51 57 82 100 100 100 95 86 76 70 81 75 70 75 78 100 100 90 100 94 88 88 90 90 88 60 64 60 53 49 28 30 24 18 92 100
14 11 19 22 25 32 39 50 56 61 66 73 75 64 63 76 96 100 100 96 91 93 80 72 92 81 79 73 84 93 83 71 56 76 99 91 96 68 68 80 62 57 47 29 30 25 22 43 100
18 25 35 38 71 86 82 90 74 100 100 84 78 72 75 71 84 81 76 96 98 90 74 76 88 100 100 99 73 86 80 80 66 73 100 100 100 81 73 92 61 60 40 31 27 26 26 28 83
22 32 46 94 92 100 100 100 100 100 100 100 100 100 62 62 60 59 64 75 77 87 74 86 99 100 100 97 74 80 72 64 67 86 100 100 100 78 94 83 64 68 37 32 35 30 27 27 33

GFSSGP_250_rhum_114.txt.gz
RH
62 54 50 45 40 36 55 82 74 49 26 29 28 23 28 24 21 25 27 24 20 21 22 24 23 22 24 21 23 27 26 30 26 23 20 18 24 24 22 19 17 15 13 12 11 12 15 15 16
79 71 64 52 48 51 68 94 72 52 34 30 31 33 49 40 35 36 32 30 31 30 31 31 30 30 30 28 42 54 48 33 33 26 21 20 26 26 25 22 17 16 15 14 14 13 15 24 22
74 75 72 59 60 61 71 99 81 63 47 65 74 63 83 79 56 48 44 38 40 47 46 40 49 45 34 34 56 86 59 44 40 29 22 25 29 27 28 24 20 16 17 17 18 19 17 27 34
57 56 63 54 66 63 76 96 86 70 62 56 70 63 65 78 64 47 51 47 52 64 48 83 90 74 44 41 48 68 43 45 44 31 25 26 29 31 32 28 20 17 17 21 22 24 21 30 63
53 48 52 53 58 68 82 96 100 65 66 79 81 76 80 71 68 53 63 53 50 65 99 100 100 66 53 56 45 49 82 47 44 36 27 26 29 34 36 29 22 19 18 18 31 27 28 34 81
58 56 55 48 42 41 62 97 100 85 80 73 69 80 79 64 61 84 87 73 54 78 79 78 93 75 66 63 54 79 84 62 45 40 37 29 33 36 32 30 24 23 20 22 25 34 28 54 98
67 59 51 48 54 56 83 80 100 100 91 87 69 74 82 98 98 99 100 93 62 83 75 98 100 97 69 63 56 83 99 79 46 46 43 40 39 39 29 27 27 25 23 31 42 42 31 30 56
64 52 66 74 91 50 82 91 93 100 84 67 83 85 95 100 100 100 100 98 90 92 90 94 100 99 82 92 57 99 100 91 49 50 46 42 46 40 34 35 32 31 26 24 38 54 37 28 31
63 57 46 52 60 97 63 61 71 83 78 93 92 82 86 89 100 100 100 100 91 82 99 95 82 92 97 85 66 98 100 99 57 51 47 46 52 46 39 39 33 32 27 25 30 48 53 34 51
51 46 43 39 44 54 96 70 56 54 59 73 90 100 100 99 83 100 100 100 100 81 77 100 100 100 90 96 82 100 100 100 74 58 52 49 48 53 38 41 36 37 32 30 32 54 83 55 50
50 42 50 38 35 38 53 98 99 61 44 52 59 61 70 97 99 79 67 59 100 100 100 100 100 100 94 100 82 85 100 100 93 60 56 50 55 49 43 41 34 42 36 30 34 52 83 93 88
70 70 57 54 39 37 35 48 85 98 60 46 41 44 43 42 52 43 35 35 87 100 100 100 100 100 85 100 91 100 100 100 93 81 70 54 66 52 51 45 39 41 46 35 39 48 78 89 88
84 53 53 58 39 32 33 33 41 73 71 56 47 45 36 32 34 32 32 34 51 100 100 96 100 100 93 84 80 100 100 100 100 91 80 54 73 65 57 52 48 43 46 36 37 38 65 82 79
41 46 47 42 39 32 23 23 32 35 73 61 67 56 48 42 34 27 34 35 44 83 73 77 84 98 100 93 99 100 100 98 100 99 80 67 84 78 72 60 57 58 42 38 36 36 36 66 65
36 34 32 30 31 22 21 18 22 26 36 72 61 69 58 52 49 39 34 36 36 45 100 99 98 80 87 78 67 82 89 100 100 100 90 81 99 88 82 75 64 55 41 43 36 40 39 58 61
28 25 23 28 26 26 24 15 21 24 30 44 70 71 67 76 52 45 42 44 37 38 56 100 100 90 86 100 96 100 100 100 100 100 100 100 100 85 96 88 77 51 39 49 41 40 45 48 46
24 22 22 21 20 17 16 12 20 22 24 29 52 59 83 86 74 52 43 43 48 41 43 50 63 80 100 90 87 92 100 100 100 100 100 100 96 89 100 94 73 54 43 46 46 38 42 47 45
16 14 12 13 17 15 14 9 14 19 21 23 35 43 88 78 74 67 50 39 54 54 51 49 53 78 96 99 74 53 80 100 100 100 100 100 78 92 100 94 73 55 49 47 46 38 42 49 43
8 8 8 9 14 11 10 9 12 12 16 19 24 35 70 78 99 83 62 48 44 60 50 44 50 98 100 100 100 100 60 98 100 100 100 99 87 97 100 90 72 58 60 43 47 39 39 48 43
6 6 7 8 12 10 10 8 11 13 12 14 20 25 50 84 76 85 81 59 47 43 43 45 46 75 100 100 100 100 75 83 95 61 87 85 97 79 100 77 72 60 56 49 50 38 38 46 39
5 5 7 8 10 9 9 9 11 12 15 20 26 26 49 96 96 69 66 65 55 40 39 48 53 58 91 100 100 100 100 100 100 100 99 80 88 100 100 88 70 60 53 47 46 40 37 46 40
4 5 6 7 7 8 7 8 11 14 14 17 30 38 48 80 81 80 92 84 68 55 53 60 60 58 71 73 88 88 65 64 82 95 84 94 100 100 100 84 63 54 58 56 48 41 38 43 35
4 4 4 5 5 5 6 8 16 16 17 15 28 38 48 59 97 97 81 84 84 77 80 66 66 62 63 72 91 89 70 50 57 98 100 100 100 100 93 78 52 61 75 70 50 41 40 44 25
4 4 5 6 6 6 8 11 22 18 24 19 21 29 46 51 58 77 84 83 100 100 100 82 69 62 65 75 94 100 100 100 97 100 100 100 100 96 90 85 66 82 73 75 53 42 45 43 23
4 6 6 6 7 9 10 14 24 24 27 23 27 26 51 71 80 94 100 100 96 98 91 86 80 89 70 64 95 100 100 100 94 100 98 99 98 82 79 81 91 82 96 71 53 42 49 41 24
6 6 8 10 12 12 15 24 22 29 58 36 36 29 33 51 75 92 92 95 96 96 91 85 93 97 97 90 78 93 100 100 100 98 100 86 84 87 94 94 83 98 97 66 57 46 50 35 22
7 8 11 9 12 16 21 23 23 23 98 100 95 45 47 60 72 76 70 96 100 90 96 90 90 83 69 77 96 93 93 100 99 95 90 100 98 76 80 100 100 99 99 66 63 50 47 36 25
10 9 10 14 16 16 24 19 19 23 31 90 65 46 37 46 52 54 65 79 100 100 100 100 100 97 96 83 68 76 89 100 82 74 98 87 68 97 100 100 100 100 98 72 67 54 43 37 28
12 13 18 20 25 29 44 38 46 44 42 48 69 54 49 50 59 63 73 77 90 100 100 100 100 100 100 92 90 76 67 73 71 65 71 100 99 100 100 100 100 100 99 68 64 56 41 35 31
17 20 29 30 39 66 100 83 80 72 76 74 100 73 52 55 60 64 78 84 98 98 100 100 100 100 93 89 85 67 60 67 71 71 89 100 100 100 100 100 100 100 97 74 59 58 40 36 32

GFSSGP_250_rhum_117.txt.gz
RH
42 38 42 46 38 33 43 72 86 60 18 21 21 20 20 23 35 27 30 30 22 21 24 20 19 19 18 18 19 17 15 17 20 22 22 20 21 21 20 20 22 22 20 16 15 14 13 12 12
53 54 55 62 57 53 66 81 85 54 33 25 23 23 25 28 33 34 38 43 43 37 32 30 27 24 21 21 24 20 18 19 30 30 25 27 26 22 24 26 27 25 20 16 16 15 14 15 16
51 56 87 69 75 70 75 97 90 70 46 35 29 29 34 37 39 86 72 62 54 48 43 40 34 34 29 34 39 33 30 24 32 32 32 37 29 24 26 28 29 25 23 21 17 20 16 20 20
56 63 55 52 53 62 63 71 77 77 58 54 45 39 49 51 53 70 72 88 89 61 52 46 44 41 44 74 75 50 31 27 35 51 42 41 36 32 26 31 34 26 23 18 16 17 16 18 33
55 52 52 56 60 61 64 64 68 69 62 62 47 41 43 52 56 95 91 77 73 58 57 81 68 48 54 61 64 51 44 34 45 66 62 42 40 39 29 36 37 29 30 21 19 20 19 29 33
50 51 51 55 66 66 66 60 71 85 70 59 45 46 47 49 56 71 79 67 80 70 67 99 89 58 50 48 70 81 54 42 50 90 78 43 40 40 37 42 38 34 35 27 21 21 20 28 34
64 51 43 50 52 54 68 59 62 68 62 64 50 43 42 45 51 67 66 62 71 83 100 100 79 72 82 76 95 98 66 71 42 80 90 50 42 43 40 42 39 41 38 29 25 20 20 20 29
97 88 67 70 78 61 65 56 66 80 78 69 64 64 86 75 55 58 68 65 83 100 100 100 89 90 80 86 78 91 100 59 64 62 93 82 50 49 41 39 39 45 38 32 27 26 22 25 60
60 58 64 66 92 90 78 63 58 53 63 65 55 65 70 96 91 85 87 82 100 100 100 100 100 85 63 73 88 80 87 71 70 73 77 95 65 52 50 38 40 54 50 42 35 32 28 29 37
83 81 87 90 89 70 59 53 52 49 47 50 54 49 49 68 100 93 82 75 90 100 100 100 100 98 68 64 97 100 94 84 78 60 83 98 91 61 60 44 52 69 52 50 47 35 28 27 38
78 54 52 45 46 42 45 49 66 53 46 45 43 47 48 42 60 100 100 99 100 98 100 100 100 100 92 63 96 100 100 94 79 66 95 100 83 77 75 54 63 66 63 60 56 36 30 27 32
50 52 53 62 50 59 62 64 61 65 51 40 34 37 49 54 43 50 96 99 100 100 99 100 100 89 86 87 94 100 100 98 98 67 64 100 98 94 88 66 73 81 71 66 59 38 30 31 32
70 74 94 99 100 100 96 93 100 85 56 56 38 31 34 54 64 47 50 66 66 84 64 58 53 47 96 100 100 99 96 100 93 71 88 75 99 100 100 79 83 91 81 73 58 41 34 34 30
100 100 91 74 50 37 53 55 60 42 44 39 34 36 31 35 50 57 58 46 43 47 54 62 46 34 55 76 82 86 83 95 91 86 76 59 100 100 100 93 97 100 85 83 66 54 40 33 32
99 92 82 95 81 34 33 35 36 41 36 40 32 32 25 26 37 51 78 62 44 40 51 57 45 39 66 80 86 96 92 100 100 88 71 86 100 100 100 100 100 100 92 84 68 60 48 39 34
74 58 35 43 66 46 30 26 30 74 78 51 35 31 24 18 27 36 66 82 58 43 55 56 45 41 58 92 100 86 75 78 83 88 100 99 98 100 100 100 100 99 100 85 71 60 56 49 35
26 28 27 28 39 37 35 27 36 53 37 29 30 29 26 17 17 28 50 96 66 52 56 46 46 47 44 54 76 81 78 86 100 100 100 100 100 100 100 100 100 100 100 91 72 61 52 46 34
28 26 26 25 31 29 24 18 17 24 22 20 21 22 23 18 18 26 45 100 80 63 49 60 53 48 44 43 44 52 65 66 82 91 83 94 100 100 90 63 97 100 100 97 78 67 52 46 39
24 19 18 16 17 19 14 13 14 15 14 15 16 17 18 17 20 23 34 100 99 69 58 50 48 47 49 45 49 69 80 60 83 94 94 100 89 63 54 65 100 100 100 97 83 59 50 52 42
20 11 9 8 10 9 8 9 10 9 9 13 14 16 16 17 20 22 29 58 71 65 72 54 46 51 61 52 56 60 100 70 57 61 82 95 84 82 84 100 90 98 100 97 76 51 59 56 46
8 8 7 5 6 5 5 4 6 7 8 11 12 14 16 18 20 24 24 23 50 70 80 66 47 50 74 66 59 62 93 85 80 100 100 100 99 93 96 92 87 98 100 97 77 51 66 63 52
7 5 4 4 4 4 4 4 6 9 8 11 13 12 12 13 16 22 23 25 43 60 79 73 58 56 66 65 67 76 78 65 44 55 82 100 91 65 58 88 100 100 100 90 72 57 83 60 56
3 3 3 3 3 3 4 5 7 8 9 11 12 12 13 14 15 19 24 31 36 49 87 92 74 62 67 69 75 74 79 94 93 61 96 100 99 77 76 100 100 100 93 87 73 70 72 61 51
3 3 3 3 3 4 3 5 6 8 10 14 16 15 14 15 16 19 26 38 41 79 100 100 85 72 72 63 67 69 74 85 100 100 92 98 86 81 100 100 100 100 96 99 88 76 72 68 51
3 3 4 4 4 4 5 7 7 7 11 15 18 18 17 18 19 23 28 41 57 100 100 100 100 84 80 64 70 78 99 96 86 100 100 100 92 93 100 100 100 100 99 99 84 70 94 65 57
4 4 4 4 4 5 7 8 8 10 14 21 19 22 20 22 22 25 35 47 67 100 100 100 100 100 85 75 66 78 100 100 100 100 100 95 92 82 85 100 100 100 100 78 83 80 100 69 66
5 5 5 6 6 6 8 10 12 16 34 75 41 38 33 33 31 32 38 45 55 99 100 100 100 100 99 92 84 72 77 96 100 97 100 100 100 100 100 100 100 95 93 79 89 76 85 71 68
7 8 8 7 7 9 8 12 15 24 67 100 99 73 44 41 48 48 40 48 58 84 100 100 100 100 100 100 100 100 82 64 78 73 84 92 95 95 88 93 87 82 99 98 80 86 74 81 56
9 9 9 11 9 10 10 15 27 32 42 100 100 100 100 61 61 50 53 53 55 65 92 99 100 100 95 100 100 100 100 96 81 73 65 68 73 74 94 100 94 100 100 100 90 82 72 82 65
13 12 12 13 13 16 18 17 30 42 75 100 100 100 65 57 54 37 37 40 52 66 80 96 100 100 100 100 100 100 100 100 100 100 79 80 75 74 96 100 100 100 100 100 82 76 78 96 78

GFSSGP_250_rhum_120.txt.gz
RH
40 38 30 30 33 38 44 55 66 43 30 28 26 24 23 21 20 21 24 22 28 27 22 20 21 21 20 17 15 19 19 20 17 19 17 19 21 18 24 18 21 20 19 19 18 16 14 14 14
39 40 37 39 40 45 58 77 53 46 40 30 24 22 22 22 22 22 28 29 31 32 29 33 35 31 29 24 24 24 20 24 24 24 23 26 20 24 24 24 24 24 22 22 22 18 15 15 14
28 30 36 36 37 67 87 78 89 83 54 44 40 35 36 38 34 36 36 35 30 34 34 44 60 50 37 40 32 28 27 38 29 29 26 23 32 33 32 31 25 27 24 24 25 19 15 16 16
24 22 26 24 34 64 63 76 60 87 79 70 73 53 45 40 37 49 45 47 41 39 39 44 59 60 47 46 48 47 31 33 35 30 26 34 45 41 38 38 30 30 28 30 29 21 18 17 17
61 46 30 27 52 67 60 66 69 70 66 51 46 46 54 45 42 50 56 61 58 50 46 58 59 58 56 47 56 66 45 35 37 34 30 46 75 54 43 39 34 32 34 33 34 32 26 21 18
54 51 49 49 53 64 73 61 70 80 66 38 38 42 49 47 54 54 52 51 54 59 55 58 54 62 58 54 72 73 55 41 50 49 38 46 66 63 56 45 38 32 38 36 42 38 40 31 20
66 69 59 57 60 58 61 50 52 50 55 53 45 50 53 50 47 48 52 45 54 52 58 57 58 58 64 66 79 76 80 54 49 62 53 45 58 69 78 63 48 32 33 42 49 50 45 34 23
67 56 57 53 89 100 100 76 52 50 70 67 57 57 58 57 55 49 53 57 68 82 90 78 71 71 80 76 77 100 94 64 53 48 69 51 50 53 73 84 57 37 35 49 50 54 55 35 26
58 52 53 58 64 73 84 82 81 68 67 79 73 60 59 54 51 59 63 71 72 75 89 100 95 80 99 100 100 100 98 73 59 68 90 72 49 60 78 95 84 51 50 53 53 60 59 38 30
68 59 67 56 63 74 94 82 97 81 80 95 84 71 57 51 49 47 53 73 76 97 87 100 100 96 100 100 100 95 94 81 70 69 66 84 56 65 82 95 76 75 62 60 65 66 67 50 37
51 50 70 90 74 68 86 98 97 99 84 59 53 46 40 40 39 45 45 44 72 80 100 100 95 98 100 100 100 66 74 75 72 74 91 84 61 60 78 100 96 91 76 71 73 71 72 60 44
82 81 66 96 85 82 78 62 56 55 65 65 71 63 54 54 41 33 40 43 42 65 76 100 100 100 97 79 71 51 66 65 66 93 100 90 72 63 63 98 99 100 95 80 86 77 75 65 51
92 84 70 58 55 54 44 51 52 55 74 93 100 94 72 58 52 46 31 37 42 44 61 76 98 100 100 94 93 81 71 65 92 100 96 77 72 64 63 78 99 100 100 93 85 90 77 70 52
55 55 51 55 57 69 75 74 77 100 100 100 100 90 61 39 50 50 39 29 34 43 47 58 75 87 99 88 79 61 44 49 86 100 80 77 77 62 57 66 100 100 100 100 89 92 81 77 60
52 62 89 98 100 100 100 100 100 100 85 83 99 78 83 44 36 43 38 36 35 33 48 57 78 69 70 76 66 51 40 48 64 91 96 77 87 80 62 95 100 100 100 100 94 99 80 78 65
100 100 97 97 92 80 69 63 61 43 36 65 49 53 96 90 69 34 35 33 28 29 37 52 93 76 58 54 58 50 44 53 74 73 99 100 95 71 98 98 95 90 100 100 99 100 86 82 64
100 91 84 74 59 50 48 43 32 38 39 35 40 35 39 38 42 33 29 27 27 27 32 47 88 96 63 51 42 47 68 79 100 99 94 100 99 90 100 100 99 99 100 100 98 99 89 90 60
58 49 39 37 34 26 27 26 26 28 29 28 30 36 44 43 43 29 28 24 23 24 25 42 85 98 71 56 44 44 63 72 63 67 76 93 100 100 80 99 85 50 67 97 90 93 93 94 69
34 35 29 27 32 31 26 23 23 23 27 20 28 34 40 41 60 56 17 18 18 20 20 35 63 93 81 59 48 46 48 46 60 73 63 69 72 91 97 94 82 64 67 73 99 88 91 94 76
45 31 26 22 22 17 17 14 15 14 15 15 16 22 33 38 42 46 22 18 19 18 20 30 42 79 89 61 58 53 51 47 50 59 59 100 85 67 72 100 100 84 70 70 85 84 100 99 84
26 22 21 15 12 9 8 8 8 8 9 10 12 14 16 19 20 22 18 18 15 14 19 28 34 93 96 72 65 55 54 56 54 58 57 70 70 79 97 100 91 81 76 60 78 100 100 98 93
21 16 10 8 6 5 4 4 5 4 5 5 6 7 9 12 15 16 14 15 11 15 21 28 38 100 100 85 76 62 62 55 52 66 60 62 83 100 100 88 85 94 79 80 83 100 100 88 100
14 9 6 6 5 4 3 3 3 3 3 4 5 6 7 8 10 11 12 12 13 18 22 30 38 100 100 94 84 73 63 64 57 59 52 87 71 80 95 100 100 100 100 100 88 100 100 93 100
6 5 4 3 3 3 3 3 3 3 3 4 4 6 8 9 9 9 9 11 14 17 22 34 38 88 100 100 100 77 68 64 64 57 63 80 100 94 99 100 100 100 100 100 100 100 100 100 96
4 3 3 3 3 3 3 4 4 3 4 4 5 6 7 9 10 10 10 12 16 18 25 35 40 69 100 100 100 86 77 77 72 76 62 80 76 86 100 100 100 100 100 98 100 100 100 100 85
4 4 3 4 4 4 4 5 5 6 7 7 9 10 11 11 12 13 13 16 18 20 26 40 47 58 100 100 100 100 86 82 82 84 75 90 89 70 100 100 100 100 100 94 100 100 100 92 97
5 5 4 5 5 5 6 5 6 9 9 9 13 20 22 18 18 18 17 17 19 21 25 30 38 54 100 100 100 100 92 82 84 90 78 100 99 78 100 100 94 100 96 87 98 100 96 100 100
6 6 6 6 6 6 7 8 8 10 11 12 14 36 34 30 30 26 24 24 24 26 33 38 49 66 95 100 100 100 98 91 93 92 90 100 100 100 78 100 100 100 100 100 100 100 100 100 100
9 10 10 10 9 9 7 9 9 11 18 40 56 94 100 46 52 39 33 31 34 40 40 43 59 81 100 100 100 100 100 100 100 92 87 86 97 83 98 100 100 100 100 100 100 99 99 100 90
13 14 14 12 14 15 13 19 22 19 21 43 37 63 93 99 65 56 48 40 47 46 53 60 78 73 66 100 100 100 100 100 100 100 100 96 81 86 86 95 99 100 100 100 98 84 86 82 93

GFSSGP_250_rhum_123.txt.gz
RH
32 34 34 36 30 30 34 54 57 48 40 38 38 40 40 38 34 33 32 29 27 26 24 21 20 20 20 18 17 18 16 17 17 18 18 17 23 19 17 19 15 16 17 16 17 17 15 14 14
38 36 34 33 34 35 53 50 40 31 27 28 26 26 27 28 26 26 27 28 27 28 27 25 24 26 24 22 21 24 25 21 23 27 19 25 28 22 21 21 23 26 27 24 24 24 21 19 16
26 35 48 43 31 38 48 38 35 33 29 34 37 34 37 32 29 25 29 30 32 31 40 36 29 28 34 33 34 36 39 32 34 37 28 27 28 27 27 32 28 35 35 31 27 27 24 23 17
28 23 23 23 25 26 22 20 23 28 30 32 35 42 40 37 31 37 40 38 35 35 38 48 47 36 42 44 48 52 52 46 44 49 39 31 29 30 34 49 44 39 39 33 31 28 29 30 25
41 34 35 36 54 50 35 24 25 25 24 25 37 51 58 52 58 58 40 36 39 36 34 42 50 47 52 57 62 75 59 54 50 64 50 40 34 35 57 63 74 50 41 32 34 34 32 37 33
49 48 52 58 66 56 52 52 53 41 31 28 23 35 36 40 36 35 35 34 33 37 36 44 52 51 51 59 65 65 59 61 60 64 58 48 45 33 47 74 64 67 57 40 34 32 36 45 42
49 46 46 49 52 67 88 76 60 57 56 44 38 41 49 50 52 45 39 38 37 40 43 43 45 45 53 54 65 69 66 66 63 56 79 63 49 42 44 51 58 80 83 54 48 38 41 48 49
72 67 51 65 66 75 69 68 65 58 62 62 57 61 65 64 63 63 58 54 49 43 40 42 46 49 56 69 68 98 90 76 66 67 84 72 60 55 50 44 55 64 97 72 60 53 53 56 53
46 48 58 68 69 69 64 62 62 59 67 87 98 95 81 68 63 55 56 65 61 57 53 54 53 46 54 60 68 87 86 95 72 100 76 72 70 56 54 70 48 89 87 92 73 64 70 64 59
44 34 62 53 56 58 60 72 85 75 71 64 59 72 71 74 75 71 78 72 64 54 48 49 50 62 52 52 60 92 85 89 75 100 67 73 64 60 59 70 53 73 97 85 81 72 71 76 68
38 37 42 42 46 49 50 44 54 78 95 98 81 83 72 79 74 66 65 57 53 48 50 52 48 56 60 70 55 68 72 73 83 92 74 64 69 60 69 94 57 53 94 94 91 94 81 82 79
46 51 46 40 40 42 72 79 68 73 84 100 100 100 83 82 67 75 59 49 42 43 47 40 49 49 73 61 76 75 85 71 65 75 77 75 78 62 91 85 65 58 85 91 100 100 100 91 75
72 69 64 61 69 62 58 69 77 88 78 100 100 99 91 74 63 56 54 51 70 79 42 34 36 53 54 88 65 89 92 88 67 77 84 96 78 65 65 85 71 67 64 87 100 100 100 96 82
57 65 55 56 64 63 74 71 61 82 72 93 100 93 68 68 58 67 85 92 96 81 81 63 29 40 48 56 93 65 89 92 80 70 71 80 82 94 88 77 81 71 59 78 100 100 100 100 90
40 52 57 61 66 67 67 61 59 76 76 69 71 78 98 100 98 90 72 76 91 97 87 68 45 31 41 47 60 89 68 87 86 75 52 50 75 91 80 99 76 73 64 100 82 99 100 100 96
36 36 36 47 48 50 59 61 95 86 65 67 71 71 100 100 100 100 92 85 78 86 67 77 68 56 37 40 53 74 77 72 79 70 61 49 54 93 86 86 79 75 100 100 96 98 91 100 91
37 39 38 47 78 84 87 81 91 100 100 100 100 98 100 100 100 90 67 50 43 50 55 62 71 64 43 41 46 57 80 74 65 61 59 46 54 88 76 88 80 69 83 100 99 89 78 80 88
44 46 45 46 60 60 71 66 61 61 66 78 88 71 66 62 55 56 47 47 55 49 51 46 45 44 40 36 39 51 64 82 79 80 83 62 66 82 100 100 91 70 71 78 99 82 52 64 82
39 39 43 50 60 32 28 26 28 34 34 31 36 30 35 37 40 50 54 43 43 44 40 41 38 35 39 38 39 44 53 75 100 72 88 69 68 62 71 71 73 85 60 98 79 73 68 84 80
46 52 57 51 48 38 32 20 21 22 24 20 12 18 23 27 36 34 39 51 29 30 32 31 36 39 30 31 37 38 50 70 97 68 78 72 84 66 54 48 59 71 76 94 80 62 74 90 80
46 43 38 33 32 25 16 12 11 12 9 12 11 10 11 12 19 25 31 37 33 20 21 22 30 26 24 32 34 52 44 62 98 81 84 70 64 63 62 59 73 86 100 83 72 87 84 65 92
42 37 27 18 14 12 9 8 8 8 8 8 9 9 10 10 12 14 18 26 26 16 16 16 18 20 23 30 44 44 36 65 100 87 73 60 71 59 61 71 80 83 93 98 100 83 87 95 97
32 18 16 13 9 7 6 6 6 5 4 4 4 4 4 5 6 9 14 17 18 15 13 15 15 19 27 34 45 41 33 40 97 94 78 61 74 65 89 80 95 100 97 100 100 100 87 100 100
17 15 11 8 7 6 5 4 3 3 3 3 3 3 3 3 4 6 9 14 17 14 13 13 20 25 25 26 33 28 34 36 89 94 85 67 53 51 76 96 100 100 100 100 100 100 78 91 100
14 9 8 6 4 3 3 3 3 3 3 3 3 3 3 3 4 4 6 9 11 12 15 16 20 22 21 29 34 34 36 43 89 94 98 67 53 49 43 78 100 100 100 100 100 94 54 97 67
10 8 5 4 4 4 4 4 5 5 5 4 4 4 4 4 4 5 6 8 10 10 12 16 18 22 27 29 28 37 44 62 96 91 94 72 68 69 52 66 80 97 100 100 100 87 99 100 100
11 6 6 6 6 6 6 6 6 5 5 6 6 6 6 6 6 7 9 9 10 12 14 17 21 22 44 34 55 98 65 73 100 97 92 82 72 72 66 90 79 92 100 100 79 98 100 100 98
8 7 8 8 9 10 10 8 7 8 8 8 8 10 11 12 11 13 15 16 15 17 19 20 20 20 34 60 93 61 94 100 100 98 100 87 93 77 71 84 100 93 100 86 79 92 100 100 100
9 9 11 11 11 12 15 13 11 10 10 12 16 17 27 25 31 26 26 24 29 26 20 21 23 28 38 93 100 85 100 100 100 100 92 100 100 92 79 75 97 100 93 100 100 100 100 100 100
10 13 14 14 14 16 19 16 12 12 14 12 22 25 36 31 92 98 52 42 43 35 31 29 41 56 45 96 91 100 100 100 100 100 100 100 100 98 81 79 97 100 100 100 100 100 100 100 100

GFSSGP_250_rhum_129.txt.gz
RH
38 36 38 38 42 40 43 57 61 68 74 74 71 75 74 66 60 61 57 52 46 40 31 34 39 42 40 37 35 34 33 30 28 27 28 27 23 22 20 20 24 21 24 18 20 16 17 18 18
18 27 42 44 46 46 53 39 41 34 35 46 52 52 50 45 40 38 39 39 38 28 21 21 23 24 28 28 26 24 25 27 28 28 30 31 28 25 27 28 31 31 31 26 24 20 21 22 24
19 22 29 33 38 42 38 36 37 36 33 29 28 28 26 26 27 26 24 23 26 27 27 26 23 23 22 22 20 25 28 30 35 35 35 36 42 37 38 41 34 38 36 29 38 39 28 38 31
26 24 20 19 19 21 23 24 24 25 25 26 31 31 29 23 28 27 27 26 28 26 25 25 23 25 24 32 32 31 34 35 39 40 43 42 48 50 62 64 53 46 39 34 46 57 62 53 46
29 26 25 26 27 25 22 26 24 24 22 21 20 20 22 23 26 27 25 24 22 21 22 22 24 28 28 28 27 28 32 37 42 42 40 48 57 60 71 76 60 55 48 41 39 68 90 71 68
33 29 30 26 29 35 35 38 29 29 26 29 25 31 26 21 26 24 25 27 26 28 27 26 27 26 25 24 24 25 28 29 35 40 49 53 74 71 76 67 71 67 64 46 41 43 69 87 85
35 38 40 36 37 48 48 54 52 50 41 30 44 34 24 20 41 33 30 31 33 36 37 41 39 39 38 36 37 37 36 33 32 36 48 43 55 63 66 75 83 81 89 62 56 55 50 78 83
46 47 57 53 46 63 63 84 80 68 75 60 38 41 41 24 43 31 35 37 34 32 36 38 45 45 45 50 53 47 47 38 36 35 36 36 45 57 92 100 93 100 100 85 71 71 74 73 98
79 48 65 78 65 79 70 74 80 80 89 73 61 52 28 46 44 52 50 47 45 40 64 74 68 60 70 66 55 50 50 46 39 39 35 38 42 68 87 99 100 100 94 79 80 100 100 72 98
100 100 90 64 71 61 82 68 72 71 86 92 77 64 49 64 61 61 59 60 60 59 55 48 50 54 78 76 62 62 58 55 50 44 40 37 41 54 100 96 100 100 100 94 80 90 95 93 79
98 88 79 100 100 100 98 93 87 98 100 100 100 92 76 64 64 63 61 71 76 72 65 57 56 60 57 56 70 60 64 53 56 49 45 45 39 42 70 91 96 100 83 77 94 100 87 91 64
86 73 97 100 100 100 100 100 100 100 100 100 100 100 100 97 94 73 71 73 74 82 81 75 71 76 68 64 75 63 55 51 51 55 48 50 48 46 53 68 88 100 76 81 99 100 91 85 64
83 95 96 90 98 100 99 100 100 100 100 100 100 100 100 100 100 100 100 86 98 100 100 95 94 95 100 100 100 97 72 64 48 52 45 48 51 63 57 57 78 93 98 100 99 100 72 81 68
100 100 88 85 85 78 71 82 91 99 100 100 100 100 100 96 88 88 100 96 82 72 95 98 99 100 100 100 100 100 79 62 54 54 44 48 46 51 75 78 72 65 79 96 100 100 86 65 63
89 90 95 87 83 80 72 68 61 59 55 54 53 59 86 84 76 65 81 100 100 100 95 100 100 100 100 100 100 100 100 80 93 100 68 51 48 41 51 80 86 81 77 88 76 89 90 79 78
89 76 68 63 56 52 50 50 50 47 45 43 40 36 38 45 58 66 64 87 96 96 97 100 100 100 100 100 100 100 88 97 100 98 95 64 48 41 42 63 83 78 87 79 65 67 69 69 89
64 59 46 43 33 31 35 34 35 35 36 35 34 35 33 36 41 42 54 78 94 93 84 89 73 100 100 100 100 100 99 100 100 97 81 93 64 37 38 40 80 96 89 77 67 79 63 67 77
46 35 34 33 37 36 33 29 27 28 27 26 24 24 26 28 35 52 55 55 66 94 91 65 77 90 100 100 100 94 73 81 100 100 98 82 67 44 33 40 43 93 94 78 60 60 92 53 69
46 42 40 36 34 34 35 39 36 30 22 20 20 19 21 22 27 33 40 52 51 53 77 79 98 94 73 78 67 88 87 100 100 100 100 78 62 51 33 35 34 66 90 72 61 53 61 77 60
37 39 40 37 38 36 34 32 29 26 20 18 22 21 20 19 21 28 30 30 36 40 42 84 82 89 92 85 75 76 100 100 100 100 92 85 71 56 45 31 30 35 83 68 67 65 77 77 67
51 49 47 50 47 39 29 30 29 28 21 23 23 20 18 17 16 16 18 22 24 34 40 44 91 99 85 100 100 93 81 67 65 75 88 80 53 41 44 30 27 31 81 72 70 84 68 56 58
57 47 44 46 44 39 32 29 30 30 23 19 16 14 12 10 10 12 14 14 15 19 29 44 41 52 75 80 77 97 77 78 84 70 65 70 68 71 78 61 29 29 61 89 96 85 60 62 64
48 43 50 49 47 44 39 30 26 22 16 12 10 8 7 6 5 5 7 8 9 11 19 25 47 41 32 59 92 71 68 100 100 100 82 100 100 100 92 95 29 26 40 98 96 82 74 71 75
49 56 57 52 48 36 32 29 21 16 11 9 7 6 5 4 4 3 4 4 5 7 10 19 26 46 33 30 45 50 49 64 65 85 100 100 100 100 93 100 66 31 29 80 80 76 72 85 100
61 61 56 50 37 34 26 20 15 13 9 8 6 5 5 4 4 3 2 3 3 4 5 9 16 28 41 21 32 28 44 56 72 100 100 100 100 100 100 100 90 54 32 46 76 73 79 100 100
66 59 60 49 38 31 22 16 14 9 9 7 8 8 6 4 5 4 3 3 3 3 4 6 8 15 24 27 23 31 49 55 69 100 100 100 100 100 100 98 100 74 46 41 70 71 88 100 100
65 65 57 45 36 27 18 16 11 10 10 10 12 11 8 8 8 7 5 4 3 3 3 4 6 9 15 22 23 24 30 46 70 98 100 100 100 100 98 92 100 61 38 56 66 87 89 100 100
70 64 53 42 31 23 19 14 12 14 12 12 16 18 14 14 8 9 8 6 5 4 4 4 4 7 11 15 20 21 15 33 68 89 100 100 100 100 100 100 72 66 34 34 68 79 90 100 100
68 60 48 32 26 25 19 12 16 14 21 19 29 23 20 15 11 10 11 7 6 6 5 5 5 5 8 14 18 21 26 52 98 60 96 91 98 99 97 100 80 98 57 29 60 84 83 100 100
64 54 39 27 24 24 14 17 17 18 35 39 52 41 29 24 15 11 16 13 9 10 7 6 6 6 8 12 22 28 26 33 54 64 71 56 56 68 81 45 78 42 30 28 55 87 100 100 100

GFSSGP_250_rhum_132.txt.gz
RH
17 17 20 29 35 43 58 61 56 51 44 45 55 75 85 84 76 48 46 77 71 72 56 47 42 41 39 40 37 33 20 18 22 26 28 26 24 24 25 26 24 23 22 24 25 20 21 19 17
22 20 18 17 19 27 39 43 36 31 37 30 30 30 32 49 55 59 67 56 61 58 52 52 49 43 35 31 29 20 20 20 20 22 24 22 26 25 30 29 33 30 35 32 38 32 31 26 22
37 26 26 24 18 18 21 23 24 30 41 35 32 31 27 29 31 31 35 30 30 28 28 27 27 25 22 20 18 21 22 23 23 24 26 30 34 35 39 44 42 46 50 48 45 40 41 34 35
67 31 28 30 27 24 20 18 21 24 30 32 33 31 29 26 25 29 26 24 23 24 26 26 26 24 24 24 23 22 22 23 28 25 24 28 30 37 41 49 58 55 71 75 53 51 49 43 47
69 61 38 29 30 30 29 25 24 24 23 20 20 20 20 22 26 24 23 24 23 23 25 24 24 23 22 20 20 19 18 19 19 20 21 23 26 37 45 55 74 73 88 78 66 64 60 46 42
90 74 59 50 35 35 35 29 41 31 31 30 28 32 41 28 26 38 26 25 23 23 25 24 25 26 27 28 27 27 26 28 24 26 26 28 28 34 52 63 64 78 92 82 86 74 69 62 58
100 98 78 60 47 34 36 31 38 35 41 31 48 50 44 29 30 61 48 36 34 32 34 33 34 30 30 30 29 34 41 38 34 35 33 30 33 32 37 50 58 76 81 96 76 87 85 75 72
100 100 100 85 65 39 33 30 43 65 48 58 54 59 67 41 32 76 52 52 43 32 37 46 43 50 41 36 38 42 43 51 48 50 46 42 36 34 34 41 57 86 100 96 100 100 100 77 93
99 100 100 100 86 64 47 47 59 52 62 69 68 59 55 40 38 61 74 50 40 44 47 56 61 60 47 49 46 47 57 55 53 56 55 48 41 42 38 36 54 99 100 100 100 100 100 98 79
91 99 100 100 100 100 97 73 74 71 68 74 76 64 67 67 49 63 60 58 69 76 54 54 64 66 71 68 70 62 56 59 66 56 56 53 46 41 41 37 39 72 100 97 100 100 100 76 72
100 93 80 98 100 100 100 100 100 100 100 100 100 98 79 70 94 97 81 65 57 70 69 73 86 75 67 70 77 70 67 64 61 57 51 49 53 53 46 42 33 48 74 100 90 100 100 98 83
100 100 100 92 84 91 94 77 77 98 100 100 100 100 100 100 100 100 100 100 94 79 73 77 78 76 75 61 67 79 77 84 80 63 60 54 50 56 58 49 40 40 82 100 97 100 100 91 100
100 100 100 100 100 83 75 84 87 82 79 100 100 100 100 100 100 100 100 100 100 91 90 80 76 85 83 85 74 80 90 74 81 92 100 100 60 51 48 44 44 37 52 78 100 100 100 100 100
100 100 100 100 100 100 100 100 100 100 100 100 97 100 99 95 100 100 100 100 100 98 80 72 69 75 74 50 91 100 77 68 83 92 90 100 64 52 50 52 44 39 43 63 70 91 98 100 100
100 100 100 100 100 100 100 100 92 84 82 84 84 83 82 79 72 73 72 79 88 90 99 92 90 87 72 64 48 80 100 91 94 100 100 100 74 60 95 87 45 45 39 43 67 80 83 90 94
100 99 100 100 100 98 100 96 82 72 64 65 54 42 45 42 42 43 48 47 47 44 40 79 79 73 69 62 49 38 50 74 100 100 100 100 94 90 64 54 56 46 40 37 51 72 90 85 72
87 97 94 94 88 73 67 74 67 61 54 46 38 35 32 31 31 36 35 36 37 38 38 37 40 59 85 74 69 97 61 71 78 97 100 100 100 100 72 48 57 60 43 38 36 53 90 88 79
100 84 100 99 98 85 64 55 52 47 42 38 32 32 28 26 26 25 28 33 29 28 29 32 31 38 43 82 100 79 88 94 98 100 100 100 100 100 65 43 81 67 57 44 38 40 68 94 78
99 89 72 56 45 47 47 50 39 31 29 28 32 28 26 23 24 24 24 24 30 37 29 27 29 25 43 80 77 79 55 66 85 100 100 100 85 82 64 52 82 73 65 56 49 38 58 96 80
75 74 51 41 47 50 37 37 35 32 30 29 24 21 19 20 22 23 22 21 20 23 32 31 31 39 30 39 45 82 79 55 62 69 100 100 85 58 79 90 99 76 59 62 38 34 36 66 88
75 60 43 42 40 37 36 42 44 30 25 24 22 24 27 25 22 19 18 18 18 17 20 25 28 29 38 30 40 43 46 36 69 98 96 92 70 86 76 74 66 58 74 81 78 40 32 48 75
68 62 67 66 63 58 52 36 34 28 27 25 25 28 22 19 15 13 12 12 11 11 11 15 24 30 25 25 26 37 40 31 67 100 87 74 63 47 47 49 54 70 84 96 66 58 32 43 68
67 66 57 50 47 43 40 36 28 28 24 27 32 24 18 14 10 8 7 6 6 6 7 8 11 18 24 21 20 26 34 34 45 66 65 50 84 76 94 82 81 98 100 93 98 74 27 38 71
71 68 64 58 48 46 40 30 28 28 26 32 24 19 13 10 7 6 5 4 4 4 4 4 6 8 14 19 14 18 27 24 36 70 95 98 100 100 100 100 99 100 100 95 94 91 52 42 66
70 67 70 55 44 44 47 33 28 28 32 28 19 13 10 8 6 6 6 4 3 3 3 3 3 4 7 12 12 14 20 20 23 73 99 100 92 97 100 100 97 100 100 99 100 80 72 33 59
58 63 54 42 52 49 52 40 33 38 31 23 16 12 8 9 9 9 8 5 4 4 3 2 2 3 4 8 9 12 15 16 22 94 100 100 86 100 100 100 100 100 100 100 100 99 89 78 60
71 70 59 52 56 58 54 47 37 31 27 19 14 9 10 11 9 9 11 9 5 4 4 3 3 3 3 5 8 10 14 13 27 93 97 100 100 100 99 100 100 100 92 97 99 90 58 75 84
99 78 72 66 66 61 59 38 37 28 22 17 12 11 14 15 24 20 22 14 8 6 4 4 3 3 4 5 7 11 14 14 18 47 100 100 100 100 100 100 100 100 100 100 96 97 73 71 69
97 96 90 69 69 61 54 40 32 24 19 13 12 16 22 57 40 45 44 16 12 7 5 4 4 4 4 5 8 13 15 14 22 30 62 100 100 100 100 100 100 100 100 99 98 92 78 62 60
100 90 82 73 70 60 43 35 25 23 16 14 16 19 53 100 81 58 45 27 12 8 7 6 6 7 44 6 7 11 18 21 11 39 47 77 100 100 100 100 100 100 99 100 100 100 74 54 68